<?xml version='1.0' encoding='UTF-8'?><gpx version="1.1" creator="JPX - https://github.com/jenetics/jpx" xmlns="http://www.topografix.com/GPX/1/1"><trk><trkseg><trkpt lat="45.9949942" lon="11.7595296"><ele>604.0</ele><time>2026-04-06T14:27:59.287Z</time></trkpt><trkpt lat="45.9950079" lon="11.7596193"><ele>604.0</ele><time>2026-04-06T14:28:05.661Z</time></trkpt><trkpt lat="45.9949874" lon="11.7597069"><ele>604.0</ele><time>2026-04-06T14:30:39.634Z</time></trkpt><trkpt lat="45.9949668" lon="11.7598555"><ele>604.0</ele><time>2026-04-06T14:30:42.648Z</time></trkpt><trkpt lat="45.9949116" lon="11.7599352"><ele>604.0</ele><time>2026-04-06T14:30:45.663Z</time></trkpt><trkpt lat="45.9948423" lon="11.759942"><ele>604.0</ele><time>2026-04-06T14:30:47.634Z</time></trkpt><trkpt lat="45.9947844" lon="11.7598726"><ele>604.0</ele><time>2026-04-06T14:30:51.693Z</time></trkpt><trkpt lat="45.9947577" lon="11.7597808"><ele>604.0</ele><time>2026-04-06T14:30:53.663Z</time></trkpt><trkpt lat="45.9946789" lon="11.7596861"><ele>604.0</ele><time>2026-04-06T14:30:55.634Z</time></trkpt><trkpt lat="45.9946041" lon="11.7596106"><ele>604.0</ele><time>2026-04-06T14:30:57.584Z</time></trkpt><trkpt lat="45.9945238" lon="11.7595424"><ele>604.0</ele><time>2026-04-06T14:30:59.692Z</time></trkpt><trkpt lat="45.994459" lon="11.7594702"><ele>604.0</ele><time>2026-04-06T14:31:01.663Z</time></trkpt><trkpt lat="45.9944421" lon="11.7593554"><ele>604.8</ele><time>2026-04-06T14:31:03.634Z</time></trkpt><trkpt lat="45.9944436" lon="11.7592127"><ele>605.5999999999999</ele><time>2026-04-06T14:31:05.721Z</time></trkpt><trkpt lat="45.9944547" lon="11.7590764"><ele>606.4</ele><time>2026-04-06T14:31:07.692Z</time></trkpt><trkpt lat="45.9944288" lon="11.7589256"><ele>607.1999999999999</ele><time>2026-04-06T14:31:09.61Z</time></trkpt><trkpt lat="45.9944022" lon="11.758761"><ele>608.0</ele><time>2026-04-06T14:31:11.61Z</time></trkpt><trkpt lat="45.9943774" lon="11.7584821"><ele>609.0</ele><time>2026-04-06T14:31:14.61Z</time></trkpt><trkpt lat="45.9943814" lon="11.7583835"><ele>610.0</ele><time>2026-04-06T14:31:15.61Z</time></trkpt><trkpt lat="45.9943883" lon="11.7582896"><ele>611.0</ele><time>2026-04-06T14:31:16.611Z</time></trkpt><trkpt lat="45.9943896" lon="11.758198"><ele>612.0</ele><time>2026-04-06T14:31:17.611Z</time></trkpt><trkpt lat="45.9943827" lon="11.7581064"><ele>613.0</ele><time>2026-04-06T14:31:18.611Z</time></trkpt><trkpt lat="45.9943658" lon="11.7580185"><ele>614.0</ele><time>2026-04-06T14:31:19.61Z</time></trkpt><trkpt lat="45.9943432" lon="11.757933"><ele>615.0</ele><time>2026-04-06T14:31:20.611Z</time></trkpt><trkpt lat="45.994318" lon="11.7578493"><ele>615.0</ele><time>2026-04-06T14:31:21.61Z</time></trkpt><trkpt lat="45.9942911" lon="11.7577646"><ele>615.0</ele><time>2026-04-06T14:31:22.61Z</time></trkpt><trkpt lat="45.9942627" lon="11.7576783"><ele>615.0</ele><time>2026-04-06T14:31:23.61Z</time></trkpt><trkpt lat="45.9942312" lon="11.7575916"><ele>615.0</ele><time>2026-04-06T14:31:24.611Z</time></trkpt><trkpt lat="45.9942001" lon="11.7575057"><ele>615.0</ele><time>2026-04-06T14:31:25.61Z</time></trkpt><trkpt lat="45.9941712" lon="11.7574168"><ele>615.0</ele><time>2026-04-06T14:31:26.61Z</time></trkpt><trkpt lat="45.9941487" lon="11.7573244"><ele>615.0</ele><time>2026-04-06T14:31:27.61Z</time></trkpt><trkpt lat="45.9941329" lon="11.7572311"><ele>613.8333333333334</ele><time>2026-04-06T14:31:28.611Z</time></trkpt><trkpt lat="45.9941215" lon="11.7571385"><ele>612.6666666666666</ele><time>2026-04-06T14:31:29.61Z</time></trkpt><trkpt lat="45.994118" lon="11.7570467"><ele>611.5</ele><time>2026-04-06T14:31:30.61Z</time></trkpt><trkpt lat="45.994131" lon="11.7568696"><ele>610.3333333333333</ele><time>2026-04-06T14:31:32.61Z</time></trkpt><trkpt lat="45.9941397" lon="11.7567792"><ele>609.1666666666666</ele><time>2026-04-06T14:31:33.61Z</time></trkpt><trkpt lat="45.9941463" lon="11.7566816"><ele>608.0</ele><time>2026-04-06T14:31:34.61Z</time></trkpt><trkpt lat="45.9941517" lon="11.7565872"><ele>608.0</ele><time>2026-04-06T14:31:35.611Z</time></trkpt><trkpt lat="45.9941675" lon="11.7564063"><ele>608.0</ele><time>2026-04-06T14:31:37.61Z</time></trkpt><trkpt lat="45.9941796" lon="11.7562309"><ele>608.0</ele><time>2026-04-06T14:31:39.61Z</time></trkpt><trkpt lat="45.9942238" lon="11.7560562"><ele>608.0</ele><time>2026-04-06T14:31:41.61Z</time></trkpt><trkpt lat="45.9942495" lon="11.7559623"><ele>608.0</ele><time>2026-04-06T14:31:42.611Z</time></trkpt><trkpt lat="45.994266" lon="11.755871"><ele>613.6666666666666</ele><time>2026-04-06T14:31:43.61Z</time></trkpt><trkpt lat="45.9943121" lon="11.7557178"><ele>619.3333333333333</ele><time>2026-04-06T14:31:45.61Z</time></trkpt><trkpt lat="45.994409" lon="11.7556125"><ele>625.0</ele><time>2026-04-06T14:31:47.611Z</time></trkpt><trkpt lat="45.9944557" lon="11.7555384"><ele>630.6666666666666</ele><time>2026-04-06T14:31:48.61Z</time></trkpt><trkpt lat="45.9944769" lon="11.7554434"><ele>636.3333333333334</ele><time>2026-04-06T14:31:49.611Z</time></trkpt><trkpt lat="45.9944685" lon="11.755341"><ele>642.0</ele><time>2026-04-06T14:31:50.61Z</time></trkpt><trkpt lat="45.9944467" lon="11.7552432"><ele>641.8333333333334</ele><time>2026-04-06T14:31:51.612Z</time></trkpt><trkpt lat="45.9944361" lon="11.7551442"><ele>641.6666666666666</ele><time>2026-04-06T14:31:52.611Z</time></trkpt><trkpt lat="45.9944464" lon="11.7550492"><ele>641.5</ele><time>2026-04-06T14:31:53.61Z</time></trkpt><trkpt lat="45.9944645" lon="11.7549506"><ele>641.3333333333333</ele><time>2026-04-06T14:31:54.611Z</time></trkpt><trkpt lat="45.9944737" lon="11.7548514"><ele>641.1666666666666</ele><time>2026-04-06T14:31:55.611Z</time></trkpt><trkpt lat="45.9944723" lon="11.7547594"><ele>641.0</ele><time>2026-04-06T14:31:56.611Z</time></trkpt><trkpt lat="45.9944391" lon="11.7546009"><ele>641.0</ele><time>2026-04-06T14:31:58.611Z</time></trkpt><trkpt lat="45.9943986" lon="11.7544279"><ele>641.0</ele><time>2026-04-06T14:32:00.611Z</time></trkpt><trkpt lat="45.9943928" lon="11.7543292"><ele>641.0</ele><time>2026-04-06T14:32:01.611Z</time></trkpt><trkpt lat="45.994395" lon="11.7542319"><ele>641.0</ele><time>2026-04-06T14:32:02.611Z</time></trkpt><trkpt lat="45.9944" lon="11.7541367"><ele>641.0</ele><time>2026-04-06T14:32:03.611Z</time></trkpt><trkpt lat="45.9944045" lon="11.7540425"><ele>641.0</ele><time>2026-04-06T14:32:04.61Z</time></trkpt><trkpt lat="45.9944081" lon="11.7539494"><ele>642.1666666666666</ele><time>2026-04-06T14:32:05.61Z</time></trkpt><trkpt lat="45.994409" lon="11.7538568"><ele>643.3333333333333</ele><time>2026-04-06T14:32:06.612Z</time></trkpt><trkpt lat="45.9944052" lon="11.753766"><ele>644.5</ele><time>2026-04-06T14:32:07.61Z</time></trkpt><trkpt lat="45.9943951" lon="11.7535873"><ele>645.6666666666666</ele><time>2026-04-06T14:32:09.611Z</time></trkpt><trkpt lat="45.9943906" lon="11.7534961"><ele>646.8333333333334</ele><time>2026-04-06T14:32:10.611Z</time></trkpt><trkpt lat="45.9943947" lon="11.7533105"><ele>648.0</ele><time>2026-04-06T14:32:12.611Z</time></trkpt><trkpt lat="45.9943999" lon="11.7532156"><ele>649.1428571428571</ele><time>2026-04-06T14:32:13.611Z</time></trkpt><trkpt lat="45.9944074" lon="11.7531217"><ele>650.2857142857142</ele><time>2026-04-06T14:32:14.611Z</time></trkpt><trkpt lat="45.9944181" lon="11.7530248"><ele>651.4285714285713</ele><time>2026-04-06T14:32:15.611Z</time></trkpt><trkpt lat="45.9944292" lon="11.7529271"><ele>652.5714285714286</ele><time>2026-04-06T14:32:16.612Z</time></trkpt><trkpt lat="45.9944414" lon="11.7528256"><ele>653.7142857142857</ele><time>2026-04-06T14:32:17.611Z</time></trkpt><trkpt lat="45.9944538" lon="11.7527201"><ele>654.8571428571428</ele><time>2026-04-06T14:32:18.611Z</time></trkpt><trkpt lat="45.9944675" lon="11.7526133"><ele>656.0</ele><time>2026-04-06T14:32:19.612Z</time></trkpt><trkpt lat="45.9944819" lon="11.752506"><ele>656.0</ele><time>2026-04-06T14:32:20.611Z</time></trkpt><trkpt lat="45.9944982" lon="11.7523947"><ele>656.0</ele><time>2026-04-06T14:32:21.611Z</time></trkpt><trkpt lat="45.9945163" lon="11.7522834"><ele>656.0</ele><time>2026-04-06T14:32:22.611Z</time></trkpt><trkpt lat="45.9945368" lon="11.7521704"><ele>656.0</ele><time>2026-04-06T14:32:23.612Z</time></trkpt><trkpt lat="45.9945575" lon="11.7520556"><ele>656.0</ele><time>2026-04-06T14:32:24.611Z</time></trkpt><trkpt lat="45.9945807" lon="11.7519387"><ele>656.0</ele><time>2026-04-06T14:32:25.611Z</time></trkpt><trkpt lat="45.9946039" lon="11.751823"><ele>655.5</ele><time>2026-04-06T14:32:26.611Z</time></trkpt><trkpt lat="45.9946242" lon="11.7517085"><ele>655.0</ele><time>2026-04-06T14:32:27.612Z</time></trkpt><trkpt lat="45.9946447" lon="11.7515927"><ele>654.5</ele><time>2026-04-06T14:32:28.611Z</time></trkpt><trkpt lat="45.9946668" lon="11.7514854"><ele>654.0</ele><time>2026-04-06T14:32:29.611Z</time></trkpt><trkpt lat="45.994695" lon="11.7513913"><ele>653.5</ele><time>2026-04-06T14:32:30.612Z</time></trkpt><trkpt lat="45.9947242" lon="11.751299"><ele>653.0</ele><time>2026-04-06T14:32:31.611Z</time></trkpt><trkpt lat="45.9947528" lon="11.7512046"><ele>653.0</ele><time>2026-04-06T14:32:32.611Z</time></trkpt><trkpt lat="45.9947777" lon="11.7511078"><ele>653.0</ele><time>2026-04-06T14:32:33.612Z</time></trkpt><trkpt lat="45.9948014" lon="11.7510126"><ele>653.0</ele><time>2026-04-06T14:32:34.611Z</time></trkpt><trkpt lat="45.9948228" lon="11.7509241"><ele>653.0</ele><time>2026-04-06T14:32:35.612Z</time></trkpt><trkpt lat="45.9948477" lon="11.750838"><ele>653.0</ele><time>2026-04-06T14:32:36.611Z</time></trkpt><trkpt lat="45.9949126" lon="11.7506872"><ele>653.0</ele><time>2026-04-06T14:32:38.611Z</time></trkpt><trkpt lat="45.9949903" lon="11.7505552"><ele>661.8</ele><time>2026-04-06T14:32:40.611Z</time></trkpt><trkpt lat="45.9950665" lon="11.7504231"><ele>670.5999999999999</ele><time>2026-04-06T14:32:42.611Z</time></trkpt><trkpt lat="45.9951069" lon="11.7502649"><ele>679.4000000000001</ele><time>2026-04-06T14:32:44.611Z</time></trkpt><trkpt lat="45.9950984" lon="11.7500888"><ele>688.2</ele><time>2026-04-06T14:32:46.611Z</time></trkpt><trkpt lat="45.9950946" lon="11.749992"><ele>697.0</ele><time>2026-04-06T14:32:47.612Z</time></trkpt><trkpt lat="45.9950947" lon="11.7498895"><ele>697.0</ele><time>2026-04-06T14:32:48.612Z</time></trkpt><trkpt lat="45.995096" lon="11.7497815"><ele>697.0</ele><time>2026-04-06T14:32:49.611Z</time></trkpt><trkpt lat="45.9950977" lon="11.7496705"><ele>697.0</ele><time>2026-04-06T14:32:50.612Z</time></trkpt><trkpt lat="45.9951013" lon="11.749561"><ele>697.0</ele><time>2026-04-06T14:32:51.612Z</time></trkpt><trkpt lat="45.9951075" lon="11.7494532"><ele>697.0</ele><time>2026-04-06T14:32:52.612Z</time></trkpt><trkpt lat="45.9951196" lon="11.7493407"><ele>697.0</ele><time>2026-04-06T14:32:53.612Z</time></trkpt><trkpt lat="45.9951387" lon="11.7492281"><ele>696.1666666666667</ele><time>2026-04-06T14:32:54.611Z</time></trkpt><trkpt lat="45.9951632" lon="11.7491192"><ele>695.3333333333334</ele><time>2026-04-06T14:32:55.612Z</time></trkpt><trkpt lat="45.9951913" lon="11.7490144"><ele>694.5</ele><time>2026-04-06T14:32:56.612Z</time></trkpt><trkpt lat="45.9952237" lon="11.7489168"><ele>693.6666666666666</ele><time>2026-04-06T14:32:57.611Z</time></trkpt><trkpt lat="45.9952601" lon="11.7488243"><ele>692.8333333333333</ele><time>2026-04-06T14:32:58.613Z</time></trkpt><trkpt lat="45.9952981" lon="11.7487367"><ele>692.0</ele><time>2026-04-06T14:32:59.611Z</time></trkpt><trkpt lat="45.995338" lon="11.7486486"><ele>692.0</ele><time>2026-04-06T14:33:00.613Z</time></trkpt><trkpt lat="45.9953792" lon="11.7485621"><ele>692.0</ele><time>2026-04-06T14:33:01.612Z</time></trkpt><trkpt lat="45.9954216" lon="11.7484743"><ele>692.0</ele><time>2026-04-06T14:33:02.611Z</time></trkpt><trkpt lat="45.9954638" lon="11.748383"><ele>692.0</ele><time>2026-04-06T14:33:03.611Z</time></trkpt><trkpt lat="45.9955024" lon="11.7482933"><ele>692.0</ele><time>2026-04-06T14:33:04.612Z</time></trkpt><trkpt lat="45.9955402" lon="11.7482027"><ele>692.0</ele><time>2026-04-06T14:33:05.611Z</time></trkpt><trkpt lat="45.9955777" lon="11.7481136"><ele>692.0</ele><time>2026-04-06T14:33:06.613Z</time></trkpt><trkpt lat="45.9956172" lon="11.7480286"><ele>689.4285714285714</ele><time>2026-04-06T14:33:07.612Z</time></trkpt><trkpt lat="45.9956593" lon="11.7479481"><ele>686.8571428571429</ele><time>2026-04-06T14:33:08.611Z</time></trkpt><trkpt lat="45.9957043" lon="11.7478707"><ele>684.2857142857143</ele><time>2026-04-06T14:33:09.611Z</time></trkpt><trkpt lat="45.9957513" lon="11.7477953"><ele>681.7142857142858</ele><time>2026-04-06T14:33:10.612Z</time></trkpt><trkpt lat="45.9958024" lon="11.7477237"><ele>679.1428571428571</ele><time>2026-04-06T14:33:11.612Z</time></trkpt><trkpt lat="45.9958529" lon="11.7476529"><ele>676.5714285714287</ele><time>2026-04-06T14:33:12.612Z</time></trkpt><trkpt lat="45.9959028" lon="11.747579"><ele>674.0</ele><time>2026-04-06T14:33:13.612Z</time></trkpt><trkpt lat="45.9959539" lon="11.7475015"><ele>674.0000000000001</ele><time>2026-04-06T14:33:14.612Z</time></trkpt><trkpt lat="45.9960053" lon="11.7474221"><ele>674.0</ele><time>2026-04-06T14:33:15.612Z</time></trkpt><trkpt lat="45.9960528" lon="11.7473442"><ele>674.0</ele><time>2026-04-06T14:33:16.612Z</time></trkpt><trkpt lat="45.996098" lon="11.7472607"><ele>674.0</ele><time>2026-04-06T14:33:17.612Z</time></trkpt><trkpt lat="45.9961446" lon="11.7471813"><ele>674.0</ele><time>2026-04-06T14:33:18.612Z</time></trkpt><trkpt lat="45.9961925" lon="11.7471121"><ele>674.0000000000001</ele><time>2026-04-06T14:33:19.612Z</time></trkpt><trkpt lat="45.9962438" lon="11.7470554"><ele>674.0</ele><time>2026-04-06T14:33:20.612Z</time></trkpt><trkpt lat="45.9963027" lon="11.7470076"><ele>674.0</ele><time>2026-04-06T14:33:21.612Z</time></trkpt><trkpt lat="45.9963737" lon="11.7469756"><ele>674.0</ele><time>2026-04-06T14:33:22.613Z</time></trkpt><trkpt lat="45.9964517" lon="11.7469454"><ele>674.0</ele><time>2026-04-06T14:33:23.612Z</time></trkpt><trkpt lat="45.996527" lon="11.7469181"><ele>674.0</ele><time>2026-04-06T14:33:24.612Z</time></trkpt><trkpt lat="45.9966026" lon="11.7469007"><ele>674.0</ele><time>2026-04-06T14:33:25.612Z</time></trkpt><trkpt lat="45.9966769" lon="11.7468921"><ele>674.0</ele><time>2026-04-06T14:33:26.612Z</time></trkpt><trkpt lat="45.9967532" lon="11.7469105"><ele>675.5</ele><time>2026-04-06T14:33:27.612Z</time></trkpt><trkpt lat="45.996822" lon="11.7469478"><ele>677.0</ele><time>2026-04-06T14:33:28.612Z</time></trkpt><trkpt lat="45.9968892" lon="11.7470047"><ele>678.5</ele><time>2026-04-06T14:33:29.612Z</time></trkpt><trkpt lat="45.9969508" lon="11.7470635"><ele>680.0</ele><time>2026-04-06T14:33:30.612Z</time></trkpt><trkpt lat="45.9970069" lon="11.7471181"><ele>681.5</ele><time>2026-04-06T14:33:31.612Z</time></trkpt><trkpt lat="45.997086" lon="11.7471698"><ele>683.0</ele><time>2026-04-06T14:33:33.612Z</time></trkpt><trkpt lat="45.9971556" lon="11.7471952"><ele>683.0</ele><time>2026-04-06T14:33:35.612Z</time></trkpt><trkpt lat="45.9972532" lon="11.7472018"><ele>683.0</ele><time>2026-04-06T14:33:37.612Z</time></trkpt><trkpt lat="45.9973663" lon="11.7471061"><ele>683.0</ele><time>2026-04-06T14:33:40.612Z</time></trkpt><trkpt lat="45.9973801" lon="11.7470059"><ele>683.0</ele><time>2026-04-06T14:33:41.612Z</time></trkpt><trkpt lat="45.9973873" lon="11.7469113"><ele>683.0</ele><time>2026-04-06T14:33:42.613Z</time></trkpt><trkpt lat="45.997402" lon="11.7468153"><ele>683.0</ele><time>2026-04-06T14:33:43.613Z</time></trkpt><trkpt lat="45.9974338" lon="11.7467307"><ele>680.5999999999999</ele><time>2026-04-06T14:33:44.613Z</time></trkpt><trkpt lat="45.997475" lon="11.7466601"><ele>678.1999999999999</ele><time>2026-04-06T14:33:45.612Z</time></trkpt><trkpt lat="45.9975731" lon="11.7465938"><ele>675.8</ele><time>2026-04-06T14:33:47.613Z</time></trkpt><trkpt lat="45.9976938" lon="11.7465856"><ele>673.4</ele><time>2026-04-06T14:33:49.613Z</time></trkpt><trkpt lat="45.9978123" lon="11.7465616"><ele>671.0</ele><time>2026-04-06T14:33:51.613Z</time></trkpt><trkpt lat="45.9979144" lon="11.7465373"><ele>671.0</ele><time>2026-04-06T14:33:53.612Z</time></trkpt><trkpt lat="45.9979931" lon="11.7465116"><ele>671.0</ele><time>2026-04-06T14:33:55.612Z</time></trkpt><trkpt lat="45.9981775" lon="11.7464504"><ele>671.0</ele><time>2026-04-06T14:34:10.613Z</time></trkpt><trkpt lat="45.9982941" lon="11.7464081"><ele>671.0</ele><time>2026-04-06T14:34:11.613Z</time></trkpt><trkpt lat="45.9983888" lon="11.7463841"><ele>672.0</ele><time>2026-04-06T14:34:12.613Z</time></trkpt><trkpt lat="45.9984762" lon="11.7463787"><ele>673.0</ele><time>2026-04-06T14:34:13.613Z</time></trkpt><trkpt lat="45.9985583" lon="11.7463917"><ele>674.0</ele><time>2026-04-06T14:34:14.613Z</time></trkpt><trkpt lat="45.9986342" lon="11.7464237"><ele>675.0</ele><time>2026-04-06T14:34:15.613Z</time></trkpt><trkpt lat="45.9987022" lon="11.7464735"><ele>676.0</ele><time>2026-04-06T14:34:16.613Z</time></trkpt><trkpt lat="45.9987676" lon="11.7465329"><ele>677.0</ele><time>2026-04-06T14:34:17.612Z</time></trkpt><trkpt lat="45.9988348" lon="11.7465954"><ele>677.0</ele><time>2026-04-06T14:34:18.613Z</time></trkpt><trkpt lat="45.9989028" lon="11.7466418"><ele>677.0</ele><time>2026-04-06T14:34:19.614Z</time></trkpt><trkpt lat="45.9989831" lon="11.7466527"><ele>677.0</ele><time>2026-04-06T14:34:20.613Z</time></trkpt><trkpt lat="45.9990644" lon="11.7466285"><ele>677.0</ele><time>2026-04-06T14:34:21.614Z</time></trkpt><trkpt lat="45.9991424" lon="11.7465906"><ele>677.0</ele><time>2026-04-06T14:34:22.613Z</time></trkpt><trkpt lat="45.9992246" lon="11.7465491"><ele>677.0</ele><time>2026-04-06T14:34:23.614Z</time></trkpt><trkpt lat="45.9993039" lon="11.7465084"><ele>678.5</ele><time>2026-04-06T14:34:24.613Z</time></trkpt><trkpt lat="45.9993813" lon="11.7464691"><ele>680.0</ele><time>2026-04-06T14:34:25.613Z</time></trkpt><trkpt lat="45.9994555" lon="11.7464264"><ele>681.5</ele><time>2026-04-06T14:34:26.613Z</time></trkpt><trkpt lat="45.999531" lon="11.7463749"><ele>683.0</ele><time>2026-04-06T14:34:27.614Z</time></trkpt><trkpt lat="45.9996032" lon="11.7463207"><ele>684.5</ele><time>2026-04-06T14:34:28.613Z</time></trkpt><trkpt lat="45.9996689" lon="11.746267"><ele>686.0</ele><time>2026-04-06T14:34:29.614Z</time></trkpt><trkpt lat="45.9997313" lon="11.7462195"><ele>686.0</ele><time>2026-04-06T14:34:30.613Z</time></trkpt><trkpt lat="45.9997891" lon="11.746177"><ele>686.0</ele><time>2026-04-06T14:34:31.613Z</time></trkpt><trkpt lat="45.9998964" lon="11.746098"><ele>686.0</ele><time>2026-04-06T14:34:33.613Z</time></trkpt><trkpt lat="45.9999567" lon="11.7460632"><ele>686.0</ele><time>2026-04-06T14:34:34.613Z</time></trkpt><trkpt lat="46.0000685" lon="11.7460264"><ele>686.0</ele><time>2026-04-06T14:34:36.613Z</time></trkpt><trkpt lat="46.0001836" lon="11.7460298"><ele>686.0</ele><time>2026-04-06T14:34:38.613Z</time></trkpt><trkpt lat="46.0002947" lon="11.7460387"><ele>686.0</ele><time>2026-04-06T14:34:40.613Z</time></trkpt><trkpt lat="46.0003982" lon="11.7460586"><ele>686.0</ele><time>2026-04-06T14:34:42.613Z</time></trkpt><trkpt lat="46.0004968" lon="11.7461409"><ele>686.0</ele><time>2026-04-06T14:34:44.614Z</time></trkpt><trkpt lat="46.0005563" lon="11.7461859"><ele>686.0</ele><time>2026-04-06T14:34:45.613Z</time></trkpt><trkpt lat="46.0006685" lon="11.7462374"><ele>686.0</ele><time>2026-04-06T14:34:47.614Z</time></trkpt><trkpt lat="46.000792" lon="11.7462552"><ele>686.0</ele><time>2026-04-06T14:34:49.613Z</time></trkpt><trkpt lat="46.0008596" lon="11.7462578"><ele>686.0</ele><time>2026-04-06T14:34:50.615Z</time></trkpt><trkpt lat="46.0009314" lon="11.7462478"><ele>686.0</ele><time>2026-04-06T14:34:51.614Z</time></trkpt><trkpt lat="46.0010036" lon="11.7462272"><ele>686.0</ele><time>2026-04-06T14:34:52.614Z</time></trkpt><trkpt lat="46.001079" lon="11.7461963"><ele>686.0</ele><time>2026-04-06T14:34:53.614Z</time></trkpt><trkpt lat="46.0011629" lon="11.7461601"><ele>687.2857142857143</ele><time>2026-04-06T14:34:54.613Z</time></trkpt><trkpt lat="46.0012453" lon="11.7461216"><ele>688.5714285714286</ele><time>2026-04-06T14:34:55.613Z</time></trkpt><trkpt lat="46.0013178" lon="11.7460894"><ele>689.8571428571429</ele><time>2026-04-06T14:34:56.615Z</time></trkpt><trkpt lat="46.0013805" lon="11.7460684"><ele>691.1428571428571</ele><time>2026-04-06T14:34:57.613Z</time></trkpt><trkpt lat="46.00145" lon="11.7460506"><ele>692.4285714285714</ele><time>2026-04-06T14:34:58.614Z</time></trkpt><trkpt lat="46.001516" lon="11.7460327"><ele>693.7142857142858</ele><time>2026-04-06T14:34:59.613Z</time></trkpt><trkpt lat="46.0015858" lon="11.7460145"><ele>695.0</ele><time>2026-04-06T14:35:00.615Z</time></trkpt><trkpt lat="46.0016642" lon="11.7459872"><ele>693.6666666666666</ele><time>2026-04-06T14:35:01.613Z</time></trkpt><trkpt lat="46.0017427" lon="11.7459423"><ele>692.3333333333333</ele><time>2026-04-06T14:35:02.614Z</time></trkpt><trkpt lat="46.0018198" lon="11.7458924"><ele>691.0</ele><time>2026-04-06T14:35:03.614Z</time></trkpt><trkpt lat="46.0018912" lon="11.7458512"><ele>689.6666666666666</ele><time>2026-04-06T14:35:04.615Z</time></trkpt><trkpt lat="46.0019624" lon="11.7458229"><ele>688.3333333333334</ele><time>2026-04-06T14:35:05.614Z</time></trkpt><trkpt lat="46.002036" lon="11.7458095"><ele>687.0</ele><time>2026-04-06T14:35:06.614Z</time></trkpt><trkpt lat="46.0021197" lon="11.7458105"><ele>687.0</ele><time>2026-04-06T14:35:07.613Z</time></trkpt><trkpt lat="46.0022147" lon="11.7458265"><ele>687.0</ele><time>2026-04-06T14:35:08.614Z</time></trkpt><trkpt lat="46.0022997" lon="11.7458424"><ele>687.0</ele><time>2026-04-06T14:35:09.614Z</time></trkpt><trkpt lat="46.0023765" lon="11.745841"><ele>687.0</ele><time>2026-04-06T14:35:10.614Z</time></trkpt><trkpt lat="46.0024463" lon="11.745824"><ele>687.0</ele><time>2026-04-06T14:35:11.613Z</time></trkpt><trkpt lat="46.0025228" lon="11.7457868"><ele>687.0</ele><time>2026-04-06T14:35:12.614Z</time></trkpt><trkpt lat="46.0026115" lon="11.7457446"><ele>690.2</ele><time>2026-04-06T14:35:13.614Z</time></trkpt><trkpt lat="46.0027096" lon="11.7457097"><ele>693.4000000000001</ele><time>2026-04-06T14:35:14.614Z</time></trkpt><trkpt lat="46.0028034" lon="11.7456888"><ele>696.5999999999999</ele><time>2026-04-06T14:35:15.613Z</time></trkpt><trkpt lat="46.0028919" lon="11.7456837"><ele>699.8</ele><time>2026-04-06T14:35:16.613Z</time></trkpt><trkpt lat="46.0029774" lon="11.7456873"><ele>703.0</ele><time>2026-04-06T14:35:17.615Z</time></trkpt><trkpt lat="46.0030605" lon="11.7456806"><ele>703.0</ele><time>2026-04-06T14:35:18.613Z</time></trkpt><trkpt lat="46.003132" lon="11.7456477"><ele>703.0</ele><time>2026-04-06T14:35:19.614Z</time></trkpt><trkpt lat="46.0032067" lon="11.7455909"><ele>703.0</ele><time>2026-04-06T14:35:20.614Z</time></trkpt><trkpt lat="46.0032844" lon="11.7455397"><ele>703.0</ele><time>2026-04-06T14:35:21.616Z</time></trkpt><trkpt lat="46.003361" lon="11.7454927"><ele>703.0</ele><time>2026-04-06T14:35:22.613Z</time></trkpt><trkpt lat="46.0034239" lon="11.7454429"><ele>703.0</ele><time>2026-04-06T14:35:23.614Z</time></trkpt><trkpt lat="46.0035006" lon="11.7453725"><ele>705.8333333333334</ele><time>2026-04-06T14:35:25.614Z</time></trkpt><trkpt lat="46.0035795" lon="11.7453357"><ele>708.6666666666667</ele><time>2026-04-06T14:35:27.615Z</time></trkpt><trkpt lat="46.003695" lon="11.7453191"><ele>711.5</ele><time>2026-04-06T14:35:29.614Z</time></trkpt><trkpt lat="46.003763" lon="11.7453264"><ele>714.3333333333334</ele><time>2026-04-06T14:35:30.614Z</time></trkpt><trkpt lat="46.0038344" lon="11.7453384"><ele>717.1666666666666</ele><time>2026-04-06T14:35:31.614Z</time></trkpt><trkpt lat="46.0039056" lon="11.7453405"><ele>720.0</ele><time>2026-04-06T14:35:32.614Z</time></trkpt><trkpt lat="46.0039704" lon="11.7453219"><ele>720.0</ele><time>2026-04-06T14:35:33.614Z</time></trkpt><trkpt lat="46.0040312" lon="11.7452876"><ele>720.0</ele><time>2026-04-06T14:35:34.614Z</time></trkpt><trkpt lat="46.0040905" lon="11.7452558"><ele>720.0</ele><time>2026-04-06T14:35:35.614Z</time></trkpt><trkpt lat="46.0041924" lon="11.7452046"><ele>720.0</ele><time>2026-04-06T14:35:37.614Z</time></trkpt><trkpt lat="46.0042609" lon="11.7451331"><ele>720.0</ele><time>2026-04-06T14:35:39.615Z</time></trkpt><trkpt lat="46.0043095" lon="11.7450698"><ele>720.0</ele><time>2026-04-06T14:35:41.615Z</time></trkpt><trkpt lat="46.0043703" lon="11.7450153"><ele>722.6</ele><time>2026-04-06T14:36:00.615Z</time></trkpt><trkpt lat="46.0044583" lon="11.7449491"><ele>725.2</ele><time>2026-04-06T14:36:02.614Z</time></trkpt><trkpt lat="46.0045441" lon="11.7448434"><ele>727.8</ele><time>2026-04-06T14:36:04.614Z</time></trkpt><trkpt lat="46.0046388" lon="11.7447691"><ele>730.4</ele><time>2026-04-06T14:36:06.615Z</time></trkpt><trkpt lat="46.0046904" lon="11.7447069"><ele>733.0</ele><time>2026-04-06T14:36:07.615Z</time></trkpt><trkpt lat="46.0047404" lon="11.7446285"><ele>732.9999999999999</ele><time>2026-04-06T14:36:08.615Z</time></trkpt><trkpt lat="46.0047859" lon="11.7445368"><ele>733.0</ele><time>2026-04-06T14:36:09.615Z</time></trkpt><trkpt lat="46.0048298" lon="11.7444364"><ele>733.0</ele><time>2026-04-06T14:36:10.614Z</time></trkpt><trkpt lat="46.0048661" lon="11.7443512"><ele>733.0</ele><time>2026-04-06T14:36:11.614Z</time></trkpt><trkpt lat="46.0048993" lon="11.7442676"><ele>733.0</ele><time>2026-04-06T14:36:12.616Z</time></trkpt><trkpt lat="46.0049306" lon="11.744181"><ele>732.9999999999999</ele><time>2026-04-06T14:36:13.614Z</time></trkpt><trkpt lat="46.0049492" lon="11.7440941"><ele>733.0</ele><time>2026-04-06T14:36:14.614Z</time></trkpt><trkpt lat="46.0049589" lon="11.7440044"><ele>736.4</ele><time>2026-04-06T14:36:15.615Z</time></trkpt><trkpt lat="46.0049606" lon="11.7439134"><ele>739.8</ele><time>2026-04-06T14:36:16.615Z</time></trkpt><trkpt lat="46.0049528" lon="11.7437498"><ele>743.2</ele><time>2026-04-06T14:36:18.615Z</time></trkpt><trkpt lat="46.0049459" lon="11.7436354"><ele>746.6</ele><time>2026-04-06T14:36:20.615Z</time></trkpt><trkpt lat="46.0048975" lon="11.7434989"><ele>750.0</ele><time>2026-04-06T14:36:22.615Z</time></trkpt><trkpt lat="46.0048797" lon="11.74331"><ele>758.6</ele><time>2026-04-06T14:36:24.616Z</time></trkpt><trkpt lat="46.0048754" lon="11.7431966"><ele>767.2</ele><time>2026-04-06T14:36:25.615Z</time></trkpt><trkpt lat="46.0048794" lon="11.7430889"><ele>775.8</ele><time>2026-04-06T14:36:26.616Z</time></trkpt><trkpt lat="46.004908" lon="11.7429187"><ele>784.4</ele><time>2026-04-06T14:36:28.615Z</time></trkpt><trkpt lat="46.0049309" lon="11.7427811"><ele>793.0</ele><time>2026-04-06T14:36:31.615Z</time></trkpt><trkpt lat="46.0049772" lon="11.7426222"><ele>794.0</ele><time>2026-04-06T14:36:33.615Z</time></trkpt><trkpt lat="46.0050258" lon="11.742435"><ele>795.0</ele><time>2026-04-06T14:36:35.616Z</time></trkpt><trkpt lat="46.0050541" lon="11.7423305"><ele>796.0</ele><time>2026-04-06T14:36:36.615Z</time></trkpt><trkpt lat="46.0050603" lon="11.742221"><ele>797.0</ele><time>2026-04-06T14:36:37.615Z</time></trkpt><trkpt lat="46.0050616" lon="11.7420982"><ele>798.0</ele><time>2026-04-06T14:36:38.615Z</time></trkpt><trkpt lat="46.0050476" lon="11.741975"><ele>798.0</ele><time>2026-04-06T14:36:39.615Z</time></trkpt><trkpt lat="46.0050337" lon="11.7418829"><ele>798.0</ele><time>2026-04-06T14:36:40.615Z</time></trkpt><trkpt lat="46.0050431" lon="11.7417457"><ele>798.0</ele><time>2026-04-06T14:36:42.616Z</time></trkpt><trkpt lat="46.005115" lon="11.7416125"><ele>798.0</ele><time>2026-04-06T14:36:44.615Z</time></trkpt><trkpt lat="46.0051787" lon="11.7414287"><ele>798.0</ele><time>2026-04-06T14:36:46.615Z</time></trkpt><trkpt lat="46.00521" lon="11.7412767"><ele>803.0</ele><time>2026-04-06T14:36:47.615Z</time></trkpt><trkpt lat="46.005247" lon="11.7411239"><ele>808.0</ele><time>2026-04-06T14:36:48.615Z</time></trkpt><trkpt lat="46.005304" lon="11.7409952"><ele>813.0</ele><time>2026-04-06T14:36:49.615Z</time></trkpt><trkpt lat="46.00537" lon="11.7408913"><ele>818.0</ele><time>2026-04-06T14:36:50.615Z</time></trkpt><trkpt lat="46.0054278" lon="11.7407774"><ele>823.0</ele><time>2026-04-06T14:36:51.615Z</time></trkpt><trkpt lat="46.0054682" lon="11.7406712"><ele>827.1666666666666</ele><time>2026-04-06T14:36:52.615Z</time></trkpt><trkpt lat="46.0055199" lon="11.7405833"><ele>831.3333333333333</ele><time>2026-04-06T14:36:53.615Z</time></trkpt><trkpt lat="46.005594" lon="11.7405108"><ele>835.5</ele><time>2026-04-06T14:36:54.615Z</time></trkpt><trkpt lat="46.0056711" lon="11.7404531"><ele>839.6666666666667</ele><time>2026-04-06T14:36:55.616Z</time></trkpt><trkpt lat="46.0057432" lon="11.7403659"><ele>843.8333333333334</ele><time>2026-04-06T14:36:56.617Z</time></trkpt><trkpt lat="46.0058079" lon="11.7403021"><ele>848.0</ele><time>2026-04-06T14:36:57.615Z</time></trkpt><trkpt lat="46.0058782" lon="11.7402134"><ele>848.6666666666667</ele><time>2026-04-06T14:36:58.616Z</time></trkpt><trkpt lat="46.005937" lon="11.7401638"><ele>849.3333333333334</ele><time>2026-04-06T14:36:59.615Z</time></trkpt><trkpt lat="46.0060002" lon="11.7401147"><ele>850.0</ele><time>2026-04-06T14:37:01.615Z</time></trkpt><trkpt lat="46.0060342" lon="11.7400014"><ele>850.6666666666667</ele><time>2026-04-06T14:37:04.616Z</time></trkpt><trkpt lat="46.0060604" lon="11.7398487"><ele>851.3333333333334</ele><time>2026-04-06T14:37:06.615Z</time></trkpt><trkpt lat="46.0060897" lon="11.739748"><ele>852.0</ele><time>2026-04-06T14:37:07.616Z</time></trkpt><trkpt lat="46.0061277" lon="11.7396502"><ele>852.0</ele><time>2026-04-06T14:37:08.617Z</time></trkpt><trkpt lat="46.0061687" lon="11.739548"><ele>852.0</ele><time>2026-04-06T14:37:09.616Z</time></trkpt><trkpt lat="46.0062047" lon="11.7394426"><ele>852.0</ele><time>2026-04-06T14:37:10.616Z</time></trkpt><trkpt lat="46.006243" lon="11.7393197"><ele>852.0</ele><time>2026-04-06T14:37:11.616Z</time></trkpt><trkpt lat="46.0062982" lon="11.7391878"><ele>852.0</ele><time>2026-04-06T14:37:12.616Z</time></trkpt><trkpt lat="46.0063634" lon="11.739064"><ele>858.0</ele><time>2026-04-06T14:37:13.616Z</time></trkpt><trkpt lat="46.0064281" lon="11.7389273"><ele>864.0</ele><time>2026-04-06T14:37:14.616Z</time></trkpt><trkpt lat="46.0064971" lon="11.7387895"><ele>870.0</ele><time>2026-04-06T14:37:15.615Z</time></trkpt><trkpt lat="46.0065718" lon="11.7386798"><ele>876.0</ele><time>2026-04-06T14:37:16.616Z</time></trkpt><trkpt lat="46.0066344" lon="11.7385823"><ele>882.0</ele><time>2026-04-06T14:37:17.615Z</time></trkpt><trkpt lat="46.0066921" lon="11.7384629"><ele>882.0</ele><time>2026-04-06T14:37:18.616Z</time></trkpt><trkpt lat="46.0067423" lon="11.7383413"><ele>882.0</ele><time>2026-04-06T14:37:19.616Z</time></trkpt><trkpt lat="46.0067962" lon="11.7382266"><ele>882.0</ele><time>2026-04-06T14:37:20.616Z</time></trkpt><trkpt lat="46.006852" lon="11.7381008"><ele>882.0</ele><time>2026-04-06T14:37:21.616Z</time></trkpt><trkpt lat="46.0069057" lon="11.7379656"><ele>882.0</ele><time>2026-04-06T14:37:22.616Z</time></trkpt><trkpt lat="46.0069643" lon="11.7378385"><ele>882.0</ele><time>2026-04-06T14:37:23.616Z</time></trkpt><trkpt lat="46.0070235" lon="11.7377286"><ele>882.0</ele><time>2026-04-06T14:37:24.616Z</time></trkpt><trkpt lat="46.0070867" lon="11.7376105"><ele>882.0</ele><time>2026-04-06T14:37:25.616Z</time></trkpt><trkpt lat="46.0071351" lon="11.7374969"><ele>882.0</ele><time>2026-04-06T14:37:26.616Z</time></trkpt><trkpt lat="46.0071701" lon="11.7373804"><ele>882.0</ele><time>2026-04-06T14:37:27.616Z</time></trkpt><trkpt lat="46.0072105" lon="11.737249"><ele>888.2</ele><time>2026-04-06T14:37:28.616Z</time></trkpt><trkpt lat="46.0072522" lon="11.7371184"><ele>894.4000000000001</ele><time>2026-04-06T14:37:29.617Z</time></trkpt><trkpt lat="46.0073008" lon="11.7369854"><ele>900.5999999999999</ele><time>2026-04-06T14:37:30.616Z</time></trkpt><trkpt lat="46.0073579" lon="11.7368568"><ele>906.8</ele><time>2026-04-06T14:37:31.616Z</time></trkpt><trkpt lat="46.0074185" lon="11.7367464"><ele>913.0</ele><time>2026-04-06T14:37:32.616Z</time></trkpt><trkpt lat="46.0074827" lon="11.7366413"><ele>911.0</ele><time>2026-04-06T14:37:33.616Z</time></trkpt><trkpt lat="46.0075503" lon="11.736531"><ele>909.0</ele><time>2026-04-06T14:37:34.616Z</time></trkpt><trkpt lat="46.0076101" lon="11.7364234"><ele>907.0</ele><time>2026-04-06T14:37:35.616Z</time></trkpt><trkpt lat="46.0076589" lon="11.736308"><ele>905.0</ele><time>2026-04-06T14:37:36.616Z</time></trkpt><trkpt lat="46.0077067" lon="11.7361957"><ele>903.0</ele><time>2026-04-06T14:37:37.616Z</time></trkpt><trkpt lat="46.0077534" lon="11.7360843"><ele>907.2</ele><time>2026-04-06T14:37:38.616Z</time></trkpt><trkpt lat="46.0077912" lon="11.7359566"><ele>911.4</ele><time>2026-04-06T14:37:39.616Z</time></trkpt><trkpt lat="46.0078237" lon="11.7358235"><ele>915.6000000000001</ele><time>2026-04-06T14:37:40.617Z</time></trkpt><trkpt lat="46.0078471" lon="11.7356848"><ele>919.8000000000001</ele><time>2026-04-06T14:37:41.617Z</time></trkpt><trkpt lat="46.007862" lon="11.7355661"><ele>924.0</ele><time>2026-04-06T14:37:42.616Z</time></trkpt><trkpt lat="46.0078853" lon="11.7354491"><ele>924.0</ele><time>2026-04-06T14:37:44.616Z</time></trkpt><trkpt lat="46.0078285" lon="11.7353797"><ele>924.0000000000001</ele><time>2026-04-06T14:37:48.617Z</time></trkpt><trkpt lat="46.0077187" lon="11.7354483"><ele>924.0000000000001</ele><time>2026-04-06T14:37:50.616Z</time></trkpt><trkpt lat="46.0076827" lon="11.7355431"><ele>924.0</ele><time>2026-04-06T14:37:52.617Z</time></trkpt><trkpt lat="46.0077701" lon="11.7355159"><ele>924.0</ele><time>2026-04-06T14:37:55.616Z</time></trkpt><trkpt lat="46.0078206" lon="11.7353953"><ele>924.0</ele><time>2026-04-06T14:37:57.617Z</time></trkpt><trkpt lat="46.0078294" lon="11.7352904"><ele>924.0000000000001</ele><time>2026-04-06T14:37:59.616Z</time></trkpt><trkpt lat="46.0078387" lon="11.7351756"><ele>924.0000000000001</ele><time>2026-04-06T14:38:01.616Z</time></trkpt><trkpt lat="46.0078711" lon="11.7350291"><ele>924.0</ele><time>2026-04-06T14:38:03.616Z</time></trkpt><trkpt lat="46.007919" lon="11.7348853"><ele>924.0</ele><time>2026-04-06T14:38:05.618Z</time></trkpt><trkpt lat="46.0079427" lon="11.7347475"><ele>928.8000000000001</ele><time>2026-04-06T14:38:07.616Z</time></trkpt><trkpt lat="46.0079899" lon="11.7345914"><ele>933.6000000000001</ele><time>2026-04-06T14:38:09.617Z</time></trkpt><trkpt lat="46.0080359" lon="11.7344422"><ele>938.4</ele><time>2026-04-06T14:38:11.616Z</time></trkpt><trkpt lat="46.0080453" lon="11.7342998"><ele>943.2</ele><time>2026-04-06T14:38:13.616Z</time></trkpt><trkpt lat="46.0080384" lon="11.7341697"><ele>948.0</ele><time>2026-04-06T14:38:15.618Z</time></trkpt><trkpt lat="46.0080217" lon="11.7340592"><ele>950.5999999999999</ele><time>2026-04-06T14:38:17.616Z</time></trkpt><trkpt lat="46.0080058" lon="11.7339068"><ele>953.1999999999999</ele><time>2026-04-06T14:38:19.616Z</time></trkpt><trkpt lat="46.0079914" lon="11.7337607"><ele>955.8</ele><time>2026-04-06T14:38:21.616Z</time></trkpt><trkpt lat="46.0079831" lon="11.7335929"><ele>958.4</ele><time>2026-04-06T14:38:23.616Z</time></trkpt><trkpt lat="46.0079669" lon="11.7334431"><ele>961.0</ele><time>2026-04-06T14:38:25.617Z</time></trkpt><trkpt lat="46.0079874" lon="11.7332874"><ele>963.8</ele><time>2026-04-06T14:38:27.617Z</time></trkpt><trkpt lat="46.0080273" lon="11.7331608"><ele>966.5999999999999</ele><time>2026-04-06T14:38:29.616Z</time></trkpt><trkpt lat="46.0080505" lon="11.7330513"><ele>969.4</ele><time>2026-04-06T14:38:31.617Z</time></trkpt><trkpt lat="46.0080524" lon="11.7329387"><ele>972.2</ele><time>2026-04-06T14:38:33.618Z</time></trkpt><trkpt lat="46.0080468" lon="11.7327828"><ele>975.0</ele><time>2026-04-06T14:38:35.617Z</time></trkpt><trkpt lat="46.008035" lon="11.7326381"><ele>978.5</ele><time>2026-04-06T14:38:37.618Z</time></trkpt><trkpt lat="46.0080493" lon="11.7325"><ele>982.0</ele><time>2026-04-06T14:38:39.617Z</time></trkpt><trkpt lat="46.0079666" lon="11.7324619"><ele>985.5</ele><time>2026-04-06T14:38:44.617Z</time></trkpt><trkpt lat="46.0078873" lon="11.7325245"><ele>989.0</ele><time>2026-04-06T14:38:46.617Z</time></trkpt><trkpt lat="46.0078201" lon="11.7325635"><ele>992.5</ele><time>2026-04-06T14:38:47.617Z</time></trkpt><trkpt lat="46.0077506" lon="11.73261"><ele>996.0</ele><time>2026-04-06T14:38:48.617Z</time></trkpt><trkpt lat="46.0076449" lon="11.7326894"><ele>996.0</ele><time>2026-04-06T14:38:50.617Z</time></trkpt><trkpt lat="46.0075428" lon="11.7327158"><ele>996.0</ele><time>2026-04-06T14:38:52.617Z</time></trkpt><trkpt lat="46.0074525" lon="11.7326639"><ele>996.0</ele><time>2026-04-06T14:38:54.617Z</time></trkpt><trkpt lat="46.0073801" lon="11.7326543"><ele>996.0</ele><time>2026-04-06T14:38:55.617Z</time></trkpt><trkpt lat="46.0072943" lon="11.7326253"><ele>996.0</ele><time>2026-04-06T14:38:57.617Z</time></trkpt><trkpt lat="46.0072341" lon="11.7325971"><ele>996.0</ele><time>2026-04-06T14:38:59.617Z</time></trkpt><trkpt lat="46.0071318" lon="11.732618"><ele>998.8333333333334</ele><time>2026-04-06T14:39:01.618Z</time></trkpt><trkpt lat="46.0070576" lon="11.7326757"><ele>1001.6666666666667</ele><time>2026-04-06T14:39:03.617Z</time></trkpt><trkpt lat="46.0070059" lon="11.7327787"><ele>1004.5</ele><time>2026-04-06T14:39:05.617Z</time></trkpt><trkpt lat="46.0069388" lon="11.7329049"><ele>1007.3333333333334</ele><time>2026-04-06T14:39:07.617Z</time></trkpt><trkpt lat="46.0068732" lon="11.7329561"><ele>1010.1666666666667</ele><time>2026-04-06T14:39:09.618Z</time></trkpt><trkpt lat="46.0068005" lon="11.7330181"><ele>1013.0</ele><time>2026-04-06T14:39:11.617Z</time></trkpt><trkpt lat="46.0067209" lon="11.7330851"><ele>1021.0</ele><time>2026-04-06T14:39:13.617Z</time></trkpt><trkpt lat="46.0066493" lon="11.7331687"><ele>1029.0</ele><time>2026-04-06T14:39:15.618Z</time></trkpt><trkpt lat="46.0065542" lon="11.7332094"><ele>1037.0</ele><time>2026-04-06T14:39:17.617Z</time></trkpt><trkpt lat="46.0064676" lon="11.7332815"><ele>1045.0</ele><time>2026-04-06T14:39:19.617Z</time></trkpt><trkpt lat="46.0063859" lon="11.7333483"><ele>1053.0</ele><time>2026-04-06T14:39:21.618Z</time></trkpt><trkpt lat="46.0062813" lon="11.7334254"><ele>1053.0</ele><time>2026-04-06T14:39:23.618Z</time></trkpt><trkpt lat="46.0061748" lon="11.7334889"><ele>1053.0</ele><time>2026-04-06T14:39:25.617Z</time></trkpt><trkpt lat="46.0061008" lon="11.7336031"><ele>1053.0</ele><time>2026-04-06T14:39:27.617Z</time></trkpt><trkpt lat="46.0060361" lon="11.7337464"><ele>1053.0</ele><time>2026-04-06T14:39:29.617Z</time></trkpt><trkpt lat="46.0059482" lon="11.733882"><ele>1049.8</ele><time>2026-04-06T14:39:31.618Z</time></trkpt><trkpt lat="46.0059047" lon="11.7339504"><ele>1046.6</ele><time>2026-04-06T14:39:32.618Z</time></trkpt><trkpt lat="46.0058663" lon="11.7340232"><ele>1043.4</ele><time>2026-04-06T14:39:33.618Z</time></trkpt><trkpt lat="46.005797" lon="11.7341171"><ele>1040.2</ele><time>2026-04-06T14:39:35.617Z</time></trkpt><trkpt lat="46.0056822" lon="11.7341933"><ele>1037.0</ele><time>2026-04-06T14:39:37.619Z</time></trkpt><trkpt lat="46.0055828" lon="11.734257"><ele>1040.8</ele><time>2026-04-06T14:39:39.618Z</time></trkpt><trkpt lat="46.0054663" lon="11.7343257"><ele>1044.6</ele><time>2026-04-06T14:39:41.618Z</time></trkpt><trkpt lat="46.0053596" lon="11.7344015"><ele>1048.3999999999999</ele><time>2026-04-06T14:39:43.618Z</time></trkpt><trkpt lat="46.005258" lon="11.734448"><ele>1052.2</ele><time>2026-04-06T14:39:45.618Z</time></trkpt><trkpt lat="46.0051721" lon="11.7344982"><ele>1056.0</ele><time>2026-04-06T14:39:48.618Z</time></trkpt><trkpt lat="46.005115" lon="11.7346572"><ele>1056.0</ele><time>2026-04-06T14:39:51.618Z</time></trkpt><trkpt lat="46.0050775" lon="11.7347755"><ele>1056.0</ele><time>2026-04-06T14:39:53.618Z</time></trkpt><trkpt lat="46.0050496" lon="11.7348977"><ele>1056.0</ele><time>2026-04-06T14:39:55.618Z</time></trkpt><trkpt lat="46.0050287" lon="11.7350202"><ele>1056.0</ele><time>2026-04-06T14:39:57.619Z</time></trkpt><trkpt lat="46.0049748" lon="11.73515"><ele>1056.0</ele><time>2026-04-06T14:39:59.618Z</time></trkpt><trkpt lat="46.004928" lon="11.7352651"><ele>1061.3999999999999</ele><time>2026-04-06T14:40:01.618Z</time></trkpt><trkpt lat="46.0048531" lon="11.7353591"><ele>1066.8</ele><time>2026-04-06T14:40:03.618Z</time></trkpt><trkpt lat="46.0047604" lon="11.7354297"><ele>1072.1999999999998</ele><time>2026-04-06T14:40:05.619Z</time></trkpt><trkpt lat="46.0046491" lon="11.7355098"><ele>1077.6</ele><time>2026-04-06T14:40:07.618Z</time></trkpt><trkpt lat="46.0045843" lon="11.7355479"><ele>1083.0</ele><time>2026-04-06T14:40:08.618Z</time></trkpt><trkpt lat="46.0045068" lon="11.7356507"><ele>1083.0</ele><time>2026-04-06T14:40:10.618Z</time></trkpt><trkpt lat="46.0044441" lon="11.7357712"><ele>1083.0</ele><time>2026-04-06T14:40:12.619Z</time></trkpt><trkpt lat="46.0044037" lon="11.7358428"><ele>1083.0</ele><time>2026-04-06T14:40:13.618Z</time></trkpt><trkpt lat="46.0043501" lon="11.7359105"><ele>1083.0</ele><time>2026-04-06T14:40:14.618Z</time></trkpt><trkpt lat="46.0043031" lon="11.7359784"><ele>1083.0</ele><time>2026-04-06T14:40:15.619Z</time></trkpt><trkpt lat="46.0042564" lon="11.736051"><ele>1083.0</ele><time>2026-04-06T14:40:16.618Z</time></trkpt><trkpt lat="46.0041883" lon="11.7361702"><ele>1082.8</ele><time>2026-04-06T14:40:18.619Z</time></trkpt><trkpt lat="46.0040883" lon="11.7362863"><ele>1082.6</ele><time>2026-04-06T14:40:20.62Z</time></trkpt><trkpt lat="46.0040075" lon="11.7363581"><ele>1082.4</ele><time>2026-04-06T14:40:22.618Z</time></trkpt><trkpt lat="46.0039306" lon="11.7363504"><ele>1082.2</ele><time>2026-04-06T14:40:24.619Z</time></trkpt><trkpt lat="46.003809" lon="11.736306"><ele>1082.0</ele><time>2026-04-06T14:40:26.619Z</time></trkpt><trkpt lat="46.0037343" lon="11.7362784"><ele>1082.0</ele><time>2026-04-06T14:40:27.619Z</time></trkpt><trkpt lat="46.0036629" lon="11.7362409"><ele>1082.0</ele><time>2026-04-06T14:40:28.619Z</time></trkpt><trkpt lat="46.0035405" lon="11.7361543"><ele>1082.0</ele><time>2026-04-06T14:40:30.619Z</time></trkpt><trkpt lat="46.0034227" lon="11.7360758"><ele>1082.0</ele><time>2026-04-06T14:40:32.62Z</time></trkpt><trkpt lat="46.0032962" lon="11.7360228"><ele>1084.2</ele><time>2026-04-06T14:40:34.619Z</time></trkpt><trkpt lat="46.0031979" lon="11.7359468"><ele>1086.4</ele><time>2026-04-06T14:40:36.619Z</time></trkpt><trkpt lat="46.0030996" lon="11.7358566"><ele>1088.6</ele><time>2026-04-06T14:40:38.62Z</time></trkpt><trkpt lat="46.0030354" lon="11.7358229"><ele>1090.8</ele><time>2026-04-06T14:40:39.619Z</time></trkpt><trkpt lat="46.0029498" lon="11.7357688"><ele>1093.0</ele><time>2026-04-06T14:40:41.619Z</time></trkpt><trkpt lat="46.0029006" lon="11.7356572"><ele>1093.0</ele><time>2026-04-06T14:40:43.619Z</time></trkpt><trkpt lat="46.0028643" lon="11.7355826"><ele>1093.0</ele><time>2026-04-06T14:40:44.619Z</time></trkpt><trkpt lat="46.0028038" lon="11.7354849"><ele>1093.0</ele><time>2026-04-06T14:40:57.619Z</time></trkpt><trkpt lat="46.0027322" lon="11.7353896"><ele>1093.0</ele><time>2026-04-06T14:40:59.619Z</time></trkpt><trkpt lat="46.0026784" lon="11.7353249"><ele>1093.0</ele><time>2026-04-06T14:41:00.619Z</time></trkpt><trkpt lat="46.0025936" lon="11.7352094"><ele>1093.0</ele><time>2026-04-06T14:41:02.619Z</time></trkpt><trkpt lat="46.0025421" lon="11.7351032"><ele>1094.1666666666665</ele><time>2026-04-06T14:41:04.619Z</time></trkpt><trkpt lat="46.0025709" lon="11.7349892"><ele>1095.3333333333333</ele><time>2026-04-06T14:41:08.619Z</time></trkpt><trkpt lat="46.0026517" lon="11.7349445"><ele>1096.5</ele><time>2026-04-06T14:41:10.619Z</time></trkpt><trkpt lat="46.0027204" lon="11.7349293"><ele>1097.6666666666667</ele><time>2026-04-06T14:41:13.619Z</time></trkpt><trkpt lat="46.0027824" lon="11.7349867"><ele>1098.8333333333335</ele><time>2026-04-06T14:41:15.62Z</time></trkpt><trkpt lat="46.002844" lon="11.7349474"><ele>1100.0</ele><time>2026-04-06T14:41:19.62Z</time></trkpt><trkpt lat="46.0028736" lon="11.7347835"><ele>1100.0</ele><time>2026-04-06T14:41:21.619Z</time></trkpt><trkpt lat="46.0028891" lon="11.7346866"><ele>1100.0</ele><time>2026-04-06T14:41:22.619Z</time></trkpt><trkpt lat="46.0029033" lon="11.7345899"><ele>1100.0</ele><time>2026-04-06T14:41:23.619Z</time></trkpt><trkpt lat="46.0029221" lon="11.7344879"><ele>1100.0</ele><time>2026-04-06T14:41:24.619Z</time></trkpt><trkpt lat="46.0029486" lon="11.7343743"><ele>1100.0</ele><time>2026-04-06T14:41:25.619Z</time></trkpt><trkpt lat="46.0029662" lon="11.7342739"><ele>1100.0</ele><time>2026-04-06T14:41:26.62Z</time></trkpt><trkpt lat="46.0029838" lon="11.7341811"><ele>1100.0</ele><time>2026-04-06T14:41:27.619Z</time></trkpt><trkpt lat="46.0029924" lon="11.7340819"><ele>1101.2857142857142</ele><time>2026-04-06T14:41:28.619Z</time></trkpt><trkpt lat="46.0030082" lon="11.7339863"><ele>1102.5714285714284</ele><time>2026-04-06T14:41:29.619Z</time></trkpt><trkpt lat="46.0030187" lon="11.7338958"><ele>1103.8571428571427</ele><time>2026-04-06T14:41:30.62Z</time></trkpt><trkpt lat="46.0030336" lon="11.7338047"><ele>1105.142857142857</ele><time>2026-04-06T14:41:31.619Z</time></trkpt><trkpt lat="46.0030491" lon="11.7337114"><ele>1106.4285714285713</ele><time>2026-04-06T14:41:32.62Z</time></trkpt><trkpt lat="46.0030641" lon="11.7336096"><ele>1107.7142857142856</ele><time>2026-04-06T14:41:33.62Z</time></trkpt><trkpt lat="46.0030714" lon="11.7335142"><ele>1109.0</ele><time>2026-04-06T14:41:34.62Z</time></trkpt><trkpt lat="46.0030813" lon="11.7334065"><ele>1110.6666666666667</ele><time>2026-04-06T14:41:35.62Z</time></trkpt><trkpt lat="46.0030986" lon="11.7332904"><ele>1112.3333333333335</ele><time>2026-04-06T14:41:36.62Z</time></trkpt><trkpt lat="46.0031235" lon="11.7331748"><ele>1114.0</ele><time>2026-04-06T14:41:37.62Z</time></trkpt><trkpt lat="46.0031527" lon="11.7330703"><ele>1115.6666666666667</ele><time>2026-04-06T14:41:38.62Z</time></trkpt><trkpt lat="46.0031908" lon="11.7329699"><ele>1117.3333333333333</ele><time>2026-04-06T14:41:39.619Z</time></trkpt><trkpt lat="46.0032339" lon="11.7328873"><ele>1119.0</ele><time>2026-04-06T14:41:40.62Z</time></trkpt><trkpt lat="46.0032885" lon="11.7328153"><ele>1120.3333333333333</ele><time>2026-04-06T14:41:41.619Z</time></trkpt><trkpt lat="46.0033507" lon="11.7327409"><ele>1121.6666666666667</ele><time>2026-04-06T14:41:42.62Z</time></trkpt><trkpt lat="46.0034129" lon="11.7326662"><ele>1123.0</ele><time>2026-04-06T14:41:43.619Z</time></trkpt><trkpt lat="46.0034687" lon="11.7325895"><ele>1124.3333333333335</ele><time>2026-04-06T14:41:44.62Z</time></trkpt><trkpt lat="46.0035204" lon="11.7325057"><ele>1125.6666666666667</ele><time>2026-04-06T14:41:45.62Z</time></trkpt><trkpt lat="46.0035667" lon="11.7324068"><ele>1127.0</ele><time>2026-04-06T14:41:46.62Z</time></trkpt><trkpt lat="46.00361" lon="11.7322881"><ele>1129.6</ele><time>2026-04-06T14:41:47.62Z</time></trkpt><trkpt lat="46.0036435" lon="11.7321803"><ele>1132.2</ele><time>2026-04-06T14:41:48.621Z</time></trkpt><trkpt lat="46.0036616" lon="11.7320618"><ele>1134.8</ele><time>2026-04-06T14:41:51.621Z</time></trkpt><trkpt lat="46.003709" lon="11.7319417"><ele>1137.4</ele><time>2026-04-06T14:41:53.62Z</time></trkpt><trkpt lat="46.0038136" lon="11.7318486"><ele>1140.0</ele><time>2026-04-06T14:41:55.62Z</time></trkpt><trkpt lat="46.0038887" lon="11.7317876"><ele>1143.2</ele><time>2026-04-06T14:41:56.621Z</time></trkpt><trkpt lat="46.0039745" lon="11.7316795"><ele>1146.4</ele><time>2026-04-06T14:41:57.62Z</time></trkpt><trkpt lat="46.0040641" lon="11.7315523"><ele>1149.6</ele><time>2026-04-06T14:41:58.621Z</time></trkpt><trkpt lat="46.0041276" lon="11.7314347"><ele>1152.8</ele><time>2026-04-06T14:41:59.62Z</time></trkpt><trkpt lat="46.0041748" lon="11.7313286"><ele>1156.0</ele><time>2026-04-06T14:42:01.62Z</time></trkpt><trkpt lat="46.0041078" lon="11.7312713"><ele>1156.5</ele><time>2026-04-06T14:42:03.621Z</time></trkpt><trkpt lat="46.0039807" lon="11.7313739"><ele>1157.0</ele><time>2026-04-06T14:42:05.62Z</time></trkpt><trkpt lat="46.0039269" lon="11.7314414"><ele>1157.5</ele><time>2026-04-06T14:42:06.62Z</time></trkpt><trkpt lat="46.003868" lon="11.731509"><ele>1158.0</ele><time>2026-04-06T14:42:08.62Z</time></trkpt><trkpt lat="46.0037923" lon="11.7315316"><ele>1158.5</ele><time>2026-04-06T14:42:10.62Z</time></trkpt><trkpt lat="46.0037289" lon="11.7315238"><ele>1159.0</ele><time>2026-04-06T14:42:11.62Z</time></trkpt><trkpt lat="46.0036655" lon="11.731523"><ele>1159.0</ele><time>2026-04-06T14:42:12.62Z</time></trkpt><trkpt lat="46.0037456" lon="11.7315049"><ele>1159.0</ele><time>2026-04-06T14:42:24.62Z</time></trkpt><trkpt lat="46.003778" lon="11.7313789"><ele>1159.0</ele><time>2026-04-06T14:42:27.621Z</time></trkpt><trkpt lat="46.0038131" lon="11.7312524"><ele>1159.0</ele><time>2026-04-06T14:42:29.62Z</time></trkpt><trkpt lat="46.0038359" lon="11.7311562"><ele>1159.0</ele><time>2026-04-06T14:42:30.62Z</time></trkpt><trkpt lat="46.0038624" lon="11.7310257"><ele>1159.0</ele><time>2026-04-06T14:42:32.62Z</time></trkpt><trkpt lat="46.0038458" lon="11.730933"><ele>1162.5</ele><time>2026-04-06T14:42:35.621Z</time></trkpt><trkpt lat="46.0037514" lon="11.7309261"><ele>1166.0</ele><time>2026-04-06T14:42:38.62Z</time></trkpt><trkpt lat="46.0036554" lon="11.7309177"><ele>1169.5</ele><time>2026-04-06T14:42:40.62Z</time></trkpt><trkpt lat="46.0035904" lon="11.7308938"><ele>1173.0</ele><time>2026-04-06T14:42:42.621Z</time></trkpt><trkpt lat="46.0035952" lon="11.7308014"><ele>1176.5</ele><time>2026-04-06T14:42:45.62Z</time></trkpt><trkpt lat="46.003656" lon="11.7307155"><ele>1180.0</ele><time>2026-04-06T14:42:47.621Z</time></trkpt><trkpt lat="46.0037097" lon="11.7306089"><ele>1180.0</ele><time>2026-04-06T14:42:49.622Z</time></trkpt><trkpt lat="46.0037378" lon="11.7304866"><ele>1180.0</ele><time>2026-04-06T14:42:51.62Z</time></trkpt><trkpt lat="46.0037592" lon="11.730355"><ele>1180.0</ele><time>2026-04-06T14:42:53.621Z</time></trkpt><trkpt lat="46.0037853" lon="11.7302085"><ele>1180.0</ele><time>2026-04-06T14:42:55.621Z</time></trkpt><trkpt lat="46.0037998" lon="11.7301116"><ele>1180.0</ele><time>2026-04-06T14:42:56.621Z</time></trkpt><trkpt lat="46.0038199" lon="11.7300058"><ele>1180.0</ele><time>2026-04-06T14:42:57.621Z</time></trkpt><trkpt lat="46.0038378" lon="11.7299171"><ele>1181.0</ele><time>2026-04-06T14:42:58.621Z</time></trkpt><trkpt lat="46.0038636" lon="11.7297928"><ele>1182.0</ele><time>2026-04-06T14:43:00.621Z</time></trkpt><trkpt lat="46.0038092" lon="11.7297124"><ele>1183.0</ele><time>2026-04-06T14:43:03.622Z</time></trkpt><trkpt lat="46.0037146" lon="11.729801"><ele>1184.0</ele><time>2026-04-06T14:43:05.621Z</time></trkpt><trkpt lat="46.0036507" lon="11.7298579"><ele>1185.0</ele><time>2026-04-06T14:43:06.622Z</time></trkpt><trkpt lat="46.0035755" lon="11.7299085"><ele>1186.0</ele><time>2026-04-06T14:43:07.621Z</time></trkpt><trkpt lat="46.0034965" lon="11.7298419"><ele>1185.9999999999998</ele><time>2026-04-06T14:43:10.622Z</time></trkpt><trkpt lat="46.0034394" lon="11.7298024"><ele>1186.0</ele><time>2026-04-06T14:43:14.621Z</time></trkpt><trkpt lat="46.0033652" lon="11.7298288"><ele>1186.0</ele><time>2026-04-06T14:43:17.621Z</time></trkpt><trkpt lat="46.0032996" lon="11.7298418"><ele>1186.0</ele><time>2026-04-06T14:43:19.621Z</time></trkpt><trkpt lat="46.0032362" lon="11.7297789"><ele>1186.0</ele><time>2026-04-06T14:43:22.622Z</time></trkpt><trkpt lat="46.0032146" lon="11.729675"><ele>1185.9999999999998</ele><time>2026-04-06T14:43:24.622Z</time></trkpt><trkpt lat="46.0031941" lon="11.7295761"><ele>1186.0</ele><time>2026-04-06T14:43:26.621Z</time></trkpt><trkpt lat="46.0031771" lon="11.7294836"><ele>1186.0</ele><time>2026-04-06T14:43:28.621Z</time></trkpt><trkpt lat="46.0032263" lon="11.7294044"><ele>1186.0</ele><time>2026-04-06T14:43:32.621Z</time></trkpt><trkpt lat="46.0031876" lon="11.7294788"><ele>1186.0</ele><time>2026-04-06T14:43:38.621Z</time></trkpt><trkpt lat="46.0031891" lon="11.7296136"><ele>1186.0</ele><time>2026-04-06T14:43:42.622Z</time></trkpt><trkpt lat="46.0032186" lon="11.7297366"><ele>1186.0</ele><time>2026-04-06T14:43:44.622Z</time></trkpt><trkpt lat="46.0032678" lon="11.7298639"><ele>1186.0</ele><time>2026-04-06T14:43:46.621Z</time></trkpt><trkpt lat="46.0033538" lon="11.7299074"><ele>1186.0</ele><time>2026-04-06T14:43:49.622Z</time></trkpt><trkpt lat="46.0034395" lon="11.7298689"><ele>1186.0</ele><time>2026-04-06T14:43:53.621Z</time></trkpt><trkpt lat="46.0035177" lon="11.7298106"><ele>1186.0</ele><time>2026-04-06T14:43:56.622Z</time></trkpt><trkpt lat="46.0035537" lon="11.7297312"><ele>1186.0</ele><time>2026-04-06T14:43:58.623Z</time></trkpt><trkpt lat="46.0035562" lon="11.7296224"><ele>1186.0</ele><time>2026-04-06T14:44:00.622Z</time></trkpt><trkpt lat="46.003546" lon="11.7294719"><ele>1186.0</ele><time>2026-04-06T14:44:02.622Z</time></trkpt><trkpt lat="46.0035437" lon="11.729321"><ele>1187.2</ele><time>2026-04-06T14:44:04.622Z</time></trkpt><trkpt lat="46.0035506" lon="11.7291502"><ele>1188.3999999999999</ele><time>2026-04-06T14:44:06.623Z</time></trkpt><trkpt lat="46.0035591" lon="11.7290433"><ele>1189.6</ele><time>2026-04-06T14:44:07.622Z</time></trkpt><trkpt lat="46.0035763" lon="11.7289405"><ele>1190.8</ele><time>2026-04-06T14:44:08.622Z</time></trkpt><trkpt lat="46.003599" lon="11.7288477"><ele>1192.0</ele><time>2026-04-06T14:44:09.622Z</time></trkpt><trkpt lat="46.003647" lon="11.7286887"><ele>1193.2</ele><time>2026-04-06T14:44:11.622Z</time></trkpt><trkpt lat="46.0036914" lon="11.7285183"><ele>1194.4</ele><time>2026-04-06T14:44:13.623Z</time></trkpt><trkpt lat="46.0037128" lon="11.7284247"><ele>1195.6</ele><time>2026-04-06T14:44:14.623Z</time></trkpt><trkpt lat="46.0037343" lon="11.7283262"><ele>1196.8</ele><time>2026-04-06T14:44:15.622Z</time></trkpt><trkpt lat="46.0037523" lon="11.7282346"><ele>1198.0</ele><time>2026-04-06T14:44:16.623Z</time></trkpt><trkpt lat="46.0037845" lon="11.7280717"><ele>1198.0</ele><time>2026-04-06T14:44:18.622Z</time></trkpt><trkpt lat="46.0038095" lon="11.7279117"><ele>1198.0</ele><time>2026-04-06T14:44:20.623Z</time></trkpt><trkpt lat="46.0038234" lon="11.7277799"><ele>1198.0</ele><time>2026-04-06T14:44:22.623Z</time></trkpt><trkpt lat="46.0038338" lon="11.7276715"><ele>1198.0</ele><time>2026-04-06T14:44:24.622Z</time></trkpt><trkpt lat="46.003865" lon="11.7275629"><ele>1198.0</ele><time>2026-04-06T14:44:26.622Z</time></trkpt><trkpt lat="46.0039139" lon="11.7274674"><ele>1198.0</ele><time>2026-04-06T14:44:28.622Z</time></trkpt><trkpt lat="46.0039683" lon="11.7273612"><ele>1199.8</ele><time>2026-04-06T14:44:30.622Z</time></trkpt><trkpt lat="46.0040144" lon="11.7272459"><ele>1201.6</ele><time>2026-04-06T14:44:32.622Z</time></trkpt><trkpt lat="46.0040554" lon="11.7271204"><ele>1203.4</ele><time>2026-04-06T14:44:34.623Z</time></trkpt><trkpt lat="46.0040905" lon="11.7269989"><ele>1205.2</ele><time>2026-04-06T14:44:36.623Z</time></trkpt><trkpt lat="46.0041231" lon="11.7268676"><ele>1207.0</ele><time>2026-04-06T14:44:38.624Z</time></trkpt><trkpt lat="46.0041538" lon="11.7267246"><ele>1212.4</ele><time>2026-04-06T14:44:40.622Z</time></trkpt><trkpt lat="46.0041858" lon="11.7265568"><ele>1217.8000000000002</ele><time>2026-04-06T14:44:42.622Z</time></trkpt><trkpt lat="46.0041958" lon="11.7263963"><ele>1223.2</ele><time>2026-04-06T14:44:44.622Z</time></trkpt><trkpt lat="46.0041922" lon="11.7262543"><ele>1228.6000000000001</ele><time>2026-04-06T14:44:46.624Z</time></trkpt><trkpt lat="46.004181" lon="11.7261405"><ele>1234.0</ele><time>2026-04-06T14:44:48.623Z</time></trkpt><trkpt lat="46.0041592" lon="11.7260303"><ele>1236.8333333333333</ele><time>2026-04-06T14:44:50.623Z</time></trkpt><trkpt lat="46.0041931" lon="11.7259317"><ele>1239.6666666666665</ele><time>2026-04-06T14:44:52.623Z</time></trkpt><trkpt lat="46.0042396" lon="11.7258311"><ele>1242.5</ele><time>2026-04-06T14:44:54.623Z</time></trkpt><trkpt lat="46.0042732" lon="11.7257332"><ele>1245.3333333333333</ele><time>2026-04-06T14:44:56.623Z</time></trkpt><trkpt lat="46.0043064" lon="11.72564"><ele>1248.1666666666667</ele><time>2026-04-06T14:44:58.622Z</time></trkpt><trkpt lat="46.0043073" lon="11.7255244"><ele>1251.0</ele><time>2026-04-06T14:45:00.623Z</time></trkpt><trkpt lat="46.0042731" lon="11.7254394"><ele>1251.0</ele><time>2026-04-06T14:45:13.623Z</time></trkpt><trkpt lat="46.0042991" lon="11.7253436"><ele>1251.0</ele><time>2026-04-06T14:45:16.623Z</time></trkpt><trkpt lat="46.0043814" lon="11.7253092"><ele>1251.0</ele><time>2026-04-06T14:45:20.623Z</time></trkpt><trkpt lat="46.0044552" lon="11.7253069"><ele>1251.0</ele><time>2026-04-06T14:45:23.623Z</time></trkpt><trkpt lat="46.004566" lon="11.7252856"><ele>1251.0</ele><time>2026-04-06T14:45:26.624Z</time></trkpt><trkpt lat="46.0046826" lon="11.7252311"><ele>1252.6666666666667</ele><time>2026-04-06T14:45:28.624Z</time></trkpt><trkpt lat="46.0047573" lon="11.7251869"><ele>1254.3333333333333</ele><time>2026-04-06T14:45:30.624Z</time></trkpt><trkpt lat="46.0048321" lon="11.7251548"><ele>1256.0</ele><time>2026-04-06T14:45:32.623Z</time></trkpt><trkpt lat="46.0049252" lon="11.7251007"><ele>1257.6666666666665</ele><time>2026-04-06T14:45:34.624Z</time></trkpt><trkpt lat="46.0050001" lon="11.725045"><ele>1259.3333333333333</ele><time>2026-04-06T14:45:36.624Z</time></trkpt><trkpt lat="46.0050683" lon="11.7249988"><ele>1261.0</ele><time>2026-04-06T14:45:38.623Z</time></trkpt><trkpt lat="46.0051511" lon="11.7249173"><ele>1261.3333333333333</ele><time>2026-04-06T14:45:40.625Z</time></trkpt><trkpt lat="46.0052359" lon="11.7248477"><ele>1261.6666666666665</ele><time>2026-04-06T14:45:42.624Z</time></trkpt><trkpt lat="46.0053085" lon="11.7247928"><ele>1262.0</ele><time>2026-04-06T14:45:44.623Z</time></trkpt><trkpt lat="46.0053538" lon="11.7247263"><ele>1262.3333333333333</ele><time>2026-04-06T14:45:50.623Z</time></trkpt><trkpt lat="46.0053935" lon="11.7246233"><ele>1262.6666666666667</ele><time>2026-04-06T14:45:53.623Z</time></trkpt><trkpt lat="46.0054595" lon="11.7245121"><ele>1263.0</ele><time>2026-04-06T14:45:55.623Z</time></trkpt><trkpt lat="46.0055261" lon="11.7244283"><ele>1263.8333333333333</ele><time>2026-04-06T14:45:57.624Z</time></trkpt><trkpt lat="46.0055937" lon="11.7243619"><ele>1264.6666666666667</ele><time>2026-04-06T14:46:00.623Z</time></trkpt><trkpt lat="46.0056477" lon="11.7242859"><ele>1265.5</ele><time>2026-04-06T14:46:04.624Z</time></trkpt><trkpt lat="46.0056747" lon="11.7241972"><ele>1266.3333333333335</ele><time>2026-04-06T14:46:08.624Z</time></trkpt><trkpt lat="46.005682" lon="11.7240946"><ele>1267.1666666666667</ele><time>2026-04-06T14:46:11.624Z</time></trkpt><trkpt lat="46.0056875" lon="11.7239996"><ele>1268.0</ele><time>2026-04-06T14:46:13.625Z</time></trkpt><trkpt lat="46.0057239" lon="11.7238683"><ele>1268.0</ele><time>2026-04-06T14:46:19.624Z</time></trkpt><trkpt lat="46.0057853" lon="11.7238076"><ele>1268.0</ele><time>2026-04-06T14:46:21.624Z</time></trkpt><trkpt lat="46.0058431" lon="11.723765"><ele>1268.0</ele><time>2026-04-06T14:46:24.624Z</time></trkpt><trkpt lat="46.0059169" lon="11.7237288"><ele>1268.0</ele><time>2026-04-06T14:46:30.624Z</time></trkpt><trkpt lat="46.0059862" lon="11.7237395"><ele>1268.0</ele><time>2026-04-06T14:46:34.624Z</time></trkpt><trkpt lat="46.0060489" lon="11.7237507"><ele>1268.0</ele><time>2026-04-06T14:46:37.624Z</time></trkpt><trkpt lat="46.006111" lon="11.7237314"><ele>1268.0</ele><time>2026-04-06T14:46:39.624Z</time></trkpt><trkpt lat="46.0061868" lon="11.723675"><ele>1267.3333333333335</ele><time>2026-04-06T14:46:41.624Z</time></trkpt><trkpt lat="46.0062628" lon="11.7236917"><ele>1266.6666666666667</ele><time>2026-04-06T14:46:44.624Z</time></trkpt><trkpt lat="46.0063491" lon="11.7237002"><ele>1266.0</ele><time>2026-04-06T14:46:48.624Z</time></trkpt><trkpt lat="46.0064295" lon="11.7236354"><ele>1265.3333333333333</ele><time>2026-04-06T14:46:50.624Z</time></trkpt><trkpt lat="46.0064958" lon="11.7235293"><ele>1264.6666666666665</ele><time>2026-04-06T14:46:53.624Z</time></trkpt><trkpt lat="46.0065432" lon="11.7234274"><ele>1264.0</ele><time>2026-04-06T14:46:56.624Z</time></trkpt><trkpt lat="46.0065001" lon="11.723316"><ele>1264.0</ele><time>2026-04-06T14:46:59.625Z</time></trkpt><trkpt lat="46.0065138" lon="11.7231946"><ele>1264.0</ele><time>2026-04-06T14:47:02.624Z</time></trkpt><trkpt lat="46.0065886" lon="11.723145"><ele>1264.0</ele><time>2026-04-06T14:47:04.625Z</time></trkpt><trkpt lat="46.0066719" lon="11.7231378"><ele>1264.0</ele><time>2026-04-06T14:47:06.624Z</time></trkpt><trkpt lat="46.0067642" lon="11.7231097"><ele>1264.0</ele><time>2026-04-06T14:47:08.626Z</time></trkpt><trkpt lat="46.0068357" lon="11.7230344"><ele>1264.0</ele><time>2026-04-06T14:47:10.626Z</time></trkpt><trkpt lat="46.0068611" lon="11.7229223"><ele>1262.3333333333333</ele><time>2026-04-06T14:47:12.625Z</time></trkpt><trkpt lat="46.006865" lon="11.7228188"><ele>1260.6666666666665</ele><time>2026-04-06T14:47:14.625Z</time></trkpt><trkpt lat="46.0068765" lon="11.7227104"><ele>1259.0</ele><time>2026-04-06T14:47:16.626Z</time></trkpt><trkpt lat="46.0069028" lon="11.7225572"><ele>1257.3333333333333</ele><time>2026-04-06T14:47:18.625Z</time></trkpt><trkpt lat="46.0069471" lon="11.7223901"><ele>1255.6666666666667</ele><time>2026-04-06T14:47:20.626Z</time></trkpt><trkpt lat="46.0069765" lon="11.7223057"><ele>1254.0</ele><time>2026-04-06T14:47:21.626Z</time></trkpt><trkpt lat="46.0070288" lon="11.7221925"><ele>1254.0</ele><time>2026-04-06T14:47:23.625Z</time></trkpt><trkpt lat="46.007007" lon="11.7220903"><ele>1254.0</ele><time>2026-04-06T14:47:46.625Z</time></trkpt><trkpt lat="46.006969" lon="11.7220162"><ele>1254.0</ele><time>2026-04-06T14:47:48.625Z</time></trkpt><trkpt lat="46.0069102" lon="11.7218869"><ele>1254.0</ele><time>2026-04-06T14:47:50.625Z</time></trkpt><trkpt lat="46.0068232" lon="11.7217649"><ele>1254.0</ele><time>2026-04-06T14:47:52.626Z</time></trkpt><trkpt lat="46.0067768" lon="11.7216928"><ele>1254.0</ele><time>2026-04-06T14:47:53.625Z</time></trkpt><trkpt lat="46.0067364" lon="11.7216122"><ele>1255.142857142857</ele><time>2026-04-06T14:47:54.626Z</time></trkpt><trkpt lat="46.006701" lon="11.7215281"><ele>1256.2857142857142</ele><time>2026-04-06T14:47:55.625Z</time></trkpt><trkpt lat="46.006674" lon="11.721433"><ele>1257.4285714285716</ele><time>2026-04-06T14:47:56.626Z</time></trkpt><trkpt lat="46.0066542" lon="11.7213263"><ele>1258.5714285714284</ele><time>2026-04-06T14:47:57.625Z</time></trkpt><trkpt lat="46.0066404" lon="11.7212269"><ele>1259.7142857142856</ele><time>2026-04-06T14:47:58.626Z</time></trkpt><trkpt lat="46.0066313" lon="11.7211338"><ele>1260.857142857143</ele><time>2026-04-06T14:47:59.625Z</time></trkpt><trkpt lat="46.0066252" lon="11.7210374"><ele>1262.0</ele><time>2026-04-06T14:48:00.626Z</time></trkpt><trkpt lat="46.006621" lon="11.7209358"><ele>1267.6</ele><time>2026-04-06T14:48:01.626Z</time></trkpt><trkpt lat="46.0066233" lon="11.7208399"><ele>1273.2</ele><time>2026-04-06T14:48:02.626Z</time></trkpt><trkpt lat="46.006625" lon="11.7206659"><ele>1278.8</ele><time>2026-04-06T14:48:04.625Z</time></trkpt><trkpt lat="46.0065993" lon="11.7205238"><ele>1284.4</ele><time>2026-04-06T14:48:06.626Z</time></trkpt><trkpt lat="46.0065864" lon="11.7203778"><ele>1290.0</ele><time>2026-04-06T14:48:08.627Z</time></trkpt><trkpt lat="46.0066188" lon="11.7202283"><ele>1290.0</ele><time>2026-04-06T14:48:10.626Z</time></trkpt><trkpt lat="46.0066021" lon="11.7200948"><ele>1290.0</ele><time>2026-04-06T14:48:12.626Z</time></trkpt><trkpt lat="46.0065562" lon="11.7199483"><ele>1290.0</ele><time>2026-04-06T14:48:14.628Z</time></trkpt><trkpt lat="46.0065084" lon="11.7197978"><ele>1290.0</ele><time>2026-04-06T14:48:16.627Z</time></trkpt><trkpt lat="46.0064665" lon="11.7196438"><ele>1290.0</ele><time>2026-04-06T14:48:18.626Z</time></trkpt><trkpt lat="46.0064418" lon="11.7195395"><ele>1290.0</ele><time>2026-04-06T14:48:20.626Z</time></trkpt><trkpt lat="46.006395" lon="11.7194524"><ele>1290.0</ele><time>2026-04-06T14:48:58.626Z</time></trkpt><trkpt lat="46.006343" lon="11.7193843"><ele>1290.0</ele><time>2026-04-06T14:49:01.627Z</time></trkpt><trkpt lat="46.0062815" lon="11.7194527"><ele>1290.0</ele><time>2026-04-06T14:49:04.626Z</time></trkpt><trkpt lat="46.0063357" lon="11.7195211"><ele>1290.0</ele><time>2026-04-06T14:49:21.627Z</time></trkpt><trkpt lat="46.0063292" lon="11.7196168"><ele>1290.0</ele><time>2026-04-06T14:49:25.627Z</time></trkpt><trkpt lat="46.0063975" lon="11.7196378"><ele>1290.0</ele><time>2026-04-06T15:00:04.634Z</time></trkpt><trkpt lat="46.006468" lon="11.7196671"><ele>1290.0</ele><time>2026-04-06T15:00:06.635Z</time></trkpt><trkpt lat="46.0065091" lon="11.7197627"><ele>1290.0</ele><time>2026-04-06T15:00:08.634Z</time></trkpt><trkpt lat="46.0065405" lon="11.7198838"><ele>1290.0</ele><time>2026-04-06T15:00:10.635Z</time></trkpt><trkpt lat="46.006591" lon="11.7200535"><ele>1290.0</ele><time>2026-04-06T15:00:12.634Z</time></trkpt><trkpt lat="46.006613" lon="11.7201543"><ele>1290.0</ele><time>2026-04-06T15:00:13.634Z</time></trkpt><trkpt lat="46.0066262" lon="11.720244"><ele>1290.0</ele><time>2026-04-06T15:00:14.635Z</time></trkpt><trkpt lat="46.0066221" lon="11.7204077"><ele>1290.6</ele><time>2026-04-06T15:00:16.634Z</time></trkpt><trkpt lat="46.0066017" lon="11.7205661"><ele>1291.2</ele><time>2026-04-06T15:00:18.634Z</time></trkpt><trkpt lat="46.0066289" lon="11.7207235"><ele>1291.8000000000002</ele><time>2026-04-06T15:00:20.635Z</time></trkpt><trkpt lat="46.0066498" lon="11.7208978"><ele>1292.4</ele><time>2026-04-06T15:00:22.634Z</time></trkpt><trkpt lat="46.0066448" lon="11.7209931"><ele>1293.0</ele><time>2026-04-06T15:00:23.634Z</time></trkpt><trkpt lat="46.006641" lon="11.7211001"><ele>1291.5714285714284</ele><time>2026-04-06T15:00:24.634Z</time></trkpt><trkpt lat="46.0066436" lon="11.7212132"><ele>1290.1428571428573</ele><time>2026-04-06T15:00:25.634Z</time></trkpt><trkpt lat="46.0066501" lon="11.7213205"><ele>1288.7142857142858</ele><time>2026-04-06T15:00:26.634Z</time></trkpt><trkpt lat="46.0066623" lon="11.7214209"><ele>1287.2857142857142</ele><time>2026-04-06T15:00:27.634Z</time></trkpt><trkpt lat="46.0066837" lon="11.7215124"><ele>1285.8571428571427</ele><time>2026-04-06T15:00:28.634Z</time></trkpt><trkpt lat="46.0067186" lon="11.721601"><ele>1284.4285714285716</ele><time>2026-04-06T15:00:29.635Z</time></trkpt><trkpt lat="46.0067618" lon="11.721688"><ele>1283.0</ele><time>2026-04-06T15:00:30.635Z</time></trkpt><trkpt lat="46.0068101" lon="11.7217681"><ele>1279.5</ele><time>2026-04-06T15:00:31.634Z</time></trkpt><trkpt lat="46.0068634" lon="11.7218493"><ele>1276.0</ele><time>2026-04-06T15:00:32.635Z</time></trkpt><trkpt lat="46.0069175" lon="11.7219401"><ele>1272.5</ele><time>2026-04-06T15:00:33.634Z</time></trkpt><trkpt lat="46.0069723" lon="11.7220359"><ele>1269.0</ele><time>2026-04-06T15:00:34.635Z</time></trkpt><trkpt lat="46.0070245" lon="11.7221284"><ele>1265.5</ele><time>2026-04-06T15:00:35.634Z</time></trkpt><trkpt lat="46.0070717" lon="11.7222212"><ele>1262.0</ele><time>2026-04-06T15:00:36.635Z</time></trkpt><trkpt lat="46.0071126" lon="11.7223173"><ele>1260.6666666666667</ele><time>2026-04-06T15:00:37.635Z</time></trkpt><trkpt lat="46.0071456" lon="11.7224157"><ele>1259.3333333333335</ele><time>2026-04-06T15:00:38.635Z</time></trkpt><trkpt lat="46.0071758" lon="11.7225087"><ele>1258.0</ele><time>2026-04-06T15:00:39.635Z</time></trkpt><trkpt lat="46.0072463" lon="11.72262"><ele>1256.6666666666667</ele><time>2026-04-06T15:00:41.634Z</time></trkpt><trkpt lat="46.0073302" lon="11.72267"><ele>1255.3333333333333</ele><time>2026-04-06T15:00:43.635Z</time></trkpt><trkpt lat="46.007402" lon="11.7227102"><ele>1254.0</ele><time>2026-04-06T15:00:45.634Z</time></trkpt><trkpt lat="46.0074703" lon="11.7227714"><ele>1253.2</ele><time>2026-04-06T15:00:46.634Z</time></trkpt><trkpt lat="46.0075396" lon="11.7228496"><ele>1252.4</ele><time>2026-04-06T15:00:47.635Z</time></trkpt><trkpt lat="46.0076078" lon="11.7229774"><ele>1251.6</ele><time>2026-04-06T15:00:49.635Z</time></trkpt><trkpt lat="46.0076826" lon="11.7230687"><ele>1250.8</ele><time>2026-04-06T15:00:51.634Z</time></trkpt><trkpt lat="46.0077718" lon="11.7231818"><ele>1250.0</ele><time>2026-04-06T15:00:53.634Z</time></trkpt><trkpt lat="46.0078629" lon="11.7232201"><ele>1250.0</ele><time>2026-04-06T15:00:55.634Z</time></trkpt><trkpt lat="46.0079387" lon="11.7232517"><ele>1250.0</ele><time>2026-04-06T15:00:57.634Z</time></trkpt><trkpt lat="46.008011" lon="11.7232988"><ele>1250.0</ele><time>2026-04-06T15:00:59.636Z</time></trkpt><trkpt lat="46.0080886" lon="11.7233566"><ele>1250.0</ele><time>2026-04-06T15:01:01.635Z</time></trkpt><trkpt lat="46.0081753" lon="11.7234391"><ele>1250.0</ele><time>2026-04-06T15:01:03.634Z</time></trkpt><trkpt lat="46.0082628" lon="11.7235379"><ele>1243.8</ele><time>2026-04-06T15:01:05.636Z</time></trkpt><trkpt lat="46.0083528" lon="11.7236414"><ele>1237.6</ele><time>2026-04-06T15:01:07.634Z</time></trkpt><trkpt lat="46.0084505" lon="11.7237493"><ele>1231.4</ele><time>2026-04-06T15:01:09.635Z</time></trkpt><trkpt lat="46.0085026" lon="11.7238008"><ele>1225.2</ele><time>2026-04-06T15:01:10.635Z</time></trkpt><trkpt lat="46.0086033" lon="11.7239093"><ele>1219.0</ele><time>2026-04-06T15:01:12.635Z</time></trkpt><trkpt lat="46.0086588" lon="11.7239706"><ele>1219.0</ele><time>2026-04-06T15:01:13.636Z</time></trkpt><trkpt lat="46.0087105" lon="11.7240311"><ele>1219.0</ele><time>2026-04-06T15:01:14.635Z</time></trkpt><trkpt lat="46.0087569" lon="11.7240933"><ele>1219.0</ele><time>2026-04-06T15:01:15.635Z</time></trkpt><trkpt lat="46.0088372" lon="11.7242172"><ele>1219.0</ele><time>2026-04-06T15:01:17.635Z</time></trkpt><trkpt lat="46.0089202" lon="11.7243074"><ele>1219.0</ele><time>2026-04-06T15:01:19.636Z</time></trkpt><trkpt lat="46.0089751" lon="11.7243683"><ele>1219.0</ele><time>2026-04-06T15:01:20.635Z</time></trkpt><trkpt lat="46.0090341" lon="11.7244354"><ele>1216.1666666666665</ele><time>2026-04-06T15:01:21.635Z</time></trkpt><trkpt lat="46.0091032" lon="11.724509"><ele>1213.3333333333333</ele><time>2026-04-06T15:01:22.636Z</time></trkpt><trkpt lat="46.0091526" lon="11.7245696"><ele>1210.5</ele><time>2026-04-06T15:01:23.636Z</time></trkpt><trkpt lat="46.0092136" lon="11.7246475"><ele>1207.6666666666667</ele><time>2026-04-06T15:01:25.636Z</time></trkpt><trkpt lat="46.0092863" lon="11.7246872"><ele>1204.8333333333335</ele><time>2026-04-06T15:01:27.635Z</time></trkpt><trkpt lat="46.0093793" lon="11.7247378"><ele>1202.0</ele><time>2026-04-06T15:01:29.635Z</time></trkpt><trkpt lat="46.0094502" lon="11.7247869"><ele>1200.5</ele><time>2026-04-06T15:01:31.635Z</time></trkpt><trkpt lat="46.0095331" lon="11.7248318"><ele>1199.0</ele><time>2026-04-06T15:01:33.635Z</time></trkpt><trkpt lat="46.0095928" lon="11.724894"><ele>1197.5</ele><time>2026-04-06T15:01:35.636Z</time></trkpt><trkpt lat="46.0096495" lon="11.7249878"><ele>1196.0</ele><time>2026-04-06T15:01:37.635Z</time></trkpt><trkpt lat="46.0097132" lon="11.7250899"><ele>1194.5</ele><time>2026-04-06T15:01:39.635Z</time></trkpt><trkpt lat="46.0097475" lon="11.7251725"><ele>1193.0</ele><time>2026-04-06T15:01:41.635Z</time></trkpt><trkpt lat="46.0098197" lon="11.7252516"><ele>1190.8</ele><time>2026-04-06T15:02:05.635Z</time></trkpt><trkpt lat="46.0099302" lon="11.7253017"><ele>1188.6</ele><time>2026-04-06T15:02:07.636Z</time></trkpt><trkpt lat="46.0100165" lon="11.7253404"><ele>1186.4</ele><time>2026-04-06T15:02:09.637Z</time></trkpt><trkpt lat="46.0100964" lon="11.7253813"><ele>1184.2</ele><time>2026-04-06T15:02:11.635Z</time></trkpt><trkpt lat="46.0101613" lon="11.7254107"><ele>1182.0</ele><time>2026-04-06T15:02:13.637Z</time></trkpt><trkpt lat="46.0102545" lon="11.7254968"><ele>1180.0</ele><time>2026-04-06T15:02:15.636Z</time></trkpt><trkpt lat="46.0103268" lon="11.7256181"><ele>1178.0</ele><time>2026-04-06T15:02:17.635Z</time></trkpt><trkpt lat="46.0103756" lon="11.7257175"><ele>1176.0</ele><time>2026-04-06T15:02:19.635Z</time></trkpt><trkpt lat="46.0104222" lon="11.7257859"><ele>1174.0</ele><time>2026-04-06T15:02:20.636Z</time></trkpt><trkpt lat="46.0104658" lon="11.725852"><ele>1172.0</ele><time>2026-04-06T15:02:21.635Z</time></trkpt><trkpt lat="46.0105084" lon="11.7259243"><ele>1170.0</ele><time>2026-04-06T15:02:22.636Z</time></trkpt><trkpt lat="46.010581" lon="11.7260429"><ele>1167.0</ele><time>2026-04-06T15:02:24.637Z</time></trkpt><trkpt lat="46.0106383" lon="11.7261683"><ele>1164.0</ele><time>2026-04-06T15:02:26.636Z</time></trkpt><trkpt lat="46.010685" lon="11.7263022"><ele>1161.0</ele><time>2026-04-06T15:02:28.636Z</time></trkpt><trkpt lat="46.0106706" lon="11.7264081"><ele>1158.0</ele><time>2026-04-06T15:02:31.636Z</time></trkpt><trkpt lat="46.0106415" lon="11.7264904"><ele>1155.0</ele><time>2026-04-06T15:02:47.637Z</time></trkpt><trkpt lat="46.0106057" lon="11.7265991"><ele>1152.0</ele><time>2026-04-06T15:02:49.637Z</time></trkpt><trkpt lat="46.0106025" lon="11.7267056"><ele>1152.0</ele><time>2026-04-06T15:02:51.636Z</time></trkpt><trkpt lat="46.0105893" lon="11.7267973"><ele>1152.0</ele><time>2026-04-06T15:02:53.636Z</time></trkpt><trkpt lat="46.0105411" lon="11.726912"><ele>1152.0</ele><time>2026-04-06T15:02:57.636Z</time></trkpt><trkpt lat="46.0104663" lon="11.7270064"><ele>1152.0</ele><time>2026-04-06T15:02:59.636Z</time></trkpt><trkpt lat="46.0103773" lon="11.7270772"><ele>1152.0</ele><time>2026-04-06T15:03:01.636Z</time></trkpt><trkpt lat="46.0102939" lon="11.727143"><ele>1148.8333333333333</ele><time>2026-04-06T15:03:03.636Z</time></trkpt><trkpt lat="46.01022" lon="11.7272387"><ele>1145.6666666666667</ele><time>2026-04-06T15:03:05.637Z</time></trkpt><trkpt lat="46.0101412" lon="11.7273155"><ele>1142.5</ele><time>2026-04-06T15:03:07.636Z</time></trkpt><trkpt lat="46.010064" lon="11.7273555"><ele>1139.3333333333335</ele><time>2026-04-06T15:03:09.637Z</time></trkpt><trkpt lat="46.0099855" lon="11.7273494"><ele>1136.1666666666667</ele><time>2026-04-06T15:03:11.636Z</time></trkpt><trkpt lat="46.0099051" lon="11.7273416"><ele>1133.0</ele><time>2026-04-06T15:03:13.636Z</time></trkpt><trkpt lat="46.0098232" lon="11.7273396"><ele>1133.0</ele><time>2026-04-06T15:03:15.636Z</time></trkpt><trkpt lat="46.0097435" lon="11.7273369"><ele>1133.0</ele><time>2026-04-06T15:03:17.636Z</time></trkpt><trkpt lat="46.0096613" lon="11.7273478"><ele>1133.0</ele><time>2026-04-06T15:03:19.637Z</time></trkpt><trkpt lat="46.0095956" lon="11.7274275"><ele>1133.0</ele><time>2026-04-06T15:03:22.636Z</time></trkpt><trkpt lat="46.0095558" lon="11.7275066"><ele>1133.0</ele><time>2026-04-06T15:03:24.636Z</time></trkpt><trkpt lat="46.0095393" lon="11.7276283"><ele>1133.0</ele><time>2026-04-06T15:03:26.637Z</time></trkpt><trkpt lat="46.0095138" lon="11.7277587"><ele>1127.8333333333335</ele><time>2026-04-06T15:03:28.636Z</time></trkpt><trkpt lat="46.0094375" lon="11.7278982"><ele>1122.6666666666667</ele><time>2026-04-06T15:03:30.636Z</time></trkpt><trkpt lat="46.0093993" lon="11.7279721"><ele>1117.5</ele><time>2026-04-06T15:03:31.637Z</time></trkpt><trkpt lat="46.0093431" lon="11.7280776"><ele>1112.3333333333333</ele><time>2026-04-06T15:03:33.637Z</time></trkpt><trkpt lat="46.0092887" lon="11.7281695"><ele>1107.1666666666665</ele><time>2026-04-06T15:03:36.636Z</time></trkpt><trkpt lat="46.0093688" lon="11.7281438"><ele>1102.0</ele><time>2026-04-06T15:03:39.637Z</time></trkpt><trkpt lat="46.0094343" lon="11.7280932"><ele>1102.0</ele><time>2026-04-06T15:03:40.638Z</time></trkpt><trkpt lat="46.009509" lon="11.7280413"><ele>1102.0</ele><time>2026-04-06T15:03:41.637Z</time></trkpt><trkpt lat="46.0095823" lon="11.7280063"><ele>1102.0</ele><time>2026-04-06T15:03:42.637Z</time></trkpt><trkpt lat="46.0096601" lon="11.7280091"><ele>1102.0</ele><time>2026-04-06T15:03:43.637Z</time></trkpt><trkpt lat="46.0097306" lon="11.7280369"><ele>1102.0</ele><time>2026-04-06T15:03:44.637Z</time></trkpt><trkpt lat="46.0098062" lon="11.7280815"><ele>1102.0</ele><time>2026-04-06T15:03:45.637Z</time></trkpt><trkpt lat="46.0098835" lon="11.7281352"><ele>1102.0</ele><time>2026-04-06T15:03:46.638Z</time></trkpt><trkpt lat="46.0099593" lon="11.7281824"><ele>1102.0</ele><time>2026-04-06T15:03:47.637Z</time></trkpt><trkpt lat="46.0100396" lon="11.7282215"><ele>1102.0</ele><time>2026-04-06T15:03:48.638Z</time></trkpt><trkpt lat="46.0101166" lon="11.7282469"><ele>1102.0</ele><time>2026-04-06T15:03:49.637Z</time></trkpt><trkpt lat="46.010208" lon="11.7282526"><ele>1102.0</ele><time>2026-04-06T15:03:50.637Z</time></trkpt><trkpt lat="46.0102966" lon="11.7282472"><ele>1102.0</ele><time>2026-04-06T15:03:51.637Z</time></trkpt><trkpt lat="46.0103795" lon="11.7282403"><ele>1099.2</ele><time>2026-04-06T15:03:52.637Z</time></trkpt><trkpt lat="46.010475" lon="11.7282286"><ele>1096.4</ele><time>2026-04-06T15:03:53.637Z</time></trkpt><trkpt lat="46.0105766" lon="11.7282111"><ele>1093.6</ele><time>2026-04-06T15:03:54.638Z</time></trkpt><trkpt lat="46.010674" lon="11.7281945"><ele>1090.8</ele><time>2026-04-06T15:03:55.637Z</time></trkpt><trkpt lat="46.0107681" lon="11.7281743"><ele>1088.0</ele><time>2026-04-06T15:03:56.637Z</time></trkpt><trkpt lat="46.010865" lon="11.7281508"><ele>1086.4</ele><time>2026-04-06T15:03:57.637Z</time></trkpt><trkpt lat="46.0109581" lon="11.7281541"><ele>1084.8</ele><time>2026-04-06T15:03:58.637Z</time></trkpt><trkpt lat="46.0110508" lon="11.7281327"><ele>1083.2</ele><time>2026-04-06T15:03:59.639Z</time></trkpt><trkpt lat="46.0111481" lon="11.7281111"><ele>1081.6</ele><time>2026-04-06T15:04:00.637Z</time></trkpt><trkpt lat="46.0112404" lon="11.7280865"><ele>1080.0</ele><time>2026-04-06T15:04:01.637Z</time></trkpt><trkpt lat="46.0113314" lon="11.7280559"><ele>1080.0</ele><time>2026-04-06T15:04:02.637Z</time></trkpt><trkpt lat="46.0114201" lon="11.7280247"><ele>1080.0</ele><time>2026-04-06T15:04:03.637Z</time></trkpt><trkpt lat="46.0115077" lon="11.7279906"><ele>1080.0</ele><time>2026-04-06T15:04:04.638Z</time></trkpt><trkpt lat="46.0115919" lon="11.7279475"><ele>1080.0</ele><time>2026-04-06T15:04:05.638Z</time></trkpt><trkpt lat="46.0116781" lon="11.7278954"><ele>1080.0</ele><time>2026-04-06T15:04:06.637Z</time></trkpt><trkpt lat="46.011761" lon="11.7278372"><ele>1082.0</ele><time>2026-04-06T15:04:07.638Z</time></trkpt><trkpt lat="46.0118469" lon="11.7277561"><ele>1084.0</ele><time>2026-04-06T15:04:08.637Z</time></trkpt><trkpt lat="46.0119355" lon="11.7276475"><ele>1086.0</ele><time>2026-04-06T15:04:09.638Z</time></trkpt><trkpt lat="46.0120208" lon="11.72753"><ele>1088.0</ele><time>2026-04-06T15:04:10.637Z</time></trkpt><trkpt lat="46.0120979" lon="11.7274009"><ele>1088.0</ele><time>2026-04-06T15:04:11.637Z</time></trkpt><trkpt lat="46.0121655" lon="11.7272899"><ele>1088.0</ele><time>2026-04-06T15:04:12.638Z</time></trkpt><trkpt lat="46.0122256" lon="11.7271693"><ele>1088.0</ele><time>2026-04-06T15:04:13.638Z</time></trkpt><trkpt lat="46.0122882" lon="11.7270559"><ele>1088.0</ele><time>2026-04-06T15:04:14.637Z</time></trkpt><trkpt lat="46.0123508" lon="11.7269491"><ele>1088.0</ele><time>2026-04-06T15:04:15.638Z</time></trkpt><trkpt lat="46.0124131" lon="11.7268532"><ele>1085.6666666666667</ele><time>2026-04-06T15:04:16.637Z</time></trkpt><trkpt lat="46.0124785" lon="11.7267687"><ele>1083.3333333333335</ele><time>2026-04-06T15:04:17.637Z</time></trkpt><trkpt lat="46.0125441" lon="11.7266909"><ele>1081.0</ele><time>2026-04-06T15:04:18.637Z</time></trkpt><trkpt lat="46.0126009" lon="11.726612"><ele>1078.6666666666667</ele><time>2026-04-06T15:04:19.637Z</time></trkpt><trkpt lat="46.0126402" lon="11.7265268"><ele>1076.3333333333333</ele><time>2026-04-06T15:04:20.637Z</time></trkpt><trkpt lat="46.0126895" lon="11.7263885"><ele>1074.0</ele><time>2026-04-06T15:04:22.637Z</time></trkpt><trkpt lat="46.012756" lon="11.7264648"><ele>1074.0</ele><time>2026-04-06T15:04:25.638Z</time></trkpt><trkpt lat="46.0127029" lon="11.7266454"><ele>1074.0</ele><time>2026-04-06T15:04:27.638Z</time></trkpt><trkpt lat="46.0126524" lon="11.7267291"><ele>1074.0</ele><time>2026-04-06T15:04:28.638Z</time></trkpt><trkpt lat="46.0126083" lon="11.7268005"><ele>1074.0</ele><time>2026-04-06T15:04:29.638Z</time></trkpt><trkpt lat="46.0125684" lon="11.7268721"><ele>1074.0</ele><time>2026-04-06T15:04:30.637Z</time></trkpt><trkpt lat="46.0125242" lon="11.7269487"><ele>1074.0</ele><time>2026-04-06T15:04:31.637Z</time></trkpt><trkpt lat="46.0124793" lon="11.72703"><ele>1075.9999999999998</ele><time>2026-04-06T15:04:32.638Z</time></trkpt><trkpt lat="46.0124379" lon="11.7271148"><ele>1078.0</ele><time>2026-04-06T15:04:33.637Z</time></trkpt><trkpt lat="46.0123977" lon="11.727212"><ele>1080.0</ele><time>2026-04-06T15:04:34.638Z</time></trkpt><trkpt lat="46.0123706" lon="11.7273099"><ele>1082.0</ele><time>2026-04-06T15:04:35.638Z</time></trkpt><trkpt lat="46.0123493" lon="11.7274042"><ele>1084.0</ele><time>2026-04-06T15:04:36.637Z</time></trkpt><trkpt lat="46.0123273" lon="11.7274993"><ele>1085.9999999999998</ele><time>2026-04-06T15:04:37.638Z</time></trkpt><trkpt lat="46.0123041" lon="11.7275945"><ele>1088.0</ele><time>2026-04-06T15:04:38.638Z</time></trkpt><trkpt lat="46.0122748" lon="11.7276876"><ele>1083.6666666666667</ele><time>2026-04-06T15:04:39.638Z</time></trkpt><trkpt lat="46.0122502" lon="11.7277805"><ele>1079.3333333333335</ele><time>2026-04-06T15:04:40.638Z</time></trkpt><trkpt lat="46.0122165" lon="11.727874"><ele>1075.0</ele><time>2026-04-06T15:04:41.637Z</time></trkpt><trkpt lat="46.0121806" lon="11.7279585"><ele>1070.6666666666667</ele><time>2026-04-06T15:04:42.639Z</time></trkpt><trkpt lat="46.0120936" lon="11.728106"><ele>1066.3333333333333</ele><time>2026-04-06T15:04:44.638Z</time></trkpt><trkpt lat="46.0120366" lon="11.7281736"><ele>1062.0</ele><time>2026-04-06T15:04:45.639Z</time></trkpt><trkpt lat="46.0119806" lon="11.7282387"><ele>1062.0</ele><time>2026-04-06T15:04:46.639Z</time></trkpt><trkpt lat="46.0119235" lon="11.7283029"><ele>1062.0</ele><time>2026-04-06T15:04:47.638Z</time></trkpt><trkpt lat="46.0118674" lon="11.7283593"><ele>1062.0</ele><time>2026-04-06T15:04:48.638Z</time></trkpt><trkpt lat="46.0118062" lon="11.7284139"><ele>1062.0</ele><time>2026-04-06T15:04:49.638Z</time></trkpt><trkpt lat="46.011735" lon="11.7284657"><ele>1062.0</ele><time>2026-04-06T15:04:50.639Z</time></trkpt><trkpt lat="46.011661" lon="11.728509"><ele>1062.0</ele><time>2026-04-06T15:04:51.638Z</time></trkpt><trkpt lat="46.0115768" lon="11.7285553"><ele>1060.0</ele><time>2026-04-06T15:04:52.638Z</time></trkpt><trkpt lat="46.0114971" lon="11.7286047"><ele>1058.0</ele><time>2026-04-06T15:04:53.638Z</time></trkpt><trkpt lat="46.0114217" lon="11.7286555"><ele>1056.0</ele><time>2026-04-06T15:04:54.638Z</time></trkpt><trkpt lat="46.0113514" lon="11.7287123"><ele>1054.0</ele><time>2026-04-06T15:04:55.638Z</time></trkpt><trkpt lat="46.0112801" lon="11.7287707"><ele>1052.0</ele><time>2026-04-06T15:04:56.639Z</time></trkpt><trkpt lat="46.01122" lon="11.7288222"><ele>1050.0</ele><time>2026-04-06T15:04:57.638Z</time></trkpt><trkpt lat="46.0111663" lon="11.7288705"><ele>1050.0</ele><time>2026-04-06T15:04:58.638Z</time></trkpt><trkpt lat="46.0110619" lon="11.7289762"><ele>1050.0</ele><time>2026-04-06T15:05:00.638Z</time></trkpt><trkpt lat="46.0110028" lon="11.7290437"><ele>1050.0</ele><time>2026-04-06T15:05:01.638Z</time></trkpt><trkpt lat="46.0109426" lon="11.7291073"><ele>1050.0</ele><time>2026-04-06T15:05:02.639Z</time></trkpt><trkpt lat="46.010881" lon="11.7291654"><ele>1050.0</ele><time>2026-04-06T15:05:03.638Z</time></trkpt><trkpt lat="46.0108148" lon="11.7292167"><ele>1050.0</ele><time>2026-04-06T15:05:04.638Z</time></trkpt><trkpt lat="46.010747" lon="11.7292612"><ele>1048.8333333333333</ele><time>2026-04-06T15:05:05.638Z</time></trkpt><trkpt lat="46.0106659" lon="11.7293103"><ele>1047.6666666666667</ele><time>2026-04-06T15:05:06.638Z</time></trkpt><trkpt lat="46.010581" lon="11.7293448"><ele>1046.5</ele><time>2026-04-06T15:05:07.638Z</time></trkpt><trkpt lat="46.0104961" lon="11.7293621"><ele>1045.3333333333335</ele><time>2026-04-06T15:05:08.638Z</time></trkpt><trkpt lat="46.0104198" lon="11.7293723"><ele>1044.1666666666667</ele><time>2026-04-06T15:05:09.638Z</time></trkpt><trkpt lat="46.0103508" lon="11.7293823"><ele>1043.0</ele><time>2026-04-06T15:05:10.639Z</time></trkpt><trkpt lat="46.010283" lon="11.7293987"><ele>1043.0</ele><time>2026-04-06T15:05:11.639Z</time></trkpt><trkpt lat="46.010182" lon="11.729491"><ele>1043.0</ele><time>2026-04-06T15:05:13.638Z</time></trkpt><trkpt lat="46.0101463" lon="11.7296548"><ele>1043.0</ele><time>2026-04-06T15:05:15.638Z</time></trkpt><trkpt lat="46.0101398" lon="11.7297528"><ele>1043.0</ele><time>2026-04-06T15:05:16.638Z</time></trkpt><trkpt lat="46.0101399" lon="11.7298703"><ele>1043.0</ele><time>2026-04-06T15:05:17.639Z</time></trkpt><trkpt lat="46.0101486" lon="11.7299947"><ele>1043.0</ele><time>2026-04-06T15:05:18.639Z</time></trkpt><trkpt lat="46.0101581" lon="11.7301155"><ele>1043.0</ele><time>2026-04-06T15:05:19.638Z</time></trkpt><trkpt lat="46.0101592" lon="11.7302293"><ele>1043.0</ele><time>2026-04-06T15:05:20.638Z</time></trkpt><trkpt lat="46.0101437" lon="11.7303263"><ele>1043.0</ele><time>2026-04-06T15:05:21.638Z</time></trkpt><trkpt lat="46.0101054" lon="11.7304238"><ele>1043.0</ele><time>2026-04-06T15:05:22.638Z</time></trkpt><trkpt lat="46.0100622" lon="11.7305197"><ele>1043.0</ele><time>2026-04-06T15:05:23.638Z</time></trkpt><trkpt lat="46.0100272" lon="11.7306178"><ele>1041.0</ele><time>2026-04-06T15:05:24.638Z</time></trkpt><trkpt lat="46.0099858" lon="11.730713"><ele>1039.0</ele><time>2026-04-06T15:05:25.639Z</time></trkpt><trkpt lat="46.0099505" lon="11.7308165"><ele>1037.0</ele><time>2026-04-06T15:05:26.638Z</time></trkpt><trkpt lat="46.0099201" lon="11.7309184"><ele>1035.0</ele><time>2026-04-06T15:05:27.638Z</time></trkpt><trkpt lat="46.0098925" lon="11.731025"><ele>1033.0</ele><time>2026-04-06T15:05:28.638Z</time></trkpt><trkpt lat="46.0098717" lon="11.7311323"><ele>1031.0</ele><time>2026-04-06T15:05:29.639Z</time></trkpt><trkpt lat="46.009854" lon="11.7312391"><ele>1030.0</ele><time>2026-04-06T15:05:30.638Z</time></trkpt><trkpt lat="46.0098378" lon="11.7313451"><ele>1029.0</ele><time>2026-04-06T15:05:31.639Z</time></trkpt><trkpt lat="46.0098214" lon="11.7314479"><ele>1028.0</ele><time>2026-04-06T15:05:32.639Z</time></trkpt><trkpt lat="46.0098046" lon="11.7315482"><ele>1027.0</ele><time>2026-04-06T15:05:33.638Z</time></trkpt><trkpt lat="46.0097864" lon="11.7316469"><ele>1026.0</ele><time>2026-04-06T15:05:34.639Z</time></trkpt><trkpt lat="46.0097702" lon="11.7317489"><ele>1025.0</ele><time>2026-04-06T15:05:35.639Z</time></trkpt><trkpt lat="46.0097519" lon="11.7318457"><ele>1024.0</ele><time>2026-04-06T15:05:36.639Z</time></trkpt><trkpt lat="46.0097333" lon="11.7319405"><ele>1023.5714285714286</ele><time>2026-04-06T15:05:37.64Z</time></trkpt><trkpt lat="46.0097155" lon="11.7320363"><ele>1023.1428571428571</ele><time>2026-04-06T15:05:38.638Z</time></trkpt><trkpt lat="46.0096984" lon="11.7321304"><ele>1022.7142857142857</ele><time>2026-04-06T15:05:39.639Z</time></trkpt><trkpt lat="46.0096807" lon="11.7322243"><ele>1022.2857142857142</ele><time>2026-04-06T15:05:40.639Z</time></trkpt><trkpt lat="46.0096633" lon="11.7323174"><ele>1021.8571428571429</ele><time>2026-04-06T15:05:41.639Z</time></trkpt><trkpt lat="46.0096464" lon="11.7324065"><ele>1021.4285714285713</ele><time>2026-04-06T15:05:42.639Z</time></trkpt><trkpt lat="46.009629" lon="11.7324944"><ele>1021.0</ele><time>2026-04-06T15:05:43.638Z</time></trkpt><trkpt lat="46.0096124" lon="11.732584"><ele>1021.0</ele><time>2026-04-06T15:05:44.639Z</time></trkpt><trkpt lat="46.0096004" lon="11.7326771"><ele>1020.9999999999999</ele><time>2026-04-06T15:05:45.639Z</time></trkpt><trkpt lat="46.0095883" lon="11.7327688"><ele>1020.9999999999999</ele><time>2026-04-06T15:05:46.639Z</time></trkpt><trkpt lat="46.0095457" lon="11.7329277"><ele>1021.0</ele><time>2026-04-06T15:05:48.639Z</time></trkpt><trkpt lat="46.00947" lon="11.7330436"><ele>1021.0</ele><time>2026-04-06T15:05:50.639Z</time></trkpt><trkpt lat="46.0093723" lon="11.7331125"><ele>1018.5999999999999</ele><time>2026-04-06T15:05:52.638Z</time></trkpt><trkpt lat="46.0092728" lon="11.733151"><ele>1016.1999999999999</ele><time>2026-04-06T15:05:54.639Z</time></trkpt><trkpt lat="46.0091849" lon="11.7331325"><ele>1013.8000000000001</ele><time>2026-04-06T15:05:56.639Z</time></trkpt><trkpt lat="46.0090956" lon="11.7330225"><ele>1011.4000000000001</ele><time>2026-04-06T15:05:58.639Z</time></trkpt><trkpt lat="46.0090251" lon="11.732878"><ele>1009.0</ele><time>2026-04-06T15:06:00.639Z</time></trkpt><trkpt lat="46.0089986" lon="11.7327899"><ele>1006.5714285714287</ele><time>2026-04-06T15:06:01.639Z</time></trkpt><trkpt lat="46.0089731" lon="11.7327019"><ele>1004.1428571428571</ele><time>2026-04-06T15:06:02.639Z</time></trkpt><trkpt lat="46.0089417" lon="11.7326232"><ele>1001.7142857142858</ele><time>2026-04-06T15:06:03.639Z</time></trkpt><trkpt lat="46.0089037" lon="11.7325493"><ele>999.2857142857143</ele><time>2026-04-06T15:06:04.639Z</time></trkpt><trkpt lat="46.0088521" lon="11.7323912"><ele>996.8571428571429</ele><time>2026-04-06T15:06:06.64Z</time></trkpt><trkpt lat="46.0088386" lon="11.7323013"><ele>994.4285714285714</ele><time>2026-04-06T15:06:07.639Z</time></trkpt><trkpt lat="46.0088324" lon="11.7322104"><ele>992.0</ele><time>2026-04-06T15:06:08.639Z</time></trkpt><trkpt lat="46.0088325" lon="11.7321179"><ele>992.0</ele><time>2026-04-06T15:06:09.639Z</time></trkpt><trkpt lat="46.0088379" lon="11.7320216"><ele>992.0000000000001</ele><time>2026-04-06T15:06:10.639Z</time></trkpt><trkpt lat="46.0088425" lon="11.7319268"><ele>992.0</ele><time>2026-04-06T15:06:11.639Z</time></trkpt><trkpt lat="46.0088456" lon="11.7318316"><ele>992.0</ele><time>2026-04-06T15:06:12.639Z</time></trkpt><trkpt lat="46.0088466" lon="11.7317331"><ele>992.0000000000001</ele><time>2026-04-06T15:06:13.64Z</time></trkpt><trkpt lat="46.0088469" lon="11.7316332"><ele>992.0</ele><time>2026-04-06T15:06:14.639Z</time></trkpt><trkpt lat="46.0088452" lon="11.7315368"><ele>992.0</ele><time>2026-04-06T15:06:15.639Z</time></trkpt><trkpt lat="46.008839" lon="11.7314457"><ele>994.6</ele><time>2026-04-06T15:06:16.64Z</time></trkpt><trkpt lat="46.0088223" lon="11.7312792"><ele>997.2</ele><time>2026-04-06T15:06:18.64Z</time></trkpt><trkpt lat="46.0088172" lon="11.7311222"><ele>999.8</ele><time>2026-04-06T15:06:20.639Z</time></trkpt><trkpt lat="46.0088117" lon="11.7309839"><ele>1002.4</ele><time>2026-04-06T15:06:22.639Z</time></trkpt><trkpt lat="46.0087866" lon="11.7308932"><ele>1005.0</ele><time>2026-04-06T15:06:24.64Z</time></trkpt><trkpt lat="46.0087163" lon="11.7309392"><ele>1005.0</ele><time>2026-04-06T15:06:26.639Z</time></trkpt><trkpt lat="46.008691" lon="11.7311018"><ele>1005.0</ele><time>2026-04-06T15:06:28.639Z</time></trkpt><trkpt lat="46.008704" lon="11.7311908"><ele>1005.0</ele><time>2026-04-06T15:06:29.64Z</time></trkpt><trkpt lat="46.0087269" lon="11.731362"><ele>1005.0</ele><time>2026-04-06T15:06:31.639Z</time></trkpt><trkpt lat="46.0087336" lon="11.7315354"><ele>1005.0</ele><time>2026-04-06T15:06:33.639Z</time></trkpt><trkpt lat="46.0087314" lon="11.7316267"><ele>1005.0000000000001</ele><time>2026-04-06T15:06:34.639Z</time></trkpt><trkpt lat="46.0087239" lon="11.7317198"><ele>1005.0</ele><time>2026-04-06T15:06:35.639Z</time></trkpt><trkpt lat="46.0087118" lon="11.7318177"><ele>1005.0000000000001</ele><time>2026-04-06T15:06:36.639Z</time></trkpt><trkpt lat="46.0086975" lon="11.7319157"><ele>1005.0000000000001</ele><time>2026-04-06T15:06:37.641Z</time></trkpt><trkpt lat="46.0086812" lon="11.732021"><ele>1005.0</ele><time>2026-04-06T15:06:38.64Z</time></trkpt><trkpt lat="46.0086645" lon="11.7321191"><ele>1005.0000000000001</ele><time>2026-04-06T15:06:39.64Z</time></trkpt><trkpt lat="46.0086468" lon="11.7322208"><ele>1005.0000000000001</ele><time>2026-04-06T15:06:40.64Z</time></trkpt><trkpt lat="46.0086314" lon="11.7323195"><ele>1002.8333333333334</ele><time>2026-04-06T15:06:41.639Z</time></trkpt><trkpt lat="46.0086136" lon="11.732419"><ele>1000.6666666666667</ele><time>2026-04-06T15:06:42.64Z</time></trkpt><trkpt lat="46.0086019" lon="11.7325239"><ele>998.5</ele><time>2026-04-06T15:06:43.639Z</time></trkpt><trkpt lat="46.0085963" lon="11.7326396"><ele>996.3333333333334</ele><time>2026-04-06T15:06:44.64Z</time></trkpt><trkpt lat="46.0086044" lon="11.7327503"><ele>994.1666666666667</ele><time>2026-04-06T15:06:45.64Z</time></trkpt><trkpt lat="46.0086225" lon="11.7328596"><ele>992.0</ele><time>2026-04-06T15:06:46.64Z</time></trkpt><trkpt lat="46.0086475" lon="11.7329645"><ele>989.6666666666667</ele><time>2026-04-06T15:06:47.64Z</time></trkpt><trkpt lat="46.0086737" lon="11.7330756"><ele>987.3333333333334</ele><time>2026-04-06T15:06:48.641Z</time></trkpt><trkpt lat="46.0087034" lon="11.7331765"><ele>985.0</ele><time>2026-04-06T15:06:49.639Z</time></trkpt><trkpt lat="46.0087366" lon="11.7332765"><ele>982.6666666666667</ele><time>2026-04-06T15:06:50.64Z</time></trkpt><trkpt lat="46.0087677" lon="11.7333673"><ele>980.3333333333334</ele><time>2026-04-06T15:06:51.639Z</time></trkpt><trkpt lat="46.0087977" lon="11.7334692"><ele>978.0</ele><time>2026-04-06T15:06:52.64Z</time></trkpt><trkpt lat="46.0088277" lon="11.733564"><ele>975.5714285714287</ele><time>2026-04-06T15:06:53.639Z</time></trkpt><trkpt lat="46.0088559" lon="11.7336627"><ele>973.1428571428572</ele><time>2026-04-06T15:06:54.64Z</time></trkpt><trkpt lat="46.0088821" lon="11.7337598"><ele>970.7142857142858</ele><time>2026-04-06T15:06:55.64Z</time></trkpt><trkpt lat="46.0089016" lon="11.7338583"><ele>968.2857142857142</ele><time>2026-04-06T15:06:56.64Z</time></trkpt><trkpt lat="46.0089099" lon="11.7339634"><ele>965.8571428571428</ele><time>2026-04-06T15:06:57.64Z</time></trkpt><trkpt lat="46.0089125" lon="11.7340711"><ele>963.4285714285713</ele><time>2026-04-06T15:06:58.64Z</time></trkpt><trkpt lat="46.008924" lon="11.7341838"><ele>961.0</ele><time>2026-04-06T15:06:59.64Z</time></trkpt><trkpt lat="46.0089508" lon="11.7342802"><ele>960.9999999999999</ele><time>2026-04-06T15:07:00.64Z</time></trkpt><trkpt lat="46.009" lon="11.7343562"><ele>961.0</ele><time>2026-04-06T15:07:01.641Z</time></trkpt><trkpt lat="46.0090717" lon="11.7344095"><ele>961.0</ele><time>2026-04-06T15:07:02.64Z</time></trkpt><trkpt lat="46.0091458" lon="11.7344349"><ele>961.0</ele><time>2026-04-06T15:07:03.64Z</time></trkpt><trkpt lat="46.0092251" lon="11.7344649"><ele>960.9999999999999</ele><time>2026-04-06T15:07:04.64Z</time></trkpt><trkpt lat="46.0093011" lon="11.7345046"><ele>961.0</ele><time>2026-04-06T15:07:05.639Z</time></trkpt><trkpt lat="46.0093679" lon="11.734561"><ele>962.1428571428571</ele><time>2026-04-06T15:07:06.641Z</time></trkpt><trkpt lat="46.0094204" lon="11.7346404"><ele>963.2857142857142</ele><time>2026-04-06T15:07:07.64Z</time></trkpt><trkpt lat="46.0094571" lon="11.7347385"><ele>964.4285714285713</ele><time>2026-04-06T15:07:08.64Z</time></trkpt><trkpt lat="46.0094807" lon="11.7348415"><ele>965.5714285714284</ele><time>2026-04-06T15:07:09.64Z</time></trkpt><trkpt lat="46.0094868" lon="11.7349432"><ele>966.7142857142857</ele><time>2026-04-06T15:07:10.64Z</time></trkpt><trkpt lat="46.0094845" lon="11.7350377"><ele>967.8571428571427</ele><time>2026-04-06T15:07:11.64Z</time></trkpt><trkpt lat="46.0094762" lon="11.7351324"><ele>968.9999999999999</ele><time>2026-04-06T15:07:12.64Z</time></trkpt><trkpt lat="46.0094628" lon="11.7352352"><ele>968.9999999999999</ele><time>2026-04-06T15:07:13.64Z</time></trkpt><trkpt lat="46.0094443" lon="11.735343"><ele>969.0</ele><time>2026-04-06T15:07:14.64Z</time></trkpt><trkpt lat="46.00943" lon="11.7354359"><ele>968.9999999999999</ele><time>2026-04-06T15:07:15.642Z</time></trkpt><trkpt lat="46.0094122" lon="11.735523"><ele>968.9999999999999</ele><time>2026-04-06T15:07:16.641Z</time></trkpt><trkpt lat="46.0093976" lon="11.7356169"><ele>969.0</ele><time>2026-04-06T15:07:17.64Z</time></trkpt><trkpt lat="46.0093901" lon="11.7357147"><ele>968.9999999999999</ele><time>2026-04-06T15:07:18.64Z</time></trkpt><trkpt lat="46.009387" lon="11.7358117"><ele>968.9999999999999</ele><time>2026-04-06T15:07:19.641Z</time></trkpt><trkpt lat="46.0093923" lon="11.7359089"><ele>968.9999999999999</ele><time>2026-04-06T15:07:20.64Z</time></trkpt><trkpt lat="46.0094032" lon="11.7360076"><ele>969.0</ele><time>2026-04-06T15:07:21.64Z</time></trkpt><trkpt lat="46.0094197" lon="11.7361081"><ele>968.9999999999999</ele><time>2026-04-06T15:07:22.641Z</time></trkpt><trkpt lat="46.0094309" lon="11.7361983"><ele>968.9999999999999</ele><time>2026-04-06T15:07:23.64Z</time></trkpt><trkpt lat="46.009431" lon="11.7362905"><ele>969.0</ele><time>2026-04-06T15:07:24.64Z</time></trkpt><trkpt lat="46.0094141" lon="11.7363877"><ele>968.9999999999999</ele><time>2026-04-06T15:07:25.64Z</time></trkpt><trkpt lat="46.0093861" lon="11.7364899"><ele>968.9999999999999</ele><time>2026-04-06T15:07:26.641Z</time></trkpt><trkpt lat="46.0093514" lon="11.7365764"><ele>970.0</ele><time>2026-04-06T15:07:27.641Z</time></trkpt><trkpt lat="46.0092971" lon="11.7367457"><ele>971.0000000000001</ele><time>2026-04-06T15:07:29.641Z</time></trkpt><trkpt lat="46.0092626" lon="11.7369121"><ele>972.0000000000001</ele><time>2026-04-06T15:07:31.64Z</time></trkpt><trkpt lat="46.0092145" lon="11.737036"><ele>973.0</ele><time>2026-04-06T15:07:33.64Z</time></trkpt><trkpt lat="46.009117" lon="11.7370426"><ele>974.0</ele><time>2026-04-06T15:07:35.641Z</time></trkpt><trkpt lat="46.0090576" lon="11.7369869"><ele>968.6666666666667</ele><time>2026-04-06T15:07:36.64Z</time></trkpt><trkpt lat="46.0089993" lon="11.7369286"><ele>963.3333333333334</ele><time>2026-04-06T15:07:37.64Z</time></trkpt><trkpt lat="46.0089461" lon="11.7368794"><ele>958.0</ele><time>2026-04-06T15:07:38.641Z</time></trkpt><trkpt lat="46.0088249" lon="11.7368638"><ele>952.6666666666667</ele><time>2026-04-06T15:07:40.64Z</time></trkpt><trkpt lat="46.0087598" lon="11.7368983"><ele>947.3333333333334</ele><time>2026-04-06T15:07:41.64Z</time></trkpt><trkpt lat="46.0087045" lon="11.7369543"><ele>942.0</ele><time>2026-04-06T15:07:42.64Z</time></trkpt><trkpt lat="46.008667" lon="11.7370334"><ele>942.0</ele><time>2026-04-06T15:07:43.64Z</time></trkpt><trkpt lat="46.0086494" lon="11.7371993"><ele>942.0</ele><time>2026-04-06T15:07:45.641Z</time></trkpt><trkpt lat="46.0086501" lon="11.7373814"><ele>942.0</ele><time>2026-04-06T15:07:47.64Z</time></trkpt><trkpt lat="46.0086477" lon="11.7374748"><ele>942.0</ele><time>2026-04-06T15:07:48.641Z</time></trkpt><trkpt lat="46.0086495" lon="11.7376387"><ele>942.0</ele><time>2026-04-06T15:07:50.641Z</time></trkpt><trkpt lat="46.008643" lon="11.7378269"><ele>942.5714285714287</ele><time>2026-04-06T15:07:52.64Z</time></trkpt><trkpt lat="46.008638" lon="11.7379258"><ele>943.1428571428571</ele><time>2026-04-06T15:07:53.64Z</time></trkpt><trkpt lat="46.0086268" lon="11.7380266"><ele>943.7142857142858</ele><time>2026-04-06T15:07:54.641Z</time></trkpt><trkpt lat="46.0086088" lon="11.7381253"><ele>944.2857142857143</ele><time>2026-04-06T15:07:55.641Z</time></trkpt><trkpt lat="46.0085841" lon="11.7382157"><ele>944.8571428571429</ele><time>2026-04-06T15:07:56.64Z</time></trkpt><trkpt lat="46.0085459" lon="11.7383131"><ele>945.4285714285714</ele><time>2026-04-06T15:07:57.641Z</time></trkpt><trkpt lat="46.0085115" lon="11.7384132"><ele>946.0</ele><time>2026-04-06T15:07:58.641Z</time></trkpt><trkpt lat="46.008474" lon="11.7385056"><ele>948.6666666666666</ele><time>2026-04-06T15:07:59.64Z</time></trkpt><trkpt lat="46.0084345" lon="11.7386032"><ele>951.3333333333333</ele><time>2026-04-06T15:08:00.641Z</time></trkpt><trkpt lat="46.0083971" lon="11.7387078"><ele>954.0</ele><time>2026-04-06T15:08:01.641Z</time></trkpt><trkpt lat="46.0083631" lon="11.7388162"><ele>956.6666666666667</ele><time>2026-04-06T15:08:02.641Z</time></trkpt><trkpt lat="46.0083384" lon="11.7389256"><ele>959.3333333333334</ele><time>2026-04-06T15:08:03.641Z</time></trkpt><trkpt lat="46.0083111" lon="11.7390279"><ele>962.0</ele><time>2026-04-06T15:08:04.64Z</time></trkpt><trkpt lat="46.0082854" lon="11.7391406"><ele>955.5000000000001</ele><time>2026-04-06T15:08:05.64Z</time></trkpt><trkpt lat="46.0082575" lon="11.7392444"><ele>949.0</ele><time>2026-04-06T15:08:06.64Z</time></trkpt><trkpt lat="46.0082241" lon="11.7393497"><ele>942.5</ele><time>2026-04-06T15:08:07.641Z</time></trkpt><trkpt lat="46.0081819" lon="11.7394492"><ele>936.0</ele><time>2026-04-06T15:08:08.641Z</time></trkpt><trkpt lat="46.0081376" lon="11.739537"><ele>929.5000000000001</ele><time>2026-04-06T15:08:09.64Z</time></trkpt><trkpt lat="46.0080879" lon="11.7396274"><ele>923.0</ele><time>2026-04-06T15:08:10.641Z</time></trkpt><trkpt lat="46.0080422" lon="11.7397278"><ele>923.0000000000001</ele><time>2026-04-06T15:08:11.641Z</time></trkpt><trkpt lat="46.0080001" lon="11.7398263"><ele>923.0</ele><time>2026-04-06T15:08:12.64Z</time></trkpt><trkpt lat="46.00796" lon="11.73992"><ele>923.0</ele><time>2026-04-06T15:08:13.64Z</time></trkpt><trkpt lat="46.0079183" lon="11.7400146"><ele>923.0</ele><time>2026-04-06T15:08:14.64Z</time></trkpt><trkpt lat="46.0078788" lon="11.7401108"><ele>923.0000000000001</ele><time>2026-04-06T15:08:15.641Z</time></trkpt><trkpt lat="46.0078309" lon="11.7401999"><ele>923.0</ele><time>2026-04-06T15:08:16.641Z</time></trkpt><trkpt lat="46.0077789" lon="11.7402928"><ele>925.5000000000001</ele><time>2026-04-06T15:08:17.641Z</time></trkpt><trkpt lat="46.0077261" lon="11.740382"><ele>928.0</ele><time>2026-04-06T15:08:18.641Z</time></trkpt><trkpt lat="46.0076753" lon="11.7404764"><ele>930.5</ele><time>2026-04-06T15:08:19.641Z</time></trkpt><trkpt lat="46.0076257" lon="11.7405706"><ele>933.0</ele><time>2026-04-06T15:08:20.642Z</time></trkpt><trkpt lat="46.0075818" lon="11.7406702"><ele>935.5000000000001</ele><time>2026-04-06T15:08:21.641Z</time></trkpt><trkpt lat="46.0075445" lon="11.7407737"><ele>938.0</ele><time>2026-04-06T15:08:22.641Z</time></trkpt><trkpt lat="46.0075105" lon="11.7408764"><ele>927.5000000000001</ele><time>2026-04-06T15:08:23.642Z</time></trkpt><trkpt lat="46.0074848" lon="11.740979"><ele>917.0</ele><time>2026-04-06T15:08:24.641Z</time></trkpt><trkpt lat="46.0074743" lon="11.7410772"><ele>906.5</ele><time>2026-04-06T15:08:25.641Z</time></trkpt><trkpt lat="46.0074784" lon="11.7412102"><ele>896.0</ele><time>2026-04-06T15:08:27.641Z</time></trkpt><trkpt lat="46.0074043" lon="11.7411929"><ele>885.5000000000001</ele><time>2026-04-06T15:08:31.641Z</time></trkpt><trkpt lat="46.0074145" lon="11.741013"><ele>875.0</ele><time>2026-04-06T15:08:33.641Z</time></trkpt><trkpt lat="46.007435" lon="11.740927"><ele>875.0000000000001</ele><time>2026-04-06T15:08:34.642Z</time></trkpt><trkpt lat="46.0074735" lon="11.7407501"><ele>875.0</ele><time>2026-04-06T15:08:36.642Z</time></trkpt><trkpt lat="46.0074957" lon="11.7406587"><ele>875.0</ele><time>2026-04-06T15:08:37.641Z</time></trkpt><trkpt lat="46.00752" lon="11.7405633"><ele>875.0</ele><time>2026-04-06T15:08:38.641Z</time></trkpt><trkpt lat="46.0075428" lon="11.7404745"><ele>875.0000000000001</ele><time>2026-04-06T15:08:39.641Z</time></trkpt><trkpt lat="46.007573" lon="11.7403851"><ele>875.0</ele><time>2026-04-06T15:08:40.642Z</time></trkpt><trkpt lat="46.0076065" lon="11.7402887"><ele>881.8571428571429</ele><time>2026-04-06T15:08:41.641Z</time></trkpt><trkpt lat="46.0076421" lon="11.7401958"><ele>888.7142857142858</ele><time>2026-04-06T15:08:42.641Z</time></trkpt><trkpt lat="46.0076759" lon="11.7401039"><ele>895.5714285714286</ele><time>2026-04-06T15:08:43.642Z</time></trkpt><trkpt lat="46.007712" lon="11.7400061"><ele>902.4285714285714</ele><time>2026-04-06T15:08:44.641Z</time></trkpt><trkpt lat="46.0077434" lon="11.7399084"><ele>909.2857142857143</ele><time>2026-04-06T15:08:45.641Z</time></trkpt><trkpt lat="46.0077745" lon="11.7398157"><ele>916.1428571428571</ele><time>2026-04-06T15:08:46.642Z</time></trkpt><trkpt lat="46.0078019" lon="11.7397249"><ele>923.0</ele><time>2026-04-06T15:08:47.641Z</time></trkpt><trkpt lat="46.0078327" lon="11.7396281"><ele>923.0</ele><time>2026-04-06T15:08:48.641Z</time></trkpt><trkpt lat="46.0078572" lon="11.7395363"><ele>923.0</ele><time>2026-04-06T15:08:49.641Z</time></trkpt><trkpt lat="46.0078795" lon="11.7394413"><ele>923.0</ele><time>2026-04-06T15:08:50.642Z</time></trkpt><trkpt lat="46.0078996" lon="11.7393425"><ele>923.0</ele><time>2026-04-06T15:08:51.641Z</time></trkpt><trkpt lat="46.0079163" lon="11.7392462"><ele>923.0</ele><time>2026-04-06T15:08:52.642Z</time></trkpt><trkpt lat="46.0079266" lon="11.7391479"><ele>923.0</ele><time>2026-04-06T15:08:53.641Z</time></trkpt><trkpt lat="46.0079345" lon="11.7390509"><ele>923.0</ele><time>2026-04-06T15:08:54.642Z</time></trkpt><trkpt lat="46.0079463" lon="11.7389584"><ele>920.4285714285713</ele><time>2026-04-06T15:08:55.641Z</time></trkpt><trkpt lat="46.0079658" lon="11.7388529"><ele>917.8571428571429</ele><time>2026-04-06T15:08:56.642Z</time></trkpt><trkpt lat="46.0079799" lon="11.7387534"><ele>915.2857142857142</ele><time>2026-04-06T15:08:57.642Z</time></trkpt><trkpt lat="46.0079944" lon="11.738656"><ele>912.7142857142857</ele><time>2026-04-06T15:08:58.641Z</time></trkpt><trkpt lat="46.0080073" lon="11.7385582"><ele>910.1428571428571</ele><time>2026-04-06T15:08:59.641Z</time></trkpt><trkpt lat="46.0080193" lon="11.7384685"><ele>907.5714285714286</ele><time>2026-04-06T15:09:00.641Z</time></trkpt><trkpt lat="46.0080366" lon="11.7383798"><ele>905.0</ele><time>2026-04-06T15:09:01.641Z</time></trkpt><trkpt lat="46.0080618" lon="11.7382847"><ele>903.5000000000001</ele><time>2026-04-06T15:09:02.641Z</time></trkpt><trkpt lat="46.0080909" lon="11.7381965"><ele>902.0</ele><time>2026-04-06T15:09:03.643Z</time></trkpt><trkpt lat="46.0081204" lon="11.7381106"><ele>900.5</ele><time>2026-04-06T15:09:04.641Z</time></trkpt><trkpt lat="46.0081456" lon="11.738026"><ele>899.0</ele><time>2026-04-06T15:09:05.642Z</time></trkpt><trkpt lat="46.0081714" lon="11.7378464"><ele>897.5000000000001</ele><time>2026-04-06T15:09:07.642Z</time></trkpt><trkpt lat="46.008161" lon="11.7377501"><ele>896.0</ele><time>2026-04-06T15:09:08.641Z</time></trkpt><trkpt lat="46.0081419" lon="11.7376535"><ele>896.0</ele><time>2026-04-06T15:09:09.642Z</time></trkpt><trkpt lat="46.0081176" lon="11.7375565"><ele>896.0</ele><time>2026-04-06T15:09:10.642Z</time></trkpt><trkpt lat="46.0080938" lon="11.7374568"><ele>896.0</ele><time>2026-04-06T15:09:11.643Z</time></trkpt><trkpt lat="46.008075" lon="11.7373542"><ele>896.0</ele><time>2026-04-06T15:09:12.641Z</time></trkpt><trkpt lat="46.008066" lon="11.737252"><ele>896.0</ele><time>2026-04-06T15:09:13.642Z</time></trkpt><trkpt lat="46.008063" lon="11.7371473"><ele>896.0</ele><time>2026-04-06T15:09:14.642Z</time></trkpt><trkpt lat="46.0080576" lon="11.7370393"><ele>896.0</ele><time>2026-04-06T15:09:15.641Z</time></trkpt><trkpt lat="46.0080534" lon="11.7369385"><ele>897.0</ele><time>2026-04-06T15:09:16.642Z</time></trkpt><trkpt lat="46.008049" lon="11.7368412"><ele>898.0</ele><time>2026-04-06T15:09:17.642Z</time></trkpt><trkpt lat="46.008049" lon="11.736737"><ele>899.0</ele><time>2026-04-06T15:09:18.643Z</time></trkpt><trkpt lat="46.0080572" lon="11.7366379"><ele>900.0</ele><time>2026-04-06T15:09:19.642Z</time></trkpt><trkpt lat="46.0080701" lon="11.7365388"><ele>901.0</ele><time>2026-04-06T15:09:20.642Z</time></trkpt><trkpt lat="46.0080891" lon="11.7364363"><ele>902.0</ele><time>2026-04-06T15:09:21.641Z</time></trkpt><trkpt lat="46.0081162" lon="11.7363389"><ele>903.0</ele><time>2026-04-06T15:09:22.642Z</time></trkpt><trkpt lat="46.0081526" lon="11.7362478"><ele>903.0</ele><time>2026-04-06T15:09:23.641Z</time></trkpt><trkpt lat="46.0081916" lon="11.7361609"><ele>903.0</ele><time>2026-04-06T15:09:24.642Z</time></trkpt><trkpt lat="46.00822" lon="11.7360785"><ele>903.0</ele><time>2026-04-06T15:09:25.642Z</time></trkpt><trkpt lat="46.0082089" lon="11.7359041"><ele>903.0</ele><time>2026-04-06T15:09:27.642Z</time></trkpt><trkpt lat="46.0081708" lon="11.7358236"><ele>903.0</ele><time>2026-04-06T15:09:28.642Z</time></trkpt><trkpt lat="46.0081199" lon="11.7357515"><ele>903.0</ele><time>2026-04-06T15:09:29.642Z</time></trkpt><trkpt lat="46.0080685" lon="11.735686"><ele>906.5</ele><time>2026-04-06T15:09:30.642Z</time></trkpt><trkpt lat="46.0080226" lon="11.735619"><ele>910.0</ele><time>2026-04-06T15:09:31.642Z</time></trkpt><trkpt lat="46.0079805" lon="11.7355512"><ele>913.5</ele><time>2026-04-06T15:09:32.642Z</time></trkpt><trkpt lat="46.0078906" lon="11.7354524"><ele>917.0</ele><time>2026-04-06T15:09:34.643Z</time></trkpt><trkpt lat="46.0077759" lon="11.7354745"><ele>920.5</ele><time>2026-04-06T15:09:36.643Z</time></trkpt><trkpt lat="46.0077205" lon="11.7355348"><ele>924.0</ele><time>2026-04-06T15:09:37.643Z</time></trkpt><trkpt lat="46.0076807" lon="11.7356132"><ele>924.0</ele><time>2026-04-06T15:09:38.642Z</time></trkpt><trkpt lat="46.0076448" lon="11.735712"><ele>924.0</ele><time>2026-04-06T15:09:39.642Z</time></trkpt><trkpt lat="46.0076161" lon="11.735802"><ele>924.0</ele><time>2026-04-06T15:09:40.642Z</time></trkpt><trkpt lat="46.0075881" lon="11.7358881"><ele>924.0</ele><time>2026-04-06T15:09:41.643Z</time></trkpt><trkpt lat="46.0075506" lon="11.735977"><ele>924.0</ele><time>2026-04-06T15:09:42.642Z</time></trkpt><trkpt lat="46.0075036" lon="11.7360601"><ele>924.0</ele><time>2026-04-06T15:09:43.642Z</time></trkpt><trkpt lat="46.0074525" lon="11.7361398"><ele>924.0</ele><time>2026-04-06T15:09:44.642Z</time></trkpt><trkpt lat="46.0073995" lon="11.7362136"><ele>926.4285714285714</ele><time>2026-04-06T15:09:45.642Z</time></trkpt><trkpt lat="46.0073432" lon="11.7362858"><ele>928.8571428571429</ele><time>2026-04-06T15:09:46.643Z</time></trkpt><trkpt lat="46.0072949" lon="11.7363545"><ele>931.2857142857142</ele><time>2026-04-06T15:09:47.642Z</time></trkpt><trkpt lat="46.0072366" lon="11.736423"><ele>933.7142857142857</ele><time>2026-04-06T15:09:48.642Z</time></trkpt><trkpt lat="46.0071801" lon="11.7364868"><ele>936.1428571428571</ele><time>2026-04-06T15:09:49.642Z</time></trkpt><trkpt lat="46.0071253" lon="11.7365503"><ele>938.5714285714284</ele><time>2026-04-06T15:09:50.643Z</time></trkpt><trkpt lat="46.0070765" lon="11.7366145"><ele>940.9999999999999</ele><time>2026-04-06T15:09:51.642Z</time></trkpt><trkpt lat="46.0070387" lon="11.7366943"><ele>940.9999999999999</ele><time>2026-04-06T15:09:52.642Z</time></trkpt><trkpt lat="46.0070104" lon="11.7367859"><ele>941.0</ele><time>2026-04-06T15:09:53.642Z</time></trkpt><trkpt lat="46.0069849" lon="11.7368755"><ele>940.9999999999999</ele><time>2026-04-06T15:09:54.643Z</time></trkpt><trkpt lat="46.0069556" lon="11.7369656"><ele>940.9999999999999</ele><time>2026-04-06T15:09:55.642Z</time></trkpt><trkpt lat="46.006923" lon="11.737051"><ele>941.0</ele><time>2026-04-06T15:09:56.642Z</time></trkpt><trkpt lat="46.0068842" lon="11.7371341"><ele>940.9999999999999</ele><time>2026-04-06T15:09:57.642Z</time></trkpt><trkpt lat="46.0068416" lon="11.7372167"><ele>940.9999999999999</ele><time>2026-04-06T15:09:58.642Z</time></trkpt><trkpt lat="46.0067971" lon="11.7373013"><ele>942.9999999999999</ele><time>2026-04-06T15:09:59.642Z</time></trkpt><trkpt lat="46.0067579" lon="11.7373849"><ele>945.0</ele><time>2026-04-06T15:10:00.643Z</time></trkpt><trkpt lat="46.0067208" lon="11.737473"><ele>946.9999999999999</ele><time>2026-04-06T15:10:01.642Z</time></trkpt><trkpt lat="46.0066751" lon="11.7375586"><ele>948.9999999999999</ele><time>2026-04-06T15:10:02.643Z</time></trkpt><trkpt lat="46.006632" lon="11.737639"><ele>951.0</ele><time>2026-04-06T15:10:03.642Z</time></trkpt><trkpt lat="46.0065854" lon="11.7377207"><ele>952.9999999999999</ele><time>2026-04-06T15:10:04.642Z</time></trkpt><trkpt lat="46.0065388" lon="11.7378058"><ele>954.9999999999999</ele><time>2026-04-06T15:10:05.642Z</time></trkpt><trkpt lat="46.0064904" lon="11.7378916"><ele>950.142857142857</ele><time>2026-04-06T15:10:06.642Z</time></trkpt><trkpt lat="46.0064448" lon="11.737973"><ele>945.2857142857142</ele><time>2026-04-06T15:10:07.642Z</time></trkpt><trkpt lat="46.0063988" lon="11.7380531"><ele>940.4285714285714</ele><time>2026-04-06T15:10:08.643Z</time></trkpt><trkpt lat="46.0063493" lon="11.7381364"><ele>935.5714285714286</ele><time>2026-04-06T15:10:09.643Z</time></trkpt><trkpt lat="46.0063054" lon="11.7382148"><ele>930.7142857142858</ele><time>2026-04-06T15:10:10.642Z</time></trkpt><trkpt lat="46.0062597" lon="11.73829"><ele>925.857142857143</ele><time>2026-04-06T15:10:11.643Z</time></trkpt><trkpt lat="46.006215" lon="11.738372"><ele>921.0000000000001</ele><time>2026-04-06T15:10:12.643Z</time></trkpt><trkpt lat="46.0061619" lon="11.738442"><ele>921.0</ele><time>2026-04-06T15:10:13.642Z</time></trkpt><trkpt lat="46.0060996" lon="11.7385259"><ele>921.0</ele><time>2026-04-06T15:10:14.642Z</time></trkpt><trkpt lat="46.006038" lon="11.7386056"><ele>921.0</ele><time>2026-04-06T15:10:15.644Z</time></trkpt><trkpt lat="46.0059779" lon="11.7386894"><ele>921.0</ele><time>2026-04-06T15:10:16.643Z</time></trkpt><trkpt lat="46.0059228" lon="11.7387675"><ele>921.0</ele><time>2026-04-06T15:10:17.643Z</time></trkpt><trkpt lat="46.0058704" lon="11.7388443"><ele>921.0</ele><time>2026-04-06T15:10:18.643Z</time></trkpt><trkpt lat="46.0058175" lon="11.7389269"><ele>922.6666666666666</ele><time>2026-04-06T15:10:19.643Z</time></trkpt><trkpt lat="46.0057636" lon="11.739001"><ele>924.3333333333333</ele><time>2026-04-06T15:10:20.643Z</time></trkpt><trkpt lat="46.0057051" lon="11.73908"><ele>926.0</ele><time>2026-04-06T15:10:21.643Z</time></trkpt><trkpt lat="46.0056552" lon="11.7391605"><ele>927.6666666666666</ele><time>2026-04-06T15:10:22.643Z</time></trkpt><trkpt lat="46.0056019" lon="11.7392449"><ele>929.3333333333333</ele><time>2026-04-06T15:10:23.644Z</time></trkpt><trkpt lat="46.0055449" lon="11.7393304"><ele>931.0</ele><time>2026-04-06T15:10:24.643Z</time></trkpt><trkpt lat="46.0054869" lon="11.7394079"><ele>923.9999999999999</ele><time>2026-04-06T15:10:25.643Z</time></trkpt><trkpt lat="46.0054287" lon="11.7394805"><ele>917.0</ele><time>2026-04-06T15:10:26.643Z</time></trkpt><trkpt lat="46.0053658" lon="11.7395549"><ele>910.0</ele><time>2026-04-06T15:10:27.643Z</time></trkpt><trkpt lat="46.0053046" lon="11.739628"><ele>903.0</ele><time>2026-04-06T15:10:28.643Z</time></trkpt><trkpt lat="46.0052421" lon="11.7397055"><ele>895.9999999999999</ele><time>2026-04-06T15:10:29.643Z</time></trkpt><trkpt lat="46.0051791" lon="11.7397779"><ele>889.0</ele><time>2026-04-06T15:10:30.643Z</time></trkpt><trkpt lat="46.0051133" lon="11.7398494"><ele>888.9999999999999</ele><time>2026-04-06T15:10:31.643Z</time></trkpt><trkpt lat="46.0050481" lon="11.7399228"><ele>889.0</ele><time>2026-04-06T15:10:32.643Z</time></trkpt><trkpt lat="46.0049825" lon="11.7399904"><ele>889.0</ele><time>2026-04-06T15:10:33.642Z</time></trkpt><trkpt lat="46.0049142" lon="11.7400665"><ele>889.0</ele><time>2026-04-06T15:10:34.643Z</time></trkpt><trkpt lat="46.0048528" lon="11.7401462"><ele>888.9999999999999</ele><time>2026-04-06T15:10:35.644Z</time></trkpt><trkpt lat="46.0047902" lon="11.7402328"><ele>889.0</ele><time>2026-04-06T15:10:36.643Z</time></trkpt><trkpt lat="46.0047329" lon="11.7403217"><ele>890.6666666666666</ele><time>2026-04-06T15:10:37.643Z</time></trkpt><trkpt lat="46.0046795" lon="11.7404047"><ele>892.3333333333333</ele><time>2026-04-06T15:10:38.643Z</time></trkpt><trkpt lat="46.0046284" lon="11.7404911"><ele>894.0</ele><time>2026-04-06T15:10:39.643Z</time></trkpt><trkpt lat="46.0045786" lon="11.7405735"><ele>895.6666666666667</ele><time>2026-04-06T15:10:40.644Z</time></trkpt><trkpt lat="46.0045304" lon="11.7406526"><ele>897.3333333333334</ele><time>2026-04-06T15:10:41.644Z</time></trkpt><trkpt lat="46.0044786" lon="11.7407328"><ele>899.0</ele><time>2026-04-06T15:10:42.643Z</time></trkpt><trkpt lat="46.0044299" lon="11.740812"><ele>899.0000000000001</ele><time>2026-04-06T15:10:43.643Z</time></trkpt><trkpt lat="46.0043794" lon="11.7409061"><ele>899.0</ele><time>2026-04-06T15:10:44.643Z</time></trkpt><trkpt lat="46.004328" lon="11.7410035"><ele>899.0</ele><time>2026-04-06T15:10:45.643Z</time></trkpt><trkpt lat="46.0042843" lon="11.7410865"><ele>899.0</ele><time>2026-04-06T15:10:46.643Z</time></trkpt><trkpt lat="46.0042339" lon="11.7411931"><ele>899.0000000000001</ele><time>2026-04-06T15:10:47.643Z</time></trkpt><trkpt lat="46.0041822" lon="11.7412996"><ele>899.0</ele><time>2026-04-06T15:10:48.643Z</time></trkpt><trkpt lat="46.0041355" lon="11.7413971"><ele>892.5000000000001</ele><time>2026-04-06T15:10:49.643Z</time></trkpt><trkpt lat="46.0040904" lon="11.7414983"><ele>886.0</ele><time>2026-04-06T15:10:50.643Z</time></trkpt><trkpt lat="46.0040486" lon="11.7415964"><ele>879.5</ele><time>2026-04-06T15:10:51.643Z</time></trkpt><trkpt lat="46.0040004" lon="11.7416936"><ele>873.0</ele><time>2026-04-06T15:10:52.644Z</time></trkpt><trkpt lat="46.0039602" lon="11.7417781"><ele>866.5000000000001</ele><time>2026-04-06T15:10:53.644Z</time></trkpt><trkpt lat="46.0038997" lon="11.7418939"><ele>860.0</ele><time>2026-04-06T15:10:55.643Z</time></trkpt><trkpt lat="46.0039693" lon="11.7419503"><ele>860.0</ele><time>2026-04-06T15:10:59.643Z</time></trkpt><trkpt lat="46.0040472" lon="11.7418276"><ele>860.0</ele><time>2026-04-06T15:11:01.643Z</time></trkpt><trkpt lat="46.004117" lon="11.7416822"><ele>860.0</ele><time>2026-04-06T15:11:03.643Z</time></trkpt><trkpt lat="46.004197" lon="11.7415507"><ele>860.0</ele><time>2026-04-06T15:11:05.643Z</time></trkpt><trkpt lat="46.0042797" lon="11.7414257"><ele>860.7142857142857</ele><time>2026-04-06T15:11:07.643Z</time></trkpt><trkpt lat="46.0043264" lon="11.7413635"><ele>861.4285714285714</ele><time>2026-04-06T15:11:08.644Z</time></trkpt><trkpt lat="46.0043776" lon="11.7413002"><ele>862.1428571428571</ele><time>2026-04-06T15:11:09.643Z</time></trkpt><trkpt lat="46.0044351" lon="11.7412394"><ele>862.8571428571429</ele><time>2026-04-06T15:11:10.644Z</time></trkpt><trkpt lat="46.0044967" lon="11.7411793"><ele>863.5714285714287</ele><time>2026-04-06T15:11:11.644Z</time></trkpt><trkpt lat="46.0045594" lon="11.7411203"><ele>864.2857142857143</ele><time>2026-04-06T15:11:12.644Z</time></trkpt><trkpt lat="46.0046228" lon="11.7410609"><ele>865.0</ele><time>2026-04-06T15:11:13.643Z</time></trkpt><trkpt lat="46.0046862" lon="11.7410088"><ele>862.1666666666666</ele><time>2026-04-06T15:11:14.643Z</time></trkpt><trkpt lat="46.0047491" lon="11.740961"><ele>859.3333333333333</ele><time>2026-04-06T15:11:15.644Z</time></trkpt><trkpt lat="46.0048162" lon="11.7408876"><ele>856.5</ele><time>2026-04-06T15:11:16.643Z</time></trkpt><trkpt lat="46.0048743" lon="11.7408242"><ele>853.6666666666667</ele><time>2026-04-06T15:11:17.643Z</time></trkpt><trkpt lat="46.0049339" lon="11.7407458"><ele>850.8333333333334</ele><time>2026-04-06T15:11:18.643Z</time></trkpt><trkpt lat="46.0049945" lon="11.7406719"><ele>848.0</ele><time>2026-04-06T15:11:19.643Z</time></trkpt><trkpt lat="46.0050597" lon="11.7405983"><ele>848.0000000000001</ele><time>2026-04-06T15:11:20.643Z</time></trkpt><trkpt lat="46.0051267" lon="11.7405373"><ele>848.0</ele><time>2026-04-06T15:11:21.643Z</time></trkpt><trkpt lat="46.0051958" lon="11.7404831"><ele>848.0</ele><time>2026-04-06T15:11:22.644Z</time></trkpt><trkpt lat="46.0052631" lon="11.740431"><ele>848.0</ele><time>2026-04-06T15:11:23.643Z</time></trkpt><trkpt lat="46.0053342" lon="11.7403769"><ele>848.0000000000001</ele><time>2026-04-06T15:11:24.644Z</time></trkpt><trkpt lat="46.0054073" lon="11.7403255"><ele>848.0</ele><time>2026-04-06T15:11:25.644Z</time></trkpt><trkpt lat="46.0054792" lon="11.7402777"><ele>848.0</ele><time>2026-04-06T15:11:26.644Z</time></trkpt><trkpt lat="46.0055489" lon="11.7402342"><ele>848.0</ele><time>2026-04-06T15:11:27.645Z</time></trkpt><trkpt lat="46.0056177" lon="11.7401925"><ele>848.0</ele><time>2026-04-06T15:11:28.643Z</time></trkpt><trkpt lat="46.0056835" lon="11.7401569"><ele>848.0</ele><time>2026-04-06T15:11:29.643Z</time></trkpt><trkpt lat="46.0057502" lon="11.7401229"><ele>848.0</ele><time>2026-04-06T15:11:30.644Z</time></trkpt><trkpt lat="46.0058148" lon="11.7400882"><ele>848.0</ele><time>2026-04-06T15:11:31.644Z</time></trkpt><trkpt lat="46.0058764" lon="11.7400559"><ele>848.0</ele><time>2026-04-06T15:11:32.645Z</time></trkpt><trkpt lat="46.0059413" lon="11.7400265"><ele>848.6666666666667</ele><time>2026-04-06T15:11:33.644Z</time></trkpt><trkpt lat="46.0060513" lon="11.7400776"><ele>849.3333333333334</ele><time>2026-04-06T15:11:35.644Z</time></trkpt><trkpt lat="46.0061251" lon="11.7402059"><ele>850.0</ele><time>2026-04-06T15:11:37.644Z</time></trkpt><trkpt lat="46.0061339" lon="11.7403042"><ele>850.6666666666667</ele><time>2026-04-06T15:11:38.644Z</time></trkpt><trkpt lat="46.0061225" lon="11.7403961"><ele>851.3333333333334</ele><time>2026-04-06T15:11:39.643Z</time></trkpt><trkpt lat="46.0061028" lon="11.740488"><ele>852.0</ele><time>2026-04-06T15:11:40.644Z</time></trkpt><trkpt lat="46.006081" lon="11.7405809"><ele>849.0</ele><time>2026-04-06T15:11:41.644Z</time></trkpt><trkpt lat="46.0060575" lon="11.7406826"><ele>846.0</ele><time>2026-04-06T15:11:42.644Z</time></trkpt><trkpt lat="46.0060312" lon="11.7407907"><ele>843.0</ele><time>2026-04-06T15:11:43.644Z</time></trkpt><trkpt lat="46.0060136" lon="11.740906"><ele>840.0</ele><time>2026-04-06T15:11:44.644Z</time></trkpt><trkpt lat="46.0059993" lon="11.741021"><ele>837.0</ele><time>2026-04-06T15:11:45.644Z</time></trkpt><trkpt lat="46.0059856" lon="11.7411461"><ele>834.0</ele><time>2026-04-06T15:11:46.644Z</time></trkpt><trkpt lat="46.0059733" lon="11.7412703"><ele>832.4000000000001</ele><time>2026-04-06T15:11:47.644Z</time></trkpt><trkpt lat="46.0059604" lon="11.7413989"><ele>830.8</ele><time>2026-04-06T15:11:48.644Z</time></trkpt><trkpt lat="46.0059451" lon="11.7415511"><ele>829.2</ele><time>2026-04-06T15:11:49.644Z</time></trkpt><trkpt lat="46.0059302" lon="11.7416922"><ele>827.5999999999999</ele><time>2026-04-06T15:11:50.644Z</time></trkpt><trkpt lat="46.0059138" lon="11.7418405"><ele>826.0</ele><time>2026-04-06T15:11:51.644Z</time></trkpt><trkpt lat="46.0059085" lon="11.741975"><ele>823.3333333333333</ele><time>2026-04-06T15:11:52.644Z</time></trkpt><trkpt lat="46.0058969" lon="11.7420925"><ele>820.6666666666666</ele><time>2026-04-06T15:11:53.644Z</time></trkpt><trkpt lat="46.0058896" lon="11.7422043"><ele>818.0</ele><time>2026-04-06T15:11:54.644Z</time></trkpt><trkpt lat="46.0059032" lon="11.7423113"><ele>815.3333333333333</ele><time>2026-04-06T15:11:55.644Z</time></trkpt><trkpt lat="46.0059343" lon="11.7424022"><ele>812.6666666666666</ele><time>2026-04-06T15:11:56.644Z</time></trkpt><trkpt lat="46.0059892" lon="11.7424809"><ele>810.0</ele><time>2026-04-06T15:11:57.644Z</time></trkpt><trkpt lat="46.0060523" lon="11.7425498"><ele>810.0</ele><time>2026-04-06T15:11:58.644Z</time></trkpt><trkpt lat="46.0061117" lon="11.7426155"><ele>810.0</ele><time>2026-04-06T15:11:59.644Z</time></trkpt><trkpt lat="46.0061703" lon="11.742681"><ele>810.0</ele><time>2026-04-06T15:12:00.645Z</time></trkpt><trkpt lat="46.0062275" lon="11.742748"><ele>810.0</ele><time>2026-04-06T15:12:01.645Z</time></trkpt><trkpt lat="46.0062891" lon="11.7428211"><ele>810.0</ele><time>2026-04-06T15:12:02.644Z</time></trkpt><trkpt lat="46.00635" lon="11.7428985"><ele>810.0</ele><time>2026-04-06T15:12:03.644Z</time></trkpt><trkpt lat="46.0064121" lon="11.7429792"><ele>811.0</ele><time>2026-04-06T15:12:04.645Z</time></trkpt><trkpt lat="46.0064738" lon="11.7430536"><ele>812.0</ele><time>2026-04-06T15:12:05.644Z</time></trkpt><trkpt lat="46.0065371" lon="11.7431272"><ele>813.0</ele><time>2026-04-06T15:12:06.644Z</time></trkpt><trkpt lat="46.006601" lon="11.7432034"><ele>814.0</ele><time>2026-04-06T15:12:07.644Z</time></trkpt><trkpt lat="46.0066613" lon="11.7432792"><ele>815.0</ele><time>2026-04-06T15:12:08.644Z</time></trkpt><trkpt lat="46.0067187" lon="11.7433655"><ele>816.0</ele><time>2026-04-06T15:12:09.644Z</time></trkpt><trkpt lat="46.0067733" lon="11.7434594"><ele>812.5</ele><time>2026-04-06T15:12:10.645Z</time></trkpt><trkpt lat="46.0068255" lon="11.7435526"><ele>809.0</ele><time>2026-04-06T15:12:11.644Z</time></trkpt><trkpt lat="46.0068851" lon="11.7436406"><ele>805.5</ele><time>2026-04-06T15:12:12.644Z</time></trkpt><trkpt lat="46.0069456" lon="11.7437247"><ele>802.0</ele><time>2026-04-06T15:12:13.644Z</time></trkpt><trkpt lat="46.0070055" lon="11.7438055"><ele>798.5</ele><time>2026-04-06T15:12:14.644Z</time></trkpt><trkpt lat="46.0070659" lon="11.7438773"><ele>795.0</ele><time>2026-04-06T15:12:15.644Z</time></trkpt><trkpt lat="46.0071209" lon="11.7439516"><ele>795.0</ele><time>2026-04-06T15:12:16.644Z</time></trkpt><trkpt lat="46.0071637" lon="11.7440402"><ele>795.0</ele><time>2026-04-06T15:12:17.645Z</time></trkpt><trkpt lat="46.0071855" lon="11.7441452"><ele>795.0</ele><time>2026-04-06T15:12:18.644Z</time></trkpt><trkpt lat="46.0071809" lon="11.7442624"><ele>795.0</ele><time>2026-04-06T15:12:19.644Z</time></trkpt><trkpt lat="46.0071584" lon="11.7443855"><ele>795.0</ele><time>2026-04-06T15:12:20.644Z</time></trkpt><trkpt lat="46.0071268" lon="11.7445077"><ele>795.0</ele><time>2026-04-06T15:12:21.644Z</time></trkpt><trkpt lat="46.0071017" lon="11.7446198"><ele>796.4</ele><time>2026-04-06T15:12:22.645Z</time></trkpt><trkpt lat="46.0070799" lon="11.7447103"><ele>797.8</ele><time>2026-04-06T15:12:23.644Z</time></trkpt><trkpt lat="46.0070248" lon="11.744816"><ele>799.2</ele><time>2026-04-06T15:12:25.645Z</time></trkpt><trkpt lat="46.0069332" lon="11.7447636"><ele>800.6</ele><time>2026-04-06T15:12:27.644Z</time></trkpt><trkpt lat="46.0068993" lon="11.744668"><ele>802.0</ele><time>2026-04-06T15:12:28.644Z</time></trkpt><trkpt lat="46.006915" lon="11.7444889"><ele>800.8333333333333</ele><time>2026-04-06T15:12:30.645Z</time></trkpt><trkpt lat="46.0069368" lon="11.7443193"><ele>799.6666666666666</ele><time>2026-04-06T15:12:32.644Z</time></trkpt><trkpt lat="46.0069276" lon="11.7442286"><ele>798.5</ele><time>2026-04-06T15:12:33.645Z</time></trkpt><trkpt lat="46.0069001" lon="11.7441392"><ele>797.3333333333333</ele><time>2026-04-06T15:12:34.645Z</time></trkpt><trkpt lat="46.0068597" lon="11.7440575"><ele>796.1666666666666</ele><time>2026-04-06T15:12:35.644Z</time></trkpt><trkpt lat="46.0068082" lon="11.7439935"><ele>795.0</ele><time>2026-04-06T15:12:36.646Z</time></trkpt><trkpt lat="46.0067483" lon="11.7439357"><ele>795.0</ele><time>2026-04-06T15:12:37.645Z</time></trkpt><trkpt lat="46.0066849" lon="11.7438844"><ele>795.0</ele><time>2026-04-06T15:12:38.645Z</time></trkpt><trkpt lat="46.0066205" lon="11.7438323"><ele>795.0</ele><time>2026-04-06T15:12:39.645Z</time></trkpt><trkpt lat="46.0065601" lon="11.7437799"><ele>795.0</ele><time>2026-04-06T15:12:40.645Z</time></trkpt><trkpt lat="46.006503" lon="11.7437215"><ele>795.0</ele><time>2026-04-06T15:12:41.644Z</time></trkpt><trkpt lat="46.0064468" lon="11.7436524"><ele>795.0</ele><time>2026-04-06T15:12:42.645Z</time></trkpt><trkpt lat="46.0063882" lon="11.7435766"><ele>795.0</ele><time>2026-04-06T15:12:43.644Z</time></trkpt><trkpt lat="46.0063311" lon="11.7435008"><ele>793.5</ele><time>2026-04-06T15:12:44.644Z</time></trkpt><trkpt lat="46.0062715" lon="11.7434291"><ele>792.0</ele><time>2026-04-06T15:12:45.646Z</time></trkpt><trkpt lat="46.0062113" lon="11.7433718"><ele>790.5</ele><time>2026-04-06T15:12:46.645Z</time></trkpt><trkpt lat="46.0061443" lon="11.7433143"><ele>789.0</ele><time>2026-04-06T15:12:47.645Z</time></trkpt><trkpt lat="46.0060733" lon="11.743253"><ele>787.5</ele><time>2026-04-06T15:12:48.645Z</time></trkpt><trkpt lat="46.0060028" lon="11.7431917"><ele>786.0</ele><time>2026-04-06T15:12:49.646Z</time></trkpt><trkpt lat="46.0059328" lon="11.7431332"><ele>786.0</ele><time>2026-04-06T15:12:50.646Z</time></trkpt><trkpt lat="46.0058608" lon="11.7430722"><ele>786.0</ele><time>2026-04-06T15:12:51.644Z</time></trkpt><trkpt lat="46.0057869" lon="11.7430125"><ele>786.0</ele><time>2026-04-06T15:12:52.645Z</time></trkpt><trkpt lat="46.0057089" lon="11.7429634"><ele>786.0</ele><time>2026-04-06T15:12:53.645Z</time></trkpt><trkpt lat="46.0056244" lon="11.7429226"><ele>786.0</ele><time>2026-04-06T15:12:54.645Z</time></trkpt><trkpt lat="46.005542" lon="11.7428935"><ele>786.0</ele><time>2026-04-06T15:12:55.645Z</time></trkpt><trkpt lat="46.0054513" lon="11.742888"><ele>787.1666666666666</ele><time>2026-04-06T15:12:56.645Z</time></trkpt><trkpt lat="46.0053603" lon="11.7428715"><ele>788.3333333333333</ele><time>2026-04-06T15:12:57.646Z</time></trkpt><trkpt lat="46.0052704" lon="11.7428452"><ele>789.5</ele><time>2026-04-06T15:12:58.645Z</time></trkpt><trkpt lat="46.005183" lon="11.7428113"><ele>790.6666666666666</ele><time>2026-04-06T15:12:59.645Z</time></trkpt><trkpt lat="46.0050963" lon="11.74279"><ele>791.8333333333333</ele><time>2026-04-06T15:13:00.645Z</time></trkpt><trkpt lat="46.0050113" lon="11.7427891"><ele>793.0</ele><time>2026-04-06T15:13:01.645Z</time></trkpt><trkpt lat="46.004928" lon="11.7428056"><ele>792.9999999999999</ele><time>2026-04-06T15:13:02.645Z</time></trkpt><trkpt lat="46.0048463" lon="11.7428432"><ele>793.0</ele><time>2026-04-06T15:13:03.645Z</time></trkpt><trkpt lat="46.0047804" lon="11.7428932"><ele>793.0</ele><time>2026-04-06T15:13:04.646Z</time></trkpt><trkpt lat="46.0047189" lon="11.7429677"><ele>793.0</ele><time>2026-04-06T15:13:05.645Z</time></trkpt><trkpt lat="46.0046722" lon="11.7430636"><ele>792.9999999999999</ele><time>2026-04-06T15:13:06.645Z</time></trkpt><trkpt lat="46.0046365" lon="11.7431658"><ele>793.0</ele><time>2026-04-06T15:13:07.646Z</time></trkpt><trkpt lat="46.0046137" lon="11.7432678"><ele>792.9999999999999</ele><time>2026-04-06T15:13:08.645Z</time></trkpt><trkpt lat="46.0045924" lon="11.7433854"><ele>793.0</ele><time>2026-04-06T15:13:09.645Z</time></trkpt><trkpt lat="46.0045662" lon="11.7434941"><ele>793.0</ele><time>2026-04-06T15:13:10.645Z</time></trkpt><trkpt lat="46.0045337" lon="11.7435992"><ele>793.0</ele><time>2026-04-06T15:13:11.645Z</time></trkpt><trkpt lat="46.0044842" lon="11.7436893"><ele>792.9999999999999</ele><time>2026-04-06T15:13:12.646Z</time></trkpt><trkpt lat="46.0044254" lon="11.7437666"><ele>793.0</ele><time>2026-04-06T15:13:13.645Z</time></trkpt><trkpt lat="46.0043624" lon="11.743833"><ele>785.8333333333333</ele><time>2026-04-06T15:13:14.645Z</time></trkpt><trkpt lat="46.0042947" lon="11.7438829"><ele>778.6666666666666</ele><time>2026-04-06T15:13:15.646Z</time></trkpt><trkpt lat="46.0042204" lon="11.7439145"><ele>771.5</ele><time>2026-04-06T15:13:16.646Z</time></trkpt><trkpt lat="46.004146" lon="11.7439263"><ele>764.3333333333333</ele><time>2026-04-06T15:13:17.645Z</time></trkpt><trkpt lat="46.0040675" lon="11.7439347"><ele>757.1666666666666</ele><time>2026-04-06T15:13:18.645Z</time></trkpt><trkpt lat="46.0039892" lon="11.743937"><ele>750.0</ele><time>2026-04-06T15:13:19.646Z</time></trkpt><trkpt lat="46.0039113" lon="11.7439351"><ele>746.8333333333334</ele><time>2026-04-06T15:13:20.645Z</time></trkpt><trkpt lat="46.0038346" lon="11.7439217"><ele>743.6666666666666</ele><time>2026-04-06T15:13:21.645Z</time></trkpt><trkpt lat="46.0037584" lon="11.7438959"><ele>740.5</ele><time>2026-04-06T15:13:22.645Z</time></trkpt><trkpt lat="46.003681" lon="11.7438571"><ele>737.3333333333333</ele><time>2026-04-06T15:13:23.645Z</time></trkpt><trkpt lat="46.0036058" lon="11.743816"><ele>734.1666666666666</ele><time>2026-04-06T15:13:24.645Z</time></trkpt><trkpt lat="46.003531" lon="11.7437684"><ele>731.0</ele><time>2026-04-06T15:13:25.645Z</time></trkpt><trkpt lat="46.0034618" lon="11.7437082"><ele>731.0</ele><time>2026-04-06T15:13:26.645Z</time></trkpt><trkpt lat="46.0034013" lon="11.743633"><ele>731.0</ele><time>2026-04-06T15:13:27.645Z</time></trkpt><trkpt lat="46.0033386" lon="11.7435539"><ele>731.0</ele><time>2026-04-06T15:13:28.645Z</time></trkpt><trkpt lat="46.0032755" lon="11.7434733"><ele>731.0</ele><time>2026-04-06T15:13:29.645Z</time></trkpt><trkpt lat="46.0032102" lon="11.7433945"><ele>731.0</ele><time>2026-04-06T15:13:30.645Z</time></trkpt><trkpt lat="46.0031411" lon="11.7433275"><ele>731.0</ele><time>2026-04-06T15:13:31.645Z</time></trkpt><trkpt lat="46.0030695" lon="11.7432751"><ele>734.1666666666666</ele><time>2026-04-06T15:13:32.646Z</time></trkpt><trkpt lat="46.0029943" lon="11.7432347"><ele>737.3333333333333</ele><time>2026-04-06T15:13:33.645Z</time></trkpt><trkpt lat="46.002913" lon="11.7432053"><ele>740.5</ele><time>2026-04-06T15:13:34.647Z</time></trkpt><trkpt lat="46.0028244" lon="11.7431793"><ele>743.6666666666666</ele><time>2026-04-06T15:13:35.645Z</time></trkpt><trkpt lat="46.0027325" lon="11.7431562"><ele>746.8333333333334</ele><time>2026-04-06T15:13:36.645Z</time></trkpt><trkpt lat="46.0026467" lon="11.7431367"><ele>750.0</ele><time>2026-04-06T15:13:37.645Z</time></trkpt><trkpt lat="46.0025637" lon="11.7431122"><ele>744.2</ele><time>2026-04-06T15:13:38.645Z</time></trkpt><trkpt lat="46.0024658" lon="11.7430892"><ele>738.4</ele><time>2026-04-06T15:13:39.646Z</time></trkpt><trkpt lat="46.0023801" lon="11.7430673"><ele>732.5999999999999</ele><time>2026-04-06T15:13:40.645Z</time></trkpt><trkpt lat="46.0022916" lon="11.7430358"><ele>726.8</ele><time>2026-04-06T15:13:41.646Z</time></trkpt><trkpt lat="46.0022084" lon="11.7429846"><ele>721.0</ele><time>2026-04-06T15:13:42.646Z</time></trkpt><trkpt lat="46.0021212" lon="11.7429409"><ele>721.0</ele><time>2026-04-06T15:13:43.645Z</time></trkpt><trkpt lat="46.0020352" lon="11.7429022"><ele>721.0</ele><time>2026-04-06T15:13:44.646Z</time></trkpt><trkpt lat="46.0019475" lon="11.7428713"><ele>721.0</ele><time>2026-04-06T15:13:45.646Z</time></trkpt><trkpt lat="46.0018636" lon="11.7428421"><ele>721.0</ele><time>2026-04-06T15:13:46.646Z</time></trkpt><trkpt lat="46.0017813" lon="11.7428111"><ele>721.0</ele><time>2026-04-06T15:13:47.646Z</time></trkpt><trkpt lat="46.0017032" lon="11.742774"><ele>721.0</ele><time>2026-04-06T15:13:48.646Z</time></trkpt><trkpt lat="46.0016269" lon="11.7427357"><ele>723.4285714285714</ele><time>2026-04-06T15:13:49.645Z</time></trkpt><trkpt lat="46.0015527" lon="11.7427048"><ele>725.8571428571429</ele><time>2026-04-06T15:13:50.646Z</time></trkpt><trkpt lat="46.0014791" lon="11.7426726"><ele>728.2857142857142</ele><time>2026-04-06T15:13:51.646Z</time></trkpt><trkpt lat="46.0014093" lon="11.7426375"><ele>730.7142857142858</ele><time>2026-04-06T15:13:52.646Z</time></trkpt><trkpt lat="46.0013397" lon="11.7425964"><ele>733.1428571428571</ele><time>2026-04-06T15:13:53.646Z</time></trkpt><trkpt lat="46.0012737" lon="11.7425514"><ele>735.5714285714286</ele><time>2026-04-06T15:13:54.645Z</time></trkpt><trkpt lat="46.0012086" lon="11.7425115"><ele>738.0</ele><time>2026-04-06T15:13:55.646Z</time></trkpt><trkpt lat="46.0011421" lon="11.7424705"><ele>738.0</ele><time>2026-04-06T15:13:56.645Z</time></trkpt><trkpt lat="46.0010749" lon="11.7424233"><ele>738.0</ele><time>2026-04-06T15:13:57.646Z</time></trkpt><trkpt lat="46.0010104" lon="11.7423715"><ele>738.0</ele><time>2026-04-06T15:13:58.646Z</time></trkpt><trkpt lat="46.0009462" lon="11.7423092"><ele>738.0</ele><time>2026-04-06T15:13:59.645Z</time></trkpt><trkpt lat="46.0008856" lon="11.7422423"><ele>738.0</ele><time>2026-04-06T15:14:00.646Z</time></trkpt><trkpt lat="46.0008279" lon="11.7421691"><ele>738.0</ele><time>2026-04-06T15:14:01.645Z</time></trkpt><trkpt lat="46.0007755" lon="11.7420919"><ele>738.6666666666666</ele><time>2026-04-06T15:14:02.646Z</time></trkpt><trkpt lat="46.0007201" lon="11.7420158"><ele>739.3333333333334</ele><time>2026-04-06T15:14:03.646Z</time></trkpt><trkpt lat="46.0006601" lon="11.741948"><ele>740.0</ele><time>2026-04-06T15:14:04.646Z</time></trkpt><trkpt lat="46.000593" lon="11.741891"><ele>740.6666666666667</ele><time>2026-04-06T15:14:05.646Z</time></trkpt><trkpt lat="46.0005212" lon="11.7418467"><ele>741.3333333333334</ele><time>2026-04-06T15:14:06.646Z</time></trkpt><trkpt lat="46.0004505" lon="11.7418119"><ele>742.0</ele><time>2026-04-06T15:14:07.646Z</time></trkpt><trkpt lat="46.0003801" lon="11.7417792"><ele>742.0</ele><time>2026-04-06T15:14:08.646Z</time></trkpt><trkpt lat="46.000301" lon="11.7417414"><ele>742.0</ele><time>2026-04-06T15:14:09.646Z</time></trkpt><trkpt lat="46.0002387" lon="11.7416883"><ele>742.0</ele><time>2026-04-06T15:14:10.646Z</time></trkpt><trkpt lat="46.0001866" lon="11.7416334"><ele>742.0</ele><time>2026-04-06T15:14:11.646Z</time></trkpt><trkpt lat="46.0001054" lon="11.7415736"><ele>742.0</ele><time>2026-04-06T15:14:13.646Z</time></trkpt><trkpt lat="46.0000582" lon="11.7416358"><ele>742.0</ele><time>2026-04-06T15:14:15.647Z</time></trkpt><trkpt lat="46.0000673" lon="11.7417532"><ele>742.0</ele><time>2026-04-06T15:14:17.646Z</time></trkpt><trkpt lat="46.0001715" lon="11.7418344"><ele>742.0</ele><time>2026-04-06T15:14:19.646Z</time></trkpt><trkpt lat="46.0002324" lon="11.7418805"><ele>742.0</ele><time>2026-04-06T15:14:20.646Z</time></trkpt><trkpt lat="46.0002933" lon="11.7419378"><ele>742.0</ele><time>2026-04-06T15:14:21.646Z</time></trkpt><trkpt lat="46.0003528" lon="11.7420036"><ele>742.0</ele><time>2026-04-06T15:14:22.647Z</time></trkpt><trkpt lat="46.0004105" lon="11.7420652"><ele>742.0</ele><time>2026-04-06T15:14:23.646Z</time></trkpt><trkpt lat="46.000469" lon="11.7421215"><ele>741.4285714285714</ele><time>2026-04-06T15:14:24.647Z</time></trkpt><trkpt lat="46.0005275" lon="11.7421773"><ele>740.8571428571429</ele><time>2026-04-06T15:14:25.646Z</time></trkpt><trkpt lat="46.0005831" lon="11.7422317"><ele>740.2857142857142</ele><time>2026-04-06T15:14:26.646Z</time></trkpt><trkpt lat="46.0006379" lon="11.7422952"><ele>739.7142857142858</ele><time>2026-04-06T15:14:27.647Z</time></trkpt><trkpt lat="46.0006935" lon="11.7423626"><ele>739.1428571428571</ele><time>2026-04-06T15:14:28.646Z</time></trkpt><trkpt lat="46.0007514" lon="11.7424268"><ele>738.5714285714286</ele><time>2026-04-06T15:14:29.647Z</time></trkpt><trkpt lat="46.00081" lon="11.7424945"><ele>738.0</ele><time>2026-04-06T15:14:30.646Z</time></trkpt><trkpt lat="46.0008688" lon="11.7425623"><ele>738.0</ele><time>2026-04-06T15:14:31.647Z</time></trkpt><trkpt lat="46.0009261" lon="11.7426306"><ele>738.0</ele><time>2026-04-06T15:14:32.646Z</time></trkpt><trkpt lat="46.0009846" lon="11.7427013"><ele>738.0</ele><time>2026-04-06T15:14:33.646Z</time></trkpt><trkpt lat="46.0010453" lon="11.7427754"><ele>738.0</ele><time>2026-04-06T15:14:34.646Z</time></trkpt><trkpt lat="46.0011065" lon="11.7428493"><ele>738.0</ele><time>2026-04-06T15:14:35.647Z</time></trkpt><trkpt lat="46.0011676" lon="11.7429253"><ele>738.0</ele><time>2026-04-06T15:14:36.647Z</time></trkpt><trkpt lat="46.0012306" lon="11.7430045"><ele>735.1666666666666</ele><time>2026-04-06T15:14:37.646Z</time></trkpt><trkpt lat="46.001296" lon="11.7430813"><ele>732.3333333333334</ele><time>2026-04-06T15:14:38.646Z</time></trkpt><trkpt lat="46.0013661" lon="11.7431482"><ele>729.5</ele><time>2026-04-06T15:14:39.646Z</time></trkpt><trkpt lat="46.0014392" lon="11.7432131"><ele>726.6666666666667</ele><time>2026-04-06T15:14:40.646Z</time></trkpt><trkpt lat="46.0015168" lon="11.7432713"><ele>723.8333333333334</ele><time>2026-04-06T15:14:41.647Z</time></trkpt><trkpt lat="46.0015961" lon="11.7433227"><ele>721.0</ele><time>2026-04-06T15:14:42.646Z</time></trkpt><trkpt lat="46.001679" lon="11.7433647"><ele>721.0</ele><time>2026-04-06T15:14:43.646Z</time></trkpt><trkpt lat="46.0017624" lon="11.7434119"><ele>721.0</ele><time>2026-04-06T15:14:44.647Z</time></trkpt><trkpt lat="46.0018412" lon="11.7434667"><ele>721.0</ele><time>2026-04-06T15:14:45.646Z</time></trkpt><trkpt lat="46.0019208" lon="11.7435347"><ele>721.0</ele><time>2026-04-06T15:14:46.646Z</time></trkpt><trkpt lat="46.0019954" lon="11.7436154"><ele>721.0</ele><time>2026-04-06T15:14:47.647Z</time></trkpt><trkpt lat="46.002067" lon="11.7436957"><ele>717.5</ele><time>2026-04-06T15:14:48.646Z</time></trkpt><trkpt lat="46.0021365" lon="11.7437719"><ele>714.0</ele><time>2026-04-06T15:14:49.646Z</time></trkpt><trkpt lat="46.0022071" lon="11.7438372"><ele>710.5</ele><time>2026-04-06T15:14:50.647Z</time></trkpt><trkpt lat="46.0022706" lon="11.7438773"><ele>707.0</ele><time>2026-04-06T15:14:51.648Z</time></trkpt><trkpt lat="46.0023589" lon="11.7439265"><ele>703.5</ele><time>2026-04-06T15:14:53.647Z</time></trkpt><trkpt lat="46.0023479" lon="11.7440456"><ele>700.0</ele><time>2026-04-06T15:14:56.646Z</time></trkpt><trkpt lat="46.0022437" lon="11.7440563"><ele>700.0</ele><time>2026-04-06T15:14:58.646Z</time></trkpt><trkpt lat="46.002181" lon="11.7440027"><ele>700.0</ele><time>2026-04-06T15:14:59.647Z</time></trkpt><trkpt lat="46.0021161" lon="11.743938"><ele>700.0</ele><time>2026-04-06T15:15:00.647Z</time></trkpt><trkpt lat="46.0020525" lon="11.7438781"><ele>700.0</ele><time>2026-04-06T15:15:01.646Z</time></trkpt><trkpt lat="46.0019844" lon="11.7438185"><ele>700.0</ele><time>2026-04-06T15:15:02.647Z</time></trkpt><trkpt lat="46.0019094" lon="11.7437644"><ele>700.0</ele><time>2026-04-06T15:15:03.647Z</time></trkpt><trkpt lat="46.0018313" lon="11.7437158"><ele>700.0</ele><time>2026-04-06T15:15:04.647Z</time></trkpt><trkpt lat="46.0017545" lon="11.7436778"><ele>700.0</ele><time>2026-04-06T15:15:05.647Z</time></trkpt><trkpt lat="46.0016783" lon="11.7436513"><ele>700.0</ele><time>2026-04-06T15:15:06.646Z</time></trkpt><trkpt lat="46.0015996" lon="11.7436356"><ele>700.0</ele><time>2026-04-06T15:15:07.646Z</time></trkpt><trkpt lat="46.0015206" lon="11.7436314"><ele>700.0</ele><time>2026-04-06T15:15:08.646Z</time></trkpt><trkpt lat="46.0014432" lon="11.7436272"><ele>700.0</ele><time>2026-04-06T15:15:09.647Z</time></trkpt><trkpt lat="46.0013542" lon="11.7436143"><ele>701.0</ele><time>2026-04-06T15:15:10.647Z</time></trkpt><trkpt lat="46.0012726" lon="11.743589"><ele>702.0</ele><time>2026-04-06T15:15:11.647Z</time></trkpt><trkpt lat="46.0011908" lon="11.7435587"><ele>703.0</ele><time>2026-04-06T15:15:12.647Z</time></trkpt><trkpt lat="46.0011074" lon="11.7435287"><ele>704.0</ele><time>2026-04-06T15:15:13.647Z</time></trkpt><trkpt lat="46.0010251" lon="11.7434936"><ele>705.0</ele><time>2026-04-06T15:15:14.647Z</time></trkpt><trkpt lat="46.000945" lon="11.7434481"><ele>706.0</ele><time>2026-04-06T15:15:15.647Z</time></trkpt><trkpt lat="46.000868" lon="11.7433908"><ele>702.8333333333334</ele><time>2026-04-06T15:15:16.647Z</time></trkpt><trkpt lat="46.0007954" lon="11.7433246"><ele>699.6666666666667</ele><time>2026-04-06T15:15:17.647Z</time></trkpt><trkpt lat="46.0007189" lon="11.7432568"><ele>696.5</ele><time>2026-04-06T15:15:18.647Z</time></trkpt><trkpt lat="46.0006464" lon="11.7431932"><ele>693.3333333333334</ele><time>2026-04-06T15:15:19.647Z</time></trkpt><trkpt lat="46.0005667" lon="11.743131"><ele>690.1666666666666</ele><time>2026-04-06T15:15:20.647Z</time></trkpt><trkpt lat="46.0004908" lon="11.7430858"><ele>687.0</ele><time>2026-04-06T15:15:21.647Z</time></trkpt><trkpt lat="46.0004136" lon="11.7430521"><ele>687.0</ele><time>2026-04-06T15:15:22.648Z</time></trkpt><trkpt lat="46.0003355" lon="11.7430279"><ele>687.0</ele><time>2026-04-06T15:15:23.647Z</time></trkpt><trkpt lat="46.0002591" lon="11.743012"><ele>687.0</ele><time>2026-04-06T15:15:24.647Z</time></trkpt><trkpt lat="46.000179" lon="11.7429956"><ele>687.0</ele><time>2026-04-06T15:15:25.647Z</time></trkpt><trkpt lat="46.0000976" lon="11.7429768"><ele>687.0</ele><time>2026-04-06T15:15:26.647Z</time></trkpt><trkpt lat="46.0000072" lon="11.7429506"><ele>687.0</ele><time>2026-04-06T15:15:27.647Z</time></trkpt><trkpt lat="45.9999246" lon="11.7429248"><ele>687.0</ele><time>2026-04-06T15:15:28.647Z</time></trkpt><trkpt lat="45.9998404" lon="11.7428953"><ele>687.0</ele><time>2026-04-06T15:15:29.648Z</time></trkpt><trkpt lat="45.9997572" lon="11.7428678"><ele>687.0</ele><time>2026-04-06T15:15:30.647Z</time></trkpt><trkpt lat="45.999672" lon="11.742831"><ele>687.0</ele><time>2026-04-06T15:15:31.648Z</time></trkpt><trkpt lat="45.9995882" lon="11.7427973"><ele>687.0</ele><time>2026-04-06T15:15:32.647Z</time></trkpt><trkpt lat="45.9995038" lon="11.7427617"><ele>687.0</ele><time>2026-04-06T15:15:33.648Z</time></trkpt><trkpt lat="45.9994192" lon="11.742725"><ele>686.1666666666666</ele><time>2026-04-06T15:15:34.648Z</time></trkpt><trkpt lat="45.9993355" lon="11.7426942"><ele>685.3333333333334</ele><time>2026-04-06T15:15:35.647Z</time></trkpt><trkpt lat="45.9992524" lon="11.7426769"><ele>684.5</ele><time>2026-04-06T15:15:36.648Z</time></trkpt><trkpt lat="45.9991698" lon="11.7426826"><ele>683.6666666666667</ele><time>2026-04-06T15:15:37.648Z</time></trkpt><trkpt lat="45.9990877" lon="11.7427069"><ele>682.8333333333334</ele><time>2026-04-06T15:15:38.647Z</time></trkpt><trkpt lat="45.9990046" lon="11.7427448"><ele>682.0</ele><time>2026-04-06T15:15:39.647Z</time></trkpt><trkpt lat="45.998922" lon="11.7427912"><ele>682.0</ele><time>2026-04-06T15:15:40.647Z</time></trkpt><trkpt lat="45.9988421" lon="11.7428422"><ele>682.0</ele><time>2026-04-06T15:15:41.647Z</time></trkpt><trkpt lat="45.9987671" lon="11.7429064"><ele>682.0</ele><time>2026-04-06T15:15:42.647Z</time></trkpt><trkpt lat="45.9987038" lon="11.7429857"><ele>682.0</ele><time>2026-04-06T15:15:43.647Z</time></trkpt><trkpt lat="45.9986549" lon="11.7430813"><ele>682.0</ele><time>2026-04-06T15:15:44.647Z</time></trkpt><trkpt lat="45.9986105" lon="11.7432011"><ele>682.0</ele><time>2026-04-06T15:15:45.647Z</time></trkpt><trkpt lat="45.998579" lon="11.7433231"><ele>682.0</ele><time>2026-04-06T15:15:46.647Z</time></trkpt><trkpt lat="45.998556" lon="11.7434457"><ele>682.0</ele><time>2026-04-06T15:15:47.647Z</time></trkpt><trkpt lat="45.9985367" lon="11.7435609"><ele>682.0</ele><time>2026-04-06T15:15:48.648Z</time></trkpt><trkpt lat="45.9985163" lon="11.7436727"><ele>682.0</ele><time>2026-04-06T15:15:49.648Z</time></trkpt><trkpt lat="45.9984945" lon="11.7437819"><ele>682.0</ele><time>2026-04-06T15:15:50.647Z</time></trkpt><trkpt lat="45.9984721" lon="11.7438958"><ele>682.0</ele><time>2026-04-06T15:15:51.647Z</time></trkpt><trkpt lat="45.998452" lon="11.7440086"><ele>681.6666666666667</ele><time>2026-04-06T15:15:52.648Z</time></trkpt><trkpt lat="45.998435" lon="11.7441262"><ele>681.3333333333334</ele><time>2026-04-06T15:15:53.648Z</time></trkpt><trkpt lat="45.9984174" lon="11.7442392"><ele>681.0</ele><time>2026-04-06T15:15:54.647Z</time></trkpt><trkpt lat="45.9983971" lon="11.744348"><ele>680.6666666666666</ele><time>2026-04-06T15:15:55.647Z</time></trkpt><trkpt lat="45.9983697" lon="11.744458"><ele>680.3333333333333</ele><time>2026-04-06T15:15:56.648Z</time></trkpt><trkpt lat="45.9983252" lon="11.7445579"><ele>680.0</ele><time>2026-04-06T15:15:57.647Z</time></trkpt><trkpt lat="45.9982618" lon="11.7446421"><ele>680.8333333333333</ele><time>2026-04-06T15:15:58.648Z</time></trkpt><trkpt lat="45.9981935" lon="11.7447119"><ele>681.6666666666666</ele><time>2026-04-06T15:15:59.649Z</time></trkpt><trkpt lat="45.9981158" lon="11.7447723"><ele>682.5</ele><time>2026-04-06T15:16:00.648Z</time></trkpt><trkpt lat="45.9980329" lon="11.7448178"><ele>683.3333333333334</ele><time>2026-04-06T15:16:01.648Z</time></trkpt><trkpt lat="45.9979546" lon="11.7448693"><ele>684.1666666666667</ele><time>2026-04-06T15:16:02.648Z</time></trkpt><trkpt lat="45.997882" lon="11.7449304"><ele>685.0</ele><time>2026-04-06T15:16:03.648Z</time></trkpt><trkpt lat="45.9978249" lon="11.7450056"><ele>685.0</ele><time>2026-04-06T15:16:04.648Z</time></trkpt><trkpt lat="45.997781" lon="11.7450914"><ele>685.0</ele><time>2026-04-06T15:16:05.648Z</time></trkpt><trkpt lat="45.9977537" lon="11.7451898"><ele>685.0</ele><time>2026-04-06T15:16:06.648Z</time></trkpt><trkpt lat="45.9977512" lon="11.7453153"><ele>685.0</ele><time>2026-04-06T15:16:07.647Z</time></trkpt><trkpt lat="45.9977665" lon="11.7454606"><ele>685.0</ele><time>2026-04-06T15:16:08.648Z</time></trkpt><trkpt lat="45.9977684" lon="11.7455877"><ele>685.0</ele><time>2026-04-06T15:16:09.648Z</time></trkpt><trkpt lat="45.9977488" lon="11.7457048"><ele>683.3333333333334</ele><time>2026-04-06T15:16:10.647Z</time></trkpt><trkpt lat="45.997719" lon="11.7458132"><ele>681.6666666666667</ele><time>2026-04-06T15:16:11.647Z</time></trkpt><trkpt lat="45.997681" lon="11.7459088"><ele>680.0</ele><time>2026-04-06T15:16:12.648Z</time></trkpt><trkpt lat="45.9976329" lon="11.7460079"><ele>678.3333333333334</ele><time>2026-04-06T15:16:13.648Z</time></trkpt><trkpt lat="45.9975866" lon="11.7461284"><ele>676.6666666666666</ele><time>2026-04-06T15:16:14.647Z</time></trkpt><trkpt lat="45.9975388" lon="11.7462391"><ele>675.0</ele><time>2026-04-06T15:16:15.648Z</time></trkpt><trkpt lat="45.9974908" lon="11.7463489"><ele>676.3333333333334</ele><time>2026-04-06T15:16:16.648Z</time></trkpt><trkpt lat="45.9974447" lon="11.7464517"><ele>677.6666666666666</ele><time>2026-04-06T15:16:17.648Z</time></trkpt><trkpt lat="45.9973942" lon="11.746554"><ele>679.0</ele><time>2026-04-06T15:16:18.648Z</time></trkpt><trkpt lat="45.9973428" lon="11.7466536"><ele>680.3333333333333</ele><time>2026-04-06T15:16:19.648Z</time></trkpt><trkpt lat="45.9973002" lon="11.7467488"><ele>681.6666666666666</ele><time>2026-04-06T15:16:20.648Z</time></trkpt><trkpt lat="45.9972738" lon="11.7468461"><ele>683.0</ele><time>2026-04-06T15:16:21.649Z</time></trkpt><trkpt lat="45.9972664" lon="11.7470227"><ele>683.0</ele><time>2026-04-06T15:16:23.648Z</time></trkpt><trkpt lat="45.9972265" lon="11.7471632"><ele>683.0</ele><time>2026-04-06T15:16:25.649Z</time></trkpt><trkpt lat="45.9971526" lon="11.7471808"><ele>683.0</ele><time>2026-04-06T15:16:26.649Z</time></trkpt><trkpt lat="45.9970655" lon="11.7471776"><ele>683.0</ele><time>2026-04-06T15:16:27.648Z</time></trkpt><trkpt lat="45.9969819" lon="11.7471439"><ele>683.0</ele><time>2026-04-06T15:16:28.649Z</time></trkpt><trkpt lat="45.9969073" lon="11.7470821"><ele>683.0</ele><time>2026-04-06T15:16:29.648Z</time></trkpt><trkpt lat="45.9968431" lon="11.7470232"><ele>683.0</ele><time>2026-04-06T15:16:30.648Z</time></trkpt><trkpt lat="45.9967749" lon="11.7469616"><ele>683.0</ele><time>2026-04-06T15:16:31.648Z</time></trkpt><trkpt lat="45.9966899" lon="11.7469153"><ele>683.0</ele><time>2026-04-06T15:16:32.649Z</time></trkpt><trkpt lat="45.9966043" lon="11.746907"><ele>683.0</ele><time>2026-04-06T15:16:33.648Z</time></trkpt><trkpt lat="45.9965203" lon="11.7469193"><ele>683.0</ele><time>2026-04-06T15:16:34.648Z</time></trkpt><trkpt lat="45.9964356" lon="11.7469483"><ele>683.0</ele><time>2026-04-06T15:16:35.648Z</time></trkpt><trkpt lat="45.9963585" lon="11.7469993"><ele>681.5</ele><time>2026-04-06T15:16:36.648Z</time></trkpt><trkpt lat="45.9962908" lon="11.7470581"><ele>680.0</ele><time>2026-04-06T15:16:37.648Z</time></trkpt><trkpt lat="45.9962205" lon="11.7471193"><ele>678.5</ele><time>2026-04-06T15:16:38.648Z</time></trkpt><trkpt lat="45.9961523" lon="11.7471807"><ele>677.0</ele><time>2026-04-06T15:16:39.648Z</time></trkpt><trkpt lat="45.9960925" lon="11.7472653"><ele>675.5</ele><time>2026-04-06T15:16:40.649Z</time></trkpt><trkpt lat="45.9960357" lon="11.7473553"><ele>674.0</ele><time>2026-04-06T15:16:41.648Z</time></trkpt><trkpt lat="45.9959852" lon="11.7474378"><ele>674.0</ele><time>2026-04-06T15:16:42.648Z</time></trkpt><trkpt lat="45.9959341" lon="11.7475194"><ele>674.0</ele><time>2026-04-06T15:16:43.648Z</time></trkpt><trkpt lat="45.9958808" lon="11.7476017"><ele>674.0</ele><time>2026-04-06T15:16:44.648Z</time></trkpt><trkpt lat="45.9958282" lon="11.7476832"><ele>674.0</ele><time>2026-04-06T15:16:45.649Z</time></trkpt><trkpt lat="45.9957721" lon="11.7477614"><ele>674.0</ele><time>2026-04-06T15:16:46.649Z</time></trkpt><trkpt lat="45.995717" lon="11.7478455"><ele>674.0</ele><time>2026-04-06T15:16:47.648Z</time></trkpt><trkpt lat="45.9956599" lon="11.7479269"><ele>674.0</ele><time>2026-04-06T15:16:48.648Z</time></trkpt><trkpt lat="45.9956052" lon="11.7480132"><ele>674.0</ele><time>2026-04-06T15:16:49.649Z</time></trkpt><trkpt lat="45.9955549" lon="11.748106"><ele>674.0</ele><time>2026-04-06T15:16:50.648Z</time></trkpt><trkpt lat="45.9955094" lon="11.7482042"><ele>674.0</ele><time>2026-04-06T15:16:51.648Z</time></trkpt><trkpt lat="45.9954686" lon="11.7483022"><ele>674.0</ele><time>2026-04-06T15:16:52.648Z</time></trkpt><trkpt lat="45.99543" lon="11.7483992"><ele>674.0</ele><time>2026-04-06T15:16:53.649Z</time></trkpt><trkpt lat="45.9953907" lon="11.7484941"><ele>677.0</ele><time>2026-04-06T15:16:54.649Z</time></trkpt><trkpt lat="45.9953509" lon="11.7485884"><ele>680.0</ele><time>2026-04-06T15:16:55.648Z</time></trkpt><trkpt lat="45.9953103" lon="11.748681"><ele>683.0</ele><time>2026-04-06T15:16:56.648Z</time></trkpt><trkpt lat="45.9952694" lon="11.7487719"><ele>686.0</ele><time>2026-04-06T15:16:57.649Z</time></trkpt><trkpt lat="45.9952296" lon="11.7488674"><ele>689.0</ele><time>2026-04-06T15:16:58.648Z</time></trkpt><trkpt lat="45.9951917" lon="11.7489664"><ele>692.0</ele><time>2026-04-06T15:16:59.648Z</time></trkpt><trkpt lat="45.9951545" lon="11.7490657"><ele>692.0</ele><time>2026-04-06T15:17:00.648Z</time></trkpt><trkpt lat="45.995122" lon="11.7491699"><ele>692.0</ele><time>2026-04-06T15:17:01.648Z</time></trkpt><trkpt lat="45.9950982" lon="11.749278"><ele>692.0</ele><time>2026-04-06T15:17:02.648Z</time></trkpt><trkpt lat="45.9950819" lon="11.7493891"><ele>692.0</ele><time>2026-04-06T15:17:03.649Z</time></trkpt><trkpt lat="45.9950703" lon="11.7495043"><ele>692.0</ele><time>2026-04-06T15:17:04.649Z</time></trkpt><trkpt lat="45.9950627" lon="11.7496178"><ele>692.0</ele><time>2026-04-06T15:17:05.649Z</time></trkpt><trkpt lat="45.995059" lon="11.7497276"><ele>692.7142857142857</ele><time>2026-04-06T15:17:06.649Z</time></trkpt><trkpt lat="45.9950586" lon="11.7498397"><ele>693.4285714285714</ele><time>2026-04-06T15:17:07.65Z</time></trkpt><trkpt lat="45.9950619" lon="11.7499495"><ele>694.1428571428571</ele><time>2026-04-06T15:17:08.649Z</time></trkpt><trkpt lat="45.9950662" lon="11.7500587"><ele>694.8571428571429</ele><time>2026-04-06T15:17:09.649Z</time></trkpt><trkpt lat="45.9950662" lon="11.7501628"><ele>695.5714285714286</ele><time>2026-04-06T15:17:10.648Z</time></trkpt><trkpt lat="45.9950633" lon="11.7502563"><ele>696.2857142857143</ele><time>2026-04-06T15:17:11.648Z</time></trkpt><trkpt lat="45.9950498" lon="11.7503646"><ele>697.0</ele><time>2026-04-06T15:17:12.648Z</time></trkpt><trkpt lat="45.9950248" lon="11.7504697"><ele>689.6666666666667</ele><time>2026-04-06T15:17:13.648Z</time></trkpt><trkpt lat="45.9949847" lon="11.7505731"><ele>682.3333333333334</ele><time>2026-04-06T15:17:14.649Z</time></trkpt><trkpt lat="45.9949358" lon="11.7506705"><ele>675.0</ele><time>2026-04-06T15:17:15.648Z</time></trkpt><trkpt lat="45.994878" lon="11.7507641"><ele>667.6666666666666</ele><time>2026-04-06T15:17:16.65Z</time></trkpt><trkpt lat="45.9948232" lon="11.7508582"><ele>660.3333333333333</ele><time>2026-04-06T15:17:17.649Z</time></trkpt><trkpt lat="45.9947788" lon="11.7509566"><ele>653.0</ele><time>2026-04-06T15:17:18.648Z</time></trkpt><trkpt lat="45.9947449" lon="11.7510556"><ele>653.0</ele><time>2026-04-06T15:17:19.649Z</time></trkpt><trkpt lat="45.9947177" lon="11.7511633"><ele>653.0</ele><time>2026-04-06T15:17:20.649Z</time></trkpt><trkpt lat="45.9946932" lon="11.7512743"><ele>653.0</ele><time>2026-04-06T15:17:21.648Z</time></trkpt><trkpt lat="45.9946701" lon="11.7513864"><ele>653.0</ele><time>2026-04-06T15:17:22.649Z</time></trkpt><trkpt lat="45.9946467" lon="11.7514994"><ele>653.0</ele><time>2026-04-06T15:17:23.649Z</time></trkpt><trkpt lat="45.9946242" lon="11.7516129"><ele>653.0</ele><time>2026-04-06T15:17:24.649Z</time></trkpt><trkpt lat="45.9945991" lon="11.7517238"><ele>653.0</ele><time>2026-04-06T15:17:25.65Z</time></trkpt><trkpt lat="45.9945737" lon="11.7518316"><ele>653.0</ele><time>2026-04-06T15:17:26.649Z</time></trkpt><trkpt lat="45.9945501" lon="11.7519443"><ele>653.0</ele><time>2026-04-06T15:17:27.649Z</time></trkpt><trkpt lat="45.9945266" lon="11.7520582"><ele>653.0</ele><time>2026-04-06T15:17:28.65Z</time></trkpt><trkpt lat="45.9945034" lon="11.7521693"><ele>653.0</ele><time>2026-04-06T15:17:29.649Z</time></trkpt><trkpt lat="45.9944823" lon="11.7522812"><ele>653.0</ele><time>2026-04-06T15:17:30.649Z</time></trkpt><trkpt lat="45.9944641" lon="11.7523977"><ele>653.5</ele><time>2026-04-06T15:17:31.649Z</time></trkpt><trkpt lat="45.9944491" lon="11.7525095"><ele>654.0</ele><time>2026-04-06T15:17:32.649Z</time></trkpt><trkpt lat="45.9944343" lon="11.7526178"><ele>654.5</ele><time>2026-04-06T15:17:33.649Z</time></trkpt><trkpt lat="45.9944222" lon="11.7527267"><ele>655.0</ele><time>2026-04-06T15:17:34.65Z</time></trkpt><trkpt lat="45.9944095" lon="11.7528357"><ele>655.5</ele><time>2026-04-06T15:17:35.649Z</time></trkpt><trkpt lat="45.9943985" lon="11.7529511"><ele>656.0</ele><time>2026-04-06T15:17:36.65Z</time></trkpt><trkpt lat="45.9943889" lon="11.7530647"><ele>656.1666666666666</ele><time>2026-04-06T15:17:37.649Z</time></trkpt><trkpt lat="45.9943793" lon="11.7531782"><ele>656.3333333333333</ele><time>2026-04-06T15:17:38.649Z</time></trkpt><trkpt lat="45.9943763" lon="11.7532997"><ele>656.5</ele><time>2026-04-06T15:17:39.65Z</time></trkpt><trkpt lat="45.9943769" lon="11.7534262"><ele>656.6666666666666</ele><time>2026-04-06T15:17:40.65Z</time></trkpt><trkpt lat="45.9943811" lon="11.753549"><ele>656.8333333333334</ele><time>2026-04-06T15:17:41.65Z</time></trkpt><trkpt lat="45.9943871" lon="11.7536728"><ele>657.0</ele><time>2026-04-06T15:17:42.649Z</time></trkpt><trkpt lat="45.9943932" lon="11.7538002"><ele>655.5</ele><time>2026-04-06T15:17:43.649Z</time></trkpt><trkpt lat="45.994397" lon="11.7539259"><ele>654.0</ele><time>2026-04-06T15:17:44.649Z</time></trkpt><trkpt lat="45.9943993" lon="11.7540471"><ele>652.5</ele><time>2026-04-06T15:17:45.649Z</time></trkpt><trkpt lat="45.9943993" lon="11.7541673"><ele>651.0</ele><time>2026-04-06T15:17:46.649Z</time></trkpt><trkpt lat="45.9943992" lon="11.7542864"><ele>649.5</ele><time>2026-04-06T15:17:47.65Z</time></trkpt><trkpt lat="45.994398" lon="11.7544062"><ele>648.0</ele><time>2026-04-06T15:17:48.649Z</time></trkpt><trkpt lat="45.9944016" lon="11.7545234"><ele>647.0</ele><time>2026-04-06T15:17:49.65Z</time></trkpt><trkpt lat="45.9944168" lon="11.7546388"><ele>646.0</ele><time>2026-04-06T15:17:50.649Z</time></trkpt><trkpt lat="45.9944441" lon="11.7547442"><ele>645.0</ele><time>2026-04-06T15:17:51.649Z</time></trkpt><trkpt lat="45.9944611" lon="11.7548535"><ele>644.0</ele><time>2026-04-06T15:17:52.649Z</time></trkpt><trkpt lat="45.994461" lon="11.7549735"><ele>643.0</ele><time>2026-04-06T15:17:53.649Z</time></trkpt><trkpt lat="45.9944469" lon="11.7550974"><ele>642.0</ele><time>2026-04-06T15:17:54.65Z</time></trkpt><trkpt lat="45.9944316" lon="11.7552175"><ele>642.0</ele><time>2026-04-06T15:17:55.65Z</time></trkpt><trkpt lat="45.9944232" lon="11.7553239"><ele>642.0</ele><time>2026-04-06T15:17:56.649Z</time></trkpt><trkpt lat="45.9944333" lon="11.7554205"><ele>642.0</ele><time>2026-04-06T15:17:57.65Z</time></trkpt><trkpt lat="45.9944354" lon="11.7555834"><ele>642.0</ele><time>2026-04-06T15:17:59.649Z</time></trkpt><trkpt lat="45.9943332" lon="11.7556889"><ele>642.0</ele><time>2026-04-06T15:18:01.649Z</time></trkpt><trkpt lat="45.994266" lon="11.7557276"><ele>641.9999999999999</ele><time>2026-04-06T15:18:02.649Z</time></trkpt><trkpt lat="45.9942177" lon="11.7557932"><ele>642.0</ele><time>2026-04-06T15:18:03.65Z</time></trkpt><trkpt lat="45.9941895" lon="11.7558864"><ele>642.0</ele><time>2026-04-06T15:18:04.649Z</time></trkpt><trkpt lat="45.9941739" lon="11.7559888"><ele>642.0</ele><time>2026-04-06T15:18:05.649Z</time></trkpt><trkpt lat="45.9941732" lon="11.7560992"><ele>642.0</ele><time>2026-04-06T15:18:06.649Z</time></trkpt><trkpt lat="45.9941716" lon="11.7562078"><ele>641.9999999999999</ele><time>2026-04-06T15:18:07.649Z</time></trkpt><trkpt lat="45.9941698" lon="11.7563115"><ele>642.0</ele><time>2026-04-06T15:18:08.649Z</time></trkpt><trkpt lat="45.9941622" lon="11.7564242"><ele>636.3333333333334</ele><time>2026-04-06T15:18:09.649Z</time></trkpt><trkpt lat="45.9941537" lon="11.7565374"><ele>630.6666666666666</ele><time>2026-04-06T15:18:10.651Z</time></trkpt><trkpt lat="45.9941418" lon="11.7566539"><ele>625.0</ele><time>2026-04-06T15:18:11.649Z</time></trkpt><trkpt lat="45.9941379" lon="11.7567655"><ele>619.3333333333333</ele><time>2026-04-06T15:18:12.649Z</time></trkpt><trkpt lat="45.9941338" lon="11.7568778"><ele>613.6666666666666</ele><time>2026-04-06T15:18:13.651Z</time></trkpt><trkpt lat="45.9941314" lon="11.7569885"><ele>608.0</ele><time>2026-04-06T15:18:14.651Z</time></trkpt><trkpt lat="45.9941342" lon="11.7570978"><ele>609.1666666666666</ele><time>2026-04-06T15:18:15.649Z</time></trkpt><trkpt lat="45.9941375" lon="11.757209"><ele>610.3333333333333</ele><time>2026-04-06T15:18:16.65Z</time></trkpt><trkpt lat="45.9941401" lon="11.757329"><ele>611.5</ele><time>2026-04-06T15:18:17.65Z</time></trkpt><trkpt lat="45.9941611" lon="11.7574431"><ele>612.6666666666666</ele><time>2026-04-06T15:18:18.65Z</time></trkpt><trkpt lat="45.9941924" lon="11.7575477"><ele>613.8333333333334</ele><time>2026-04-06T15:18:19.65Z</time></trkpt><trkpt lat="45.9942231" lon="11.7576486"><ele>615.0</ele><time>2026-04-06T15:18:20.649Z</time></trkpt><trkpt lat="45.9942599" lon="11.7577416"><ele>615.0</ele><time>2026-04-06T15:18:21.65Z</time></trkpt><trkpt lat="45.9942982" lon="11.7578327"><ele>615.0</ele><time>2026-04-06T15:18:22.65Z</time></trkpt><trkpt lat="45.994331" lon="11.7579242"><ele>615.0</ele><time>2026-04-06T15:18:23.649Z</time></trkpt><trkpt lat="45.9943586" lon="11.7580119"><ele>615.0</ele><time>2026-04-06T15:18:24.65Z</time></trkpt><trkpt lat="45.9944132" lon="11.7581737"><ele>615.0</ele><time>2026-04-06T15:18:26.65Z</time></trkpt><trkpt lat="45.994445" lon="11.7582556"><ele>615.0</ele><time>2026-04-06T15:18:27.65Z</time></trkpt><trkpt lat="45.994477" lon="11.7583389"><ele>615.0</ele><time>2026-04-06T15:18:28.651Z</time></trkpt><trkpt lat="45.9945115" lon="11.7584269"><ele>615.0</ele><time>2026-04-06T15:18:29.65Z</time></trkpt><trkpt lat="45.9945413" lon="11.7585135"><ele>615.0</ele><time>2026-04-06T15:18:30.65Z</time></trkpt><trkpt lat="45.9945663" lon="11.758599"><ele>615.0</ele><time>2026-04-06T15:18:31.649Z</time></trkpt><trkpt lat="45.9945899" lon="11.7586861"><ele>615.0</ele><time>2026-04-06T15:18:32.65Z</time></trkpt><trkpt lat="45.9946108" lon="11.7587811"><ele>615.0</ele><time>2026-04-06T15:18:33.65Z</time></trkpt><trkpt lat="45.9946236" lon="11.7588818"><ele>615.0</ele><time>2026-04-06T15:18:34.65Z</time></trkpt><trkpt lat="45.9946446" lon="11.7589771"><ele>613.8333333333334</ele><time>2026-04-06T15:18:35.65Z</time></trkpt><trkpt lat="45.9946647" lon="11.759071"><ele>612.6666666666666</ele><time>2026-04-06T15:18:36.65Z</time></trkpt><trkpt lat="45.9946807" lon="11.7591615"><ele>611.5</ele><time>2026-04-06T15:18:37.65Z</time></trkpt><trkpt lat="45.9947037" lon="11.7592494"><ele>610.3333333333333</ele><time>2026-04-06T15:18:38.65Z</time></trkpt><trkpt lat="45.9947237" lon="11.7593359"><ele>609.1666666666666</ele><time>2026-04-06T15:18:39.651Z</time></trkpt><trkpt lat="45.9947713" lon="11.7594925"><ele>608.0</ele><time>2026-04-06T15:18:41.65Z</time></trkpt><trkpt lat="45.9948106" lon="11.759651"><ele>607.3333333333333</ele><time>2026-04-06T15:18:43.651Z</time></trkpt><trkpt lat="45.9948059" lon="11.7597801"><ele>606.6666666666666</ele><time>2026-04-06T15:18:45.651Z</time></trkpt><trkpt lat="45.99483" lon="11.7599528"><ele>606.0</ele><time>2026-04-06T15:18:48.65Z</time></trkpt><trkpt lat="45.9949182" lon="11.7599329"><ele>605.3333333333334</ele><time>2026-04-06T15:18:54.65Z</time></trkpt><trkpt lat="45.9949784" lon="11.7598998"><ele>604.6666666666667</ele><time>2026-04-06T15:18:56.65Z</time></trkpt><trkpt lat="45.9949824" lon="11.7597913"><ele>604.0</ele><time>2026-04-06T15:18:59.651Z</time></trkpt><trkpt lat="45.9950059" lon="11.759672"><ele>636.0</ele><time>2026-04-06T15:19:36.65Z</time></trkpt></trkseg><trkseg><trkpt lat="45.995" lon="11.7598041"><ele>609.2</ele><time>2026-04-06T15:39:20.746Z</time></trkpt><trkpt lat="45.9950477" lon="11.7598877"><ele>614.4</ele><time>2026-04-06T15:39:22.717Z</time></trkpt><trkpt lat="45.9950631" lon="11.7601364"><ele>619.6</ele><time>2026-04-06T15:39:24.667Z</time></trkpt><trkpt lat="45.9950576" lon="11.7602694"><ele>624.8</ele><time>2026-04-06T15:39:25.666Z</time></trkpt><trkpt lat="45.9950697" lon="11.7603594"><ele>630.0</ele><time>2026-04-06T15:39:26.667Z</time></trkpt><trkpt lat="45.9951182" lon="11.7605072"><ele>630.0</ele><time>2026-04-06T15:39:28.667Z</time></trkpt><trkpt lat="45.9951592" lon="11.7606427"><ele>630.0</ele><time>2026-04-06T15:39:30.667Z</time></trkpt><trkpt lat="45.9951824" lon="11.7607842"><ele>630.0</ele><time>2026-04-06T15:39:32.667Z</time></trkpt><trkpt lat="45.9951872" lon="11.7609329"><ele>630.0</ele><time>2026-04-06T15:39:34.666Z</time></trkpt><trkpt lat="45.9951884" lon="11.7610642"><ele>630.0</ele><time>2026-04-06T15:39:36.666Z</time></trkpt><trkpt lat="45.9951908" lon="11.7611615"><ele>628.2</ele><time>2026-04-06T15:39:38.667Z</time></trkpt><trkpt lat="45.9952482" lon="11.7612518"><ele>626.4</ele><time>2026-04-06T15:39:40.667Z</time></trkpt><trkpt lat="45.9953075" lon="11.7613692"><ele>624.6</ele><time>2026-04-06T15:39:42.667Z</time></trkpt><trkpt lat="45.9953599" lon="11.7614927"><ele>622.8</ele><time>2026-04-06T15:39:43.667Z</time></trkpt><trkpt lat="45.9954069" lon="11.7615972"><ele>621.0</ele><time>2026-04-06T15:39:44.667Z</time></trkpt><trkpt lat="45.9954807" lon="11.7616512"><ele>621.0</ele><time>2026-04-06T15:39:47.668Z</time></trkpt><trkpt lat="45.9955782" lon="11.7617023"><ele>621.0</ele><time>2026-04-06T15:39:56.667Z</time></trkpt><trkpt lat="45.9956405" lon="11.7617638"><ele>621.0</ele><time>2026-04-06T15:39:58.667Z</time></trkpt><trkpt lat="45.9957064" lon="11.7617605"><ele>621.0</ele><time>2026-04-06T15:40:16.667Z</time></trkpt><trkpt lat="45.9957678" lon="11.7617271"><ele>621.0</ele><time>2026-04-06T15:40:20.667Z</time></trkpt><trkpt lat="45.9958172" lon="11.7616187"><ele>621.0</ele><time>2026-04-06T15:40:25.667Z</time></trkpt><trkpt lat="45.995832" lon="11.7615256"><ele>621.0</ele><time>2026-04-06T15:40:27.667Z</time></trkpt><trkpt lat="45.9958405" lon="11.7613975"><ele>621.0</ele><time>2026-04-06T15:40:29.667Z</time></trkpt><trkpt lat="45.9958344" lon="11.7612632"><ele>621.0</ele><time>2026-04-06T15:40:31.667Z</time></trkpt><trkpt lat="45.9958065" lon="11.761078"><ele>621.0</ele><time>2026-04-06T15:40:35.667Z</time></trkpt><trkpt lat="45.9957862" lon="11.760991"><ele>621.0</ele><time>2026-04-06T15:40:37.668Z</time></trkpt><trkpt lat="45.9958397" lon="11.7608283"><ele>627.5</ele><time>2026-04-06T15:40:39.669Z</time></trkpt><trkpt lat="45.9958637" lon="11.7607263"><ele>634.0</ele><time>2026-04-06T15:40:40.668Z</time></trkpt><trkpt lat="45.9958872" lon="11.7605372"><ele>640.5</ele><time>2026-04-06T15:40:42.667Z</time></trkpt><trkpt lat="45.9958862" lon="11.7604318"><ele>647.0</ele><time>2026-04-06T15:40:43.667Z</time></trkpt><trkpt lat="45.9958887" lon="11.7603325"><ele>653.5</ele><time>2026-04-06T15:40:44.667Z</time></trkpt><trkpt lat="45.995885" lon="11.7602352"><ele>660.0</ele><time>2026-04-06T15:40:45.667Z</time></trkpt><trkpt lat="45.9958629" lon="11.7600685"><ele>662.3333333333334</ele><time>2026-04-06T15:40:47.668Z</time></trkpt><trkpt lat="45.9958611" lon="11.7599572"><ele>664.6666666666666</ele><time>2026-04-06T15:40:48.668Z</time></trkpt><trkpt lat="45.9958457" lon="11.7598258"><ele>667.0</ele><time>2026-04-06T15:40:49.668Z</time></trkpt><trkpt lat="45.9958321" lon="11.7596912"><ele>669.3333333333333</ele><time>2026-04-06T15:40:50.668Z</time></trkpt><trkpt lat="45.9958126" lon="11.7595829"><ele>671.6666666666666</ele><time>2026-04-06T15:40:51.668Z</time></trkpt><trkpt lat="45.9957939" lon="11.7594728"><ele>674.0</ele><time>2026-04-06T15:40:52.668Z</time></trkpt><trkpt lat="45.9957759" lon="11.7593562"><ele>669.1666666666666</ele><time>2026-04-06T15:40:53.669Z</time></trkpt><trkpt lat="45.9957619" lon="11.7592486"><ele>664.3333333333333</ele><time>2026-04-06T15:40:54.668Z</time></trkpt><trkpt lat="45.9957467" lon="11.7590813"><ele>659.5</ele><time>2026-04-06T15:40:56.669Z</time></trkpt><trkpt lat="45.9957211" lon="11.7589969"><ele>654.6666666666666</ele><time>2026-04-06T15:40:57.668Z</time></trkpt><trkpt lat="45.995692" lon="11.7588951"><ele>649.8333333333334</ele><time>2026-04-06T15:40:58.668Z</time></trkpt><trkpt lat="45.9956724" lon="11.7587984"><ele>645.0</ele><time>2026-04-06T15:40:59.668Z</time></trkpt><trkpt lat="45.9956518" lon="11.7587083"><ele>645.0</ele><time>2026-04-06T15:41:00.668Z</time></trkpt><trkpt lat="45.9956057" lon="11.7585559"><ele>645.0</ele><time>2026-04-06T15:41:02.668Z</time></trkpt><trkpt lat="45.995575" lon="11.7584586"><ele>645.0</ele><time>2026-04-06T15:41:04.669Z</time></trkpt><trkpt lat="45.9955716" lon="11.7583244"><ele>645.0</ele><time>2026-04-06T15:41:07.668Z</time></trkpt><trkpt lat="45.9955505" lon="11.7582367"><ele>645.0</ele><time>2026-04-06T15:41:08.668Z</time></trkpt><trkpt lat="45.9955077" lon="11.7580833"><ele>647.8</ele><time>2026-04-06T15:41:10.669Z</time></trkpt><trkpt lat="45.9954753" lon="11.7579864"><ele>650.6</ele><time>2026-04-06T15:41:11.669Z</time></trkpt><trkpt lat="45.9954415" lon="11.7578941"><ele>653.4000000000001</ele><time>2026-04-06T15:41:12.668Z</time></trkpt><trkpt lat="45.9953877" lon="11.7577496"><ele>656.2</ele><time>2026-04-06T15:41:14.668Z</time></trkpt><trkpt lat="45.9953494" lon="11.7575862"><ele>659.0</ele><time>2026-04-06T15:41:16.668Z</time></trkpt><trkpt lat="45.9952761" lon="11.7575204"><ele>661.4000000000001</ele><time>2026-04-06T15:41:19.668Z</time></trkpt><trkpt lat="45.9952202" lon="11.7574364"><ele>663.8</ele><time>2026-04-06T15:41:21.669Z</time></trkpt><trkpt lat="45.9951656" lon="11.7573461"><ele>666.2</ele><time>2026-04-06T15:41:23.668Z</time></trkpt><trkpt lat="45.9951391" lon="11.7572486"><ele>668.5999999999999</ele><time>2026-04-06T15:41:25.669Z</time></trkpt><trkpt lat="45.9951187" lon="11.7571111"><ele>671.0</ele><time>2026-04-06T15:41:28.668Z</time></trkpt><trkpt lat="45.995072" lon="11.7569559"><ele>673.1999999999999</ele><time>2026-04-06T15:41:54.668Z</time></trkpt><trkpt lat="45.9950512" lon="11.7568472"><ele>675.4</ele><time>2026-04-06T15:41:55.669Z</time></trkpt><trkpt lat="45.9950227" lon="11.7567158"><ele>677.6</ele><time>2026-04-06T15:41:57.669Z</time></trkpt><trkpt lat="45.9949818" lon="11.7565785"><ele>679.8</ele><time>2026-04-06T15:41:59.669Z</time></trkpt><trkpt lat="45.9949332" lon="11.7564531"><ele>682.0</ele><time>2026-04-06T15:42:01.669Z</time></trkpt><trkpt lat="45.9948046" lon="11.7563378"><ele>675.5</ele><time>2026-04-06T15:42:03.669Z</time></trkpt><trkpt lat="45.9947414" lon="11.7562901"><ele>669.0</ele><time>2026-04-06T15:42:04.669Z</time></trkpt><trkpt lat="45.9946803" lon="11.7562153"><ele>662.5</ele><time>2026-04-06T15:42:06.67Z</time></trkpt><trkpt lat="45.9946354" lon="11.7560763"><ele>656.0</ele><time>2026-04-06T15:42:08.67Z</time></trkpt><trkpt lat="45.9946027" lon="11.7559341"><ele>649.5</ele><time>2026-04-06T15:42:10.669Z</time></trkpt><trkpt lat="45.9946003" lon="11.7558405"><ele>643.0</ele><time>2026-04-06T15:42:13.669Z</time></trkpt><trkpt lat="45.9946524" lon="11.7557747"><ele>642.8333333333334</ele><time>2026-04-06T15:42:15.669Z</time></trkpt><trkpt lat="45.9947136" lon="11.7556692"><ele>642.6666666666667</ele><time>2026-04-06T15:42:17.669Z</time></trkpt><trkpt lat="45.9947086" lon="11.7555759"><ele>642.5</ele><time>2026-04-06T15:42:20.669Z</time></trkpt><trkpt lat="45.9946152" lon="11.7555429"><ele>642.3333333333334</ele><time>2026-04-06T15:42:23.669Z</time></trkpt><trkpt lat="45.9945435" lon="11.7555373"><ele>642.1666666666666</ele><time>2026-04-06T15:42:25.669Z</time></trkpt><trkpt lat="45.9944837" lon="11.7554989"><ele>642.0</ele><time>2026-04-06T15:42:28.669Z</time></trkpt><trkpt lat="45.9944595" lon="11.7553965"><ele>642.0</ele><time>2026-04-06T15:42:30.67Z</time></trkpt><trkpt lat="45.9944361" lon="11.7552973"><ele>642.0</ele><time>2026-04-06T15:42:32.669Z</time></trkpt><trkpt lat="45.9944371" lon="11.7551725"><ele>642.0</ele><time>2026-04-06T15:42:34.669Z</time></trkpt><trkpt lat="45.9944803" lon="11.7550415"><ele>642.0</ele><time>2026-04-06T15:42:36.669Z</time></trkpt><trkpt lat="45.9945041" lon="11.7549098"><ele>642.0</ele><time>2026-04-06T15:42:38.669Z</time></trkpt><trkpt lat="45.9944967" lon="11.7547823"><ele>642.0</ele><time>2026-04-06T15:42:40.669Z</time></trkpt><trkpt lat="45.9944477" lon="11.754617"><ele>641.8333333333334</ele><time>2026-04-06T15:42:42.669Z</time></trkpt><trkpt lat="45.9944245" lon="11.7545297"><ele>641.6666666666666</ele><time>2026-04-06T15:42:43.669Z</time></trkpt><trkpt lat="45.9944091" lon="11.7544374"><ele>641.5</ele><time>2026-04-06T15:42:44.669Z</time></trkpt><trkpt lat="45.9944053" lon="11.7543381"><ele>641.3333333333333</ele><time>2026-04-06T15:42:45.67Z</time></trkpt><trkpt lat="45.9944076" lon="11.7542285"><ele>641.1666666666666</ele><time>2026-04-06T15:42:46.669Z</time></trkpt><trkpt lat="45.9944097" lon="11.7540986"><ele>641.0</ele><time>2026-04-06T15:42:47.669Z</time></trkpt><trkpt lat="45.9944072" lon="11.753941"><ele>643.3333333333333</ele><time>2026-04-06T15:42:48.67Z</time></trkpt><trkpt lat="45.994398" lon="11.7537403"><ele>645.6666666666666</ele><time>2026-04-06T15:42:49.669Z</time></trkpt><trkpt lat="45.9943922" lon="11.7535068"><ele>648.0</ele><time>2026-04-06T15:42:50.669Z</time></trkpt><trkpt lat="45.9943964" lon="11.7532514"><ele>650.0</ele><time>2026-04-06T15:42:51.67Z</time></trkpt><trkpt lat="45.9944144" lon="11.7530102"><ele>652.0</ele><time>2026-04-06T15:42:52.669Z</time></trkpt><trkpt lat="45.9944384" lon="11.7528133"><ele>654.0</ele><time>2026-04-06T15:42:53.67Z</time></trkpt><trkpt lat="45.994461" lon="11.7526587"><ele>656.0</ele><time>2026-04-06T15:42:54.669Z</time></trkpt><trkpt lat="45.9944799" lon="11.7525338"><ele>656.0</ele><time>2026-04-06T15:42:55.67Z</time></trkpt><trkpt lat="45.994499" lon="11.7524186"><ele>656.0</ele><time>2026-04-06T15:42:56.669Z</time></trkpt><trkpt lat="45.9945187" lon="11.7523044"><ele>656.0</ele><time>2026-04-06T15:42:57.67Z</time></trkpt><trkpt lat="45.9945384" lon="11.752187"><ele>656.0</ele><time>2026-04-06T15:42:58.669Z</time></trkpt><trkpt lat="45.9945597" lon="11.752066"><ele>656.0</ele><time>2026-04-06T15:42:59.671Z</time></trkpt><trkpt lat="45.9945868" lon="11.7519411"><ele>656.0</ele><time>2026-04-06T15:43:00.669Z</time></trkpt><trkpt lat="45.9946143" lon="11.7518076"><ele>655.5</ele><time>2026-04-06T15:43:01.67Z</time></trkpt><trkpt lat="45.9946419" lon="11.7516781"><ele>655.0</ele><time>2026-04-06T15:43:02.67Z</time></trkpt><trkpt lat="45.9946658" lon="11.7515603"><ele>654.5</ele><time>2026-04-06T15:43:03.671Z</time></trkpt><trkpt lat="45.9946905" lon="11.7514439"><ele>654.0</ele><time>2026-04-06T15:43:04.669Z</time></trkpt><trkpt lat="45.9947177" lon="11.7513369"><ele>653.5</ele><time>2026-04-06T15:43:05.67Z</time></trkpt><trkpt lat="45.9947474" lon="11.7512315"><ele>653.0</ele><time>2026-04-06T15:43:06.67Z</time></trkpt><trkpt lat="45.994775" lon="11.7511217"><ele>651.2</ele><time>2026-04-06T15:43:07.67Z</time></trkpt><trkpt lat="45.9948039" lon="11.7510076"><ele>649.4</ele><time>2026-04-06T15:43:08.671Z</time></trkpt><trkpt lat="45.9948329" lon="11.7508969"><ele>647.6</ele><time>2026-04-06T15:43:09.67Z</time></trkpt><trkpt lat="45.9948706" lon="11.7507815"><ele>645.8000000000001</ele><time>2026-04-06T15:43:10.67Z</time></trkpt><trkpt lat="45.9949833" lon="11.7505633"><ele>644.0</ele><time>2026-04-06T15:43:12.671Z</time></trkpt><trkpt lat="45.9950265" lon="11.7504384"><ele>654.6</ele><time>2026-04-06T15:43:13.671Z</time></trkpt><trkpt lat="45.9950559" lon="11.7503059"><ele>665.2</ele><time>2026-04-06T15:43:14.67Z</time></trkpt><trkpt lat="45.9950727" lon="11.7501666"><ele>675.8000000000001</ele><time>2026-04-06T15:43:15.67Z</time></trkpt><trkpt lat="45.9950835" lon="11.7500213"><ele>686.4000000000001</ele><time>2026-04-06T15:43:16.67Z</time></trkpt><trkpt lat="45.9950936" lon="11.7498756"><ele>697.0</ele><time>2026-04-06T15:43:17.67Z</time></trkpt><trkpt lat="45.9951007" lon="11.7497198"><ele>697.0</ele><time>2026-04-06T15:43:18.67Z</time></trkpt><trkpt lat="45.99511" lon="11.7495599"><ele>697.0</ele><time>2026-04-06T15:43:19.67Z</time></trkpt><trkpt lat="45.9951213" lon="11.7494042"><ele>697.0</ele><time>2026-04-06T15:43:20.67Z</time></trkpt><trkpt lat="45.9951399" lon="11.7492405"><ele>697.0</ele><time>2026-04-06T15:43:21.67Z</time></trkpt><trkpt lat="45.9951701" lon="11.7490789"><ele>695.75</ele><time>2026-04-06T15:43:22.67Z</time></trkpt><trkpt lat="45.9952204" lon="11.7489103"><ele>694.5</ele><time>2026-04-06T15:43:23.671Z</time></trkpt><trkpt lat="45.9952813" lon="11.748727"><ele>693.25</ele><time>2026-04-06T15:43:24.67Z</time></trkpt><trkpt lat="45.9953767" lon="11.7485171"><ele>692.0</ele><time>2026-04-06T15:43:25.67Z</time></trkpt><trkpt lat="45.9954798" lon="11.7482949"><ele>686.0</ele><time>2026-04-06T15:43:26.671Z</time></trkpt><trkpt lat="45.9955821" lon="11.7480636"><ele>680.0</ele><time>2026-04-06T15:43:27.67Z</time></trkpt><trkpt lat="45.9956857" lon="11.74784"><ele>674.0</ele><time>2026-04-06T15:43:28.67Z</time></trkpt><trkpt lat="45.9958168" lon="11.7476379"><ele>674.0</ele><time>2026-04-06T15:43:29.67Z</time></trkpt><trkpt lat="45.9959621" lon="11.7474481"><ele>674.0</ele><time>2026-04-06T15:43:30.67Z</time></trkpt><trkpt lat="45.996095" lon="11.7472786"><ele>674.0</ele><time>2026-04-06T15:43:31.67Z</time></trkpt><trkpt lat="45.9962028" lon="11.7471272"><ele>674.0</ele><time>2026-04-06T15:43:32.67Z</time></trkpt><trkpt lat="45.9963112" lon="11.7470022"><ele>674.0</ele><time>2026-04-06T15:43:33.671Z</time></trkpt><trkpt lat="45.9964463" lon="11.7469087"><ele>674.0</ele><time>2026-04-06T15:43:34.67Z</time></trkpt><trkpt lat="45.9965718" lon="11.7468513"><ele>674.0</ele><time>2026-04-06T15:43:35.67Z</time></trkpt><trkpt lat="45.9966743" lon="11.7468088"><ele>672.4000000000001</ele><time>2026-04-06T15:43:36.67Z</time></trkpt><trkpt lat="45.996769" lon="11.7468071"><ele>670.8</ele><time>2026-04-06T15:43:37.671Z</time></trkpt><trkpt lat="45.9968737" lon="11.7468697"><ele>669.2</ele><time>2026-04-06T15:43:38.67Z</time></trkpt><trkpt lat="45.9969832" lon="11.7469716"><ele>667.5999999999999</ele><time>2026-04-06T15:43:39.67Z</time></trkpt><trkpt lat="45.9970515" lon="11.7470487"><ele>666.0</ele><time>2026-04-06T15:43:40.67Z</time></trkpt><trkpt lat="45.9971205" lon="11.7470934"><ele>666.0</ele><time>2026-04-06T15:43:42.67Z</time></trkpt><trkpt lat="45.997213" lon="11.7470269"><ele>666.0</ele><time>2026-04-06T15:43:44.67Z</time></trkpt><trkpt lat="45.99724" lon="11.7468814"><ele>666.0</ele><time>2026-04-06T15:43:46.67Z</time></trkpt><trkpt lat="45.997235" lon="11.7467706"><ele>666.0</ele><time>2026-04-06T15:43:47.67Z</time></trkpt><trkpt lat="45.9972236" lon="11.7466771"><ele>666.0</ele><time>2026-04-06T15:43:48.67Z</time></trkpt><trkpt lat="45.997164" lon="11.7466294"><ele>666.0</ele><time>2026-04-06T15:43:50.67Z</time></trkpt><trkpt lat="45.9970969" lon="11.7466215"><ele>666.0</ele><time>2026-04-06T15:43:59.672Z</time></trkpt><trkpt lat="45.9970396" lon="11.7465667"><ele>666.0</ele><time>2026-04-06T15:44:00.671Z</time></trkpt><trkpt lat="45.9969576" lon="11.7465112"><ele>666.0</ele><time>2026-04-06T15:44:01.672Z</time></trkpt><trkpt lat="45.9968922" lon="11.7464672"><ele>666.0</ele><time>2026-04-06T15:44:02.671Z</time></trkpt><trkpt lat="45.9968698" lon="11.7463758"><ele>666.0</ele><time>2026-04-06T15:44:05.671Z</time></trkpt><trkpt lat="45.9969263" lon="11.7463247"><ele>666.0</ele><time>2026-04-06T15:44:07.67Z</time></trkpt><trkpt lat="45.9970568" lon="11.7462286"><ele>666.0</ele><time>2026-04-06T15:44:09.671Z</time></trkpt><trkpt lat="45.9971238" lon="11.7461353"><ele>666.0</ele><time>2026-04-06T15:44:10.671Z</time></trkpt><trkpt lat="45.9971689" lon="11.7460363"><ele>666.0</ele><time>2026-04-06T15:44:11.67Z</time></trkpt><trkpt lat="45.997196" lon="11.7459315"><ele>666.0</ele><time>2026-04-06T15:44:12.671Z</time></trkpt><trkpt lat="45.9972198" lon="11.7458335"><ele>666.0</ele><time>2026-04-06T15:44:13.671Z</time></trkpt><trkpt lat="45.997251" lon="11.7457416"><ele>666.0</ele><time>2026-04-06T15:44:14.671Z</time></trkpt><trkpt lat="45.9972858" lon="11.7456502"><ele>664.8333333333334</ele><time>2026-04-06T15:44:15.671Z</time></trkpt><trkpt lat="45.9973061" lon="11.745556"><ele>663.6666666666666</ele><time>2026-04-06T15:44:17.671Z</time></trkpt><trkpt lat="45.9972651" lon="11.7454693"><ele>662.5</ele><time>2026-04-06T15:44:40.671Z</time></trkpt><trkpt lat="45.9972562" lon="11.745315"><ele>661.3333333333333</ele><time>2026-04-06T15:44:42.672Z</time></trkpt><trkpt lat="45.9972516" lon="11.7451994"><ele>660.1666666666666</ele><time>2026-04-06T15:44:43.671Z</time></trkpt><trkpt lat="45.9972179" lon="11.7450764"><ele>659.0</ele><time>2026-04-06T15:44:45.671Z</time></trkpt><trkpt lat="45.9971769" lon="11.744939"><ele>657.8000000000001</ele><time>2026-04-06T15:44:47.671Z</time></trkpt><trkpt lat="45.9971746" lon="11.7447986"><ele>656.6</ele><time>2026-04-06T15:44:49.672Z</time></trkpt><trkpt lat="45.9971969" lon="11.7446598"><ele>655.4</ele><time>2026-04-06T15:44:51.671Z</time></trkpt><trkpt lat="45.997259" lon="11.7444851"><ele>654.2</ele><time>2026-04-06T15:44:53.671Z</time></trkpt><trkpt lat="45.9973026" lon="11.7444162"><ele>653.0</ele><time>2026-04-06T15:44:54.672Z</time></trkpt><trkpt lat="45.9973737" lon="11.7442505"><ele>651.1666666666666</ele><time>2026-04-06T15:44:56.671Z</time></trkpt><trkpt lat="45.9974138" lon="11.7441586"><ele>649.3333333333333</ele><time>2026-04-06T15:44:57.671Z</time></trkpt><trkpt lat="45.9974609" lon="11.744059"><ele>647.5</ele><time>2026-04-06T15:44:58.671Z</time></trkpt><trkpt lat="45.9974914" lon="11.7439714"><ele>645.6666666666666</ele><time>2026-04-06T15:44:59.671Z</time></trkpt><trkpt lat="45.9974816" lon="11.7438366"><ele>643.8333333333334</ele><time>2026-04-06T15:45:01.671Z</time></trkpt><trkpt lat="45.9974657" lon="11.7436654"><ele>642.0</ele><time>2026-04-06T15:45:03.671Z</time></trkpt><trkpt lat="45.9974346" lon="11.7435618"><ele>642.8</ele><time>2026-04-06T15:45:04.672Z</time></trkpt><trkpt lat="45.9973507" lon="11.743433"><ele>643.6</ele><time>2026-04-06T15:45:05.672Z</time></trkpt><trkpt lat="45.9972901" lon="11.7433983"><ele>644.4</ele><time>2026-04-06T15:45:06.671Z</time></trkpt><trkpt lat="45.9971416" lon="11.7433589"><ele>645.1999999999999</ele><time>2026-04-06T15:45:08.672Z</time></trkpt><trkpt lat="45.9970746" lon="11.7433204"><ele>646.0</ele><time>2026-04-06T15:45:09.671Z</time></trkpt><trkpt lat="45.9970112" lon="11.7432687"><ele>646.0</ele><time>2026-04-06T15:45:10.671Z</time></trkpt><trkpt lat="45.9969405" lon="11.7431778"><ele>646.0</ele><time>2026-04-06T15:45:12.672Z</time></trkpt><trkpt lat="45.9968675" lon="11.7431512"><ele>646.0</ele><time>2026-04-06T15:45:15.672Z</time></trkpt><trkpt lat="45.9967963" lon="11.7431698"><ele>646.0</ele><time>2026-04-06T15:45:18.671Z</time></trkpt><trkpt lat="45.9967866" lon="11.7432759"><ele>646.0</ele><time>2026-04-06T15:45:20.672Z</time></trkpt><trkpt lat="45.996766" lon="11.7434178"><ele>646.0</ele><time>2026-04-06T15:45:21.672Z</time></trkpt><trkpt lat="45.9967676" lon="11.7435655"><ele>645.1999999999999</ele><time>2026-04-06T15:45:23.672Z</time></trkpt><trkpt lat="45.9968244" lon="11.7436727"><ele>644.4</ele><time>2026-04-06T15:45:25.671Z</time></trkpt><trkpt lat="45.996893" lon="11.7437231"><ele>643.6</ele><time>2026-04-06T15:45:26.672Z</time></trkpt><trkpt lat="45.9969668" lon="11.7437744"><ele>642.8</ele><time>2026-04-06T15:45:27.672Z</time></trkpt><trkpt lat="45.9970239" lon="11.7438908"><ele>642.0</ele><time>2026-04-06T15:45:28.672Z</time></trkpt><trkpt lat="45.9970672" lon="11.7440727"><ele>642.0</ele><time>2026-04-06T15:45:29.672Z</time></trkpt><trkpt lat="45.9970838" lon="11.7441926"><ele>642.0</ele><time>2026-04-06T15:45:30.672Z</time></trkpt><trkpt lat="45.9970443" lon="11.7443162"><ele>642.0</ele><time>2026-04-06T15:45:32.672Z</time></trkpt><trkpt lat="45.9969818" lon="11.7444122"><ele>642.0</ele><time>2026-04-06T15:45:34.672Z</time></trkpt><trkpt lat="45.9969423" lon="11.7444861"><ele>642.0</ele><time>2026-04-06T15:45:35.672Z</time></trkpt><trkpt lat="45.9968879" lon="11.7445554"><ele>642.0</ele><time>2026-04-06T15:45:36.672Z</time></trkpt><trkpt lat="45.9968439" lon="11.7446444"><ele>644.2</ele><time>2026-04-06T15:45:37.672Z</time></trkpt><trkpt lat="45.9968152" lon="11.7447315"><ele>646.4000000000001</ele><time>2026-04-06T15:45:38.672Z</time></trkpt><trkpt lat="45.9967649" lon="11.7448835"><ele>648.5999999999999</ele><time>2026-04-06T15:45:40.672Z</time></trkpt><trkpt lat="45.9967592" lon="11.744991"><ele>650.8</ele><time>2026-04-06T15:45:42.673Z</time></trkpt><trkpt lat="45.9968004" lon="11.74514"><ele>653.0</ele><time>2026-04-06T15:45:44.672Z</time></trkpt><trkpt lat="45.9968295" lon="11.7453128"><ele>654.0</ele><time>2026-04-06T15:45:46.673Z</time></trkpt><trkpt lat="45.9967966" lon="11.7454611"><ele>655.0</ele><time>2026-04-06T15:45:48.672Z</time></trkpt><trkpt lat="45.9967245" lon="11.7454231"><ele>656.0</ele><time>2026-04-06T15:46:05.672Z</time></trkpt><trkpt lat="45.9966587" lon="11.7454238"><ele>657.0</ele><time>2026-04-06T15:46:15.674Z</time></trkpt><trkpt lat="45.9966005" lon="11.7455073"><ele>658.0</ele><time>2026-04-06T15:46:20.672Z</time></trkpt><trkpt lat="45.9966692" lon="11.7454968"><ele>659.0</ele><time>2026-04-06T15:46:28.672Z</time></trkpt><trkpt lat="45.9967335" lon="11.7454621"><ele>659.0</ele><time>2026-04-06T15:46:35.674Z</time></trkpt><trkpt lat="45.9967432" lon="11.7453527"><ele>659.0</ele><time>2026-04-06T15:46:47.673Z</time></trkpt><trkpt lat="45.996722" lon="11.7452643"><ele>659.0</ele><time>2026-04-06T15:46:49.673Z</time></trkpt><trkpt lat="45.9966938" lon="11.7451658"><ele>659.0</ele><time>2026-04-06T15:46:55.674Z</time></trkpt><trkpt lat="45.996687" lon="11.7450741"><ele>659.0</ele><time>2026-04-06T15:46:57.673Z</time></trkpt><trkpt lat="45.9966977" lon="11.7449845"><ele>659.0</ele><time>2026-04-06T15:46:59.673Z</time></trkpt><trkpt lat="45.9967183" lon="11.744898"><ele>659.0</ele><time>2026-04-06T15:47:00.673Z</time></trkpt><trkpt lat="45.9967606" lon="11.7447562"><ele>657.8000000000001</ele><time>2026-04-06T15:47:02.673Z</time></trkpt><trkpt lat="45.9968076" lon="11.7446418"><ele>656.6</ele><time>2026-04-06T15:47:04.673Z</time></trkpt><trkpt lat="45.9968611" lon="11.7444806"><ele>655.4</ele><time>2026-04-06T15:47:06.673Z</time></trkpt><trkpt lat="45.9968913" lon="11.7443972"><ele>654.2</ele><time>2026-04-06T15:47:07.673Z</time></trkpt><trkpt lat="45.9969357" lon="11.744228"><ele>653.0</ele><time>2026-04-06T15:47:09.673Z</time></trkpt><trkpt lat="45.996928" lon="11.7441379"><ele>651.1666666666666</ele><time>2026-04-06T15:47:13.673Z</time></trkpt><trkpt lat="45.996899" lon="11.7440541"><ele>649.3333333333333</ele><time>2026-04-06T15:47:16.673Z</time></trkpt><trkpt lat="45.9968465" lon="11.7439979"><ele>647.5</ele><time>2026-04-06T15:47:20.673Z</time></trkpt><trkpt lat="45.9967901" lon="11.7440508"><ele>645.6666666666666</ele><time>2026-04-06T15:47:23.674Z</time></trkpt><trkpt lat="45.9967265" lon="11.7441415"><ele>643.8333333333334</ele><time>2026-04-06T15:47:26.673Z</time></trkpt><trkpt lat="45.9966619" lon="11.7441999"><ele>642.0</ele><time>2026-04-06T15:47:29.673Z</time></trkpt><trkpt lat="45.9965699" lon="11.744247"><ele>641.9999999999999</ele><time>2026-04-06T15:47:40.674Z</time></trkpt><trkpt lat="45.9966085" lon="11.7441681"><ele>642.0</ele><time>2026-04-06T15:47:51.674Z</time></trkpt><trkpt lat="45.9966702" lon="11.744128"><ele>642.0</ele><time>2026-04-06T15:47:53.674Z</time></trkpt><trkpt lat="45.9967107" lon="11.7440575"><ele>642.0</ele><time>2026-04-06T15:47:59.674Z</time></trkpt><trkpt lat="45.9967084" lon="11.7439594"><ele>642.0</ele><time>2026-04-06T15:48:02.674Z</time></trkpt><trkpt lat="45.9966945" lon="11.7438087"><ele>641.9999999999999</ele><time>2026-04-06T15:48:17.674Z</time></trkpt><trkpt lat="45.9966473" lon="11.7437346"><ele>642.0</ele><time>2026-04-06T15:48:19.674Z</time></trkpt><trkpt lat="45.9966984" lon="11.743666"><ele>642.6666666666666</ele><time>2026-04-06T15:48:23.674Z</time></trkpt><trkpt lat="45.9967166" lon="11.7435327"><ele>643.3333333333334</ele><time>2026-04-06T15:48:27.674Z</time></trkpt><trkpt lat="45.9966485" lon="11.7434995"><ele>644.0</ele><time>2026-04-06T15:48:30.675Z</time></trkpt><trkpt lat="45.9965783" lon="11.7435137"><ele>644.6666666666667</ele><time>2026-04-06T15:53:29.679Z</time></trkpt><trkpt lat="45.9965089" lon="11.743555"><ele>645.3333333333334</ele><time>2026-04-06T15:53:30.679Z</time></trkpt><trkpt lat="45.9964351" lon="11.7435891"><ele>646.0</ele><time>2026-04-06T15:53:31.679Z</time></trkpt><trkpt lat="45.9963376" lon="11.743596"><ele>642.0</ele><time>2026-04-06T15:53:32.679Z</time></trkpt><trkpt lat="45.996249" lon="11.7435332"><ele>638.0</ele><time>2026-04-06T15:53:34.68Z</time></trkpt><trkpt lat="45.9961994" lon="11.7434219"><ele>634.0</ele><time>2026-04-06T15:53:36.679Z</time></trkpt><trkpt lat="45.9960835" lon="11.7433792"><ele>630.0</ele><time>2026-04-06T15:53:38.68Z</time></trkpt><trkpt lat="45.9959835" lon="11.7433604"><ele>626.0</ele><time>2026-04-06T15:53:40.679Z</time></trkpt><trkpt lat="45.9960267" lon="11.7432529"><ele>626.0</ele><time>2026-04-06T15:53:44.679Z</time></trkpt><trkpt lat="45.9961263" lon="11.7432399"><ele>626.0</ele><time>2026-04-06T15:53:54.679Z</time></trkpt><trkpt lat="45.9961991" lon="11.7432304"><ele>626.0</ele><time>2026-04-06T15:53:55.679Z</time></trkpt><trkpt lat="45.9963011" lon="11.7432098"><ele>626.0</ele><time>2026-04-06T15:53:57.68Z</time></trkpt><trkpt lat="45.9963696" lon="11.7431653"><ele>626.0</ele><time>2026-04-06T15:54:00.679Z</time></trkpt><trkpt lat="45.9964377" lon="11.7431472"><ele>626.0</ele><time>2026-04-06T15:54:03.679Z</time></trkpt><trkpt lat="45.9965136" lon="11.7432193"><ele>626.0</ele><time>2026-04-06T15:54:07.68Z</time></trkpt><trkpt lat="45.9965861" lon="11.743303"><ele>626.0</ele><time>2026-04-06T15:54:09.679Z</time></trkpt><trkpt lat="45.996658" lon="11.7433377"><ele>626.0</ele><time>2026-04-06T15:54:11.679Z</time></trkpt><trkpt lat="45.9967269" lon="11.7433361"><ele>626.0</ele><time>2026-04-06T15:54:14.68Z</time></trkpt><trkpt lat="45.9967575" lon="11.7434267"><ele>626.0</ele><time>2026-04-06T15:54:19.68Z</time></trkpt><trkpt lat="45.9967603" lon="11.7435196"><ele>626.0</ele><time>2026-04-06T15:54:23.681Z</time></trkpt><trkpt lat="45.9968228" lon="11.7436116"><ele>628.6666666666666</ele><time>2026-04-06T15:54:27.68Z</time></trkpt><trkpt lat="45.9968967" lon="11.7436745"><ele>631.3333333333333</ele><time>2026-04-06T15:54:29.68Z</time></trkpt><trkpt lat="45.9969954" lon="11.7437791"><ele>634.0</ele><time>2026-04-06T15:54:31.68Z</time></trkpt><trkpt lat="45.9970368" lon="11.7438778"><ele>636.6666666666666</ele><time>2026-04-06T15:54:32.681Z</time></trkpt><trkpt lat="45.9970593" lon="11.7439909"><ele>639.3333333333334</ele><time>2026-04-06T15:54:33.68Z</time></trkpt><trkpt lat="45.9970713" lon="11.7441015"><ele>642.0</ele><time>2026-04-06T15:54:34.68Z</time></trkpt><trkpt lat="45.9970464" lon="11.7442537"><ele>642.0</ele><time>2026-04-06T15:54:36.681Z</time></trkpt><trkpt lat="45.9969794" lon="11.7443542"><ele>642.0</ele><time>2026-04-06T15:54:38.681Z</time></trkpt><trkpt lat="45.9968942" lon="11.7445055"><ele>642.0</ele><time>2026-04-06T15:54:40.68Z</time></trkpt><trkpt lat="45.9968593" lon="11.7445889"><ele>642.0</ele><time>2026-04-06T15:54:41.68Z</time></trkpt><trkpt lat="45.9968013" lon="11.7447548"><ele>642.0</ele><time>2026-04-06T15:54:43.68Z</time></trkpt><trkpt lat="45.9967495" lon="11.744911"><ele>644.2</ele><time>2026-04-06T15:54:45.68Z</time></trkpt><trkpt lat="45.9967606" lon="11.7450356"><ele>646.4000000000001</ele><time>2026-04-06T15:54:47.68Z</time></trkpt><trkpt lat="45.9968136" lon="11.7451983"><ele>648.5999999999999</ele><time>2026-04-06T15:54:49.68Z</time></trkpt><trkpt lat="45.9968246" lon="11.7453638"><ele>650.8</ele><time>2026-04-06T15:54:51.68Z</time></trkpt><trkpt lat="45.9967691" lon="11.7454693"><ele>653.0</ele><time>2026-04-06T15:54:53.681Z</time></trkpt><trkpt lat="45.9967341" lon="11.745345"><ele>653.0</ele><time>2026-04-06T15:54:58.681Z</time></trkpt><trkpt lat="45.9967199" lon="11.7452057"><ele>653.0</ele><time>2026-04-06T15:55:00.681Z</time></trkpt><trkpt lat="45.996694" lon="11.7450437"><ele>653.0</ele><time>2026-04-06T15:55:02.68Z</time></trkpt><trkpt lat="45.996698" lon="11.7449382"><ele>653.0</ele><time>2026-04-06T15:55:03.68Z</time></trkpt><trkpt lat="45.9967215" lon="11.7448371"><ele>653.0</ele><time>2026-04-06T15:55:04.68Z</time></trkpt><trkpt lat="45.9967667" lon="11.744738"><ele>653.0</ele><time>2026-04-06T15:55:05.681Z</time></trkpt><trkpt lat="45.9968331" lon="11.7445816"><ele>653.0</ele><time>2026-04-06T15:55:07.681Z</time></trkpt><trkpt lat="45.9968903" lon="11.7444388"><ele>653.0</ele><time>2026-04-06T15:55:09.681Z</time></trkpt><trkpt lat="45.9969175" lon="11.7443266"><ele>653.0</ele><time>2026-04-06T15:55:11.68Z</time></trkpt><trkpt lat="45.9969389" lon="11.7442103"><ele>653.0</ele><time>2026-04-06T15:55:15.68Z</time></trkpt><trkpt lat="45.9969354" lon="11.7440907"><ele>653.0</ele><time>2026-04-06T15:55:18.68Z</time></trkpt><trkpt lat="45.996891" lon="11.7439991"><ele>653.0</ele><time>2026-04-06T15:55:20.68Z</time></trkpt><trkpt lat="45.9968218" lon="11.7439828"><ele>651.1666666666666</ele><time>2026-04-06T15:55:23.68Z</time></trkpt><trkpt lat="45.9967498" lon="11.7440983"><ele>649.3333333333333</ele><time>2026-04-06T15:55:26.681Z</time></trkpt><trkpt lat="45.9966797" lon="11.7441313"><ele>647.5</ele><time>2026-04-06T15:55:31.681Z</time></trkpt><trkpt lat="45.9966272" lon="11.7442222"><ele>645.6666666666666</ele><time>2026-04-06T15:55:56.681Z</time></trkpt><trkpt lat="45.9965634" lon="11.7442269"><ele>643.8333333333334</ele><time>2026-04-06T15:56:02.682Z</time></trkpt><trkpt lat="45.9966381" lon="11.7441745"><ele>642.0</ele><time>2026-04-06T15:56:09.681Z</time></trkpt><trkpt lat="45.9966441" lon="11.7440619"><ele>641.9999999999999</ele><time>2026-04-06T15:56:14.681Z</time></trkpt><trkpt lat="45.9966538" lon="11.7439639"><ele>642.0</ele><time>2026-04-06T15:56:17.682Z</time></trkpt><trkpt lat="45.9967058" lon="11.7440451"><ele>642.0</ele><time>2026-04-06T15:56:25.682Z</time></trkpt><trkpt lat="45.9966914" lon="11.744134"><ele>642.0</ele><time>2026-04-06T15:56:36.681Z</time></trkpt><trkpt lat="45.9966379" lon="11.7442139"><ele>642.0</ele><time>2026-04-06T15:56:38.683Z</time></trkpt><trkpt lat="45.9966779" lon="11.7441404"><ele>641.9999999999999</ele><time>2026-04-06T15:57:06.683Z</time></trkpt><trkpt lat="45.9967307" lon="11.7440323"><ele>642.0</ele><time>2026-04-06T15:57:09.682Z</time></trkpt><trkpt lat="45.9967391" lon="11.7439111"><ele>641.9999999999999</ele><time>2026-04-06T15:58:05.684Z</time></trkpt><trkpt lat="45.9967938" lon="11.7439794"><ele>642.0</ele><time>2026-04-06T15:58:11.683Z</time></trkpt><trkpt lat="45.9967578" lon="11.7440764"><ele>642.0</ele><time>2026-04-06T15:58:21.683Z</time></trkpt><trkpt lat="45.996692" lon="11.7441287"><ele>642.0</ele><time>2026-04-06T15:58:26.683Z</time></trkpt><trkpt lat="45.9966434" lon="11.7442216"><ele>642.0</ele><time>2026-04-06T15:58:29.684Z</time></trkpt><trkpt lat="45.9966779" lon="11.7441351"><ele>641.9999999999999</ele><time>2026-04-06T15:58:42.683Z</time></trkpt><trkpt lat="45.9967274" lon="11.7440671"><ele>642.0</ele><time>2026-04-06T15:58:44.684Z</time></trkpt><trkpt lat="45.9967718" lon="11.7439753"><ele>642.0</ele><time>2026-04-06T15:58:47.683Z</time></trkpt><trkpt lat="45.996738" lon="11.7440656"><ele>642.0</ele><time>2026-04-06T15:59:00.684Z</time></trkpt><trkpt lat="45.9966847" lon="11.7441225"><ele>642.0</ele><time>2026-04-06T15:59:03.684Z</time></trkpt><trkpt lat="45.9966379" lon="11.7442258"><ele>642.0</ele><time>2026-04-06T15:59:07.684Z</time></trkpt><trkpt lat="45.9965591" lon="11.7442504"><ele>642.0</ele><time>2026-04-06T15:59:16.684Z</time></trkpt><trkpt lat="45.9966142" lon="11.7441699"><ele>642.0</ele><time>2026-04-06T15:59:21.684Z</time></trkpt><trkpt lat="45.9966826" lon="11.7440892"><ele>642.0</ele><time>2026-04-06T15:59:23.684Z</time></trkpt><trkpt lat="45.9967427" lon="11.7439394"><ele>642.0</ele><time>2026-04-06T15:59:25.684Z</time></trkpt><trkpt lat="45.9967176" lon="11.743829"><ele>642.0</ele><time>2026-04-06T15:59:38.684Z</time></trkpt><trkpt lat="45.9966785" lon="11.7437375"><ele>642.0</ele><time>2026-04-06T15:59:41.684Z</time></trkpt><trkpt lat="45.9966978" lon="11.7436241"><ele>642.0</ele><time>2026-04-06T15:59:45.684Z</time></trkpt><trkpt lat="45.996715" lon="11.743528"><ele>642.0</ele><time>2026-04-06T16:01:22.686Z</time></trkpt><trkpt lat="45.9967771" lon="11.7436015"><ele>642.0</ele><time>2026-04-06T16:06:50.691Z</time></trkpt><trkpt lat="45.9968738" lon="11.7436784"><ele>642.0</ele><time>2026-04-06T16:06:52.691Z</time></trkpt><trkpt lat="45.99694" lon="11.7437224"><ele>642.0</ele><time>2026-04-06T16:06:53.692Z</time></trkpt><trkpt lat="45.9969952" lon="11.7437936"><ele>642.0</ele><time>2026-04-06T16:06:54.692Z</time></trkpt><trkpt lat="45.9970421" lon="11.7439194"><ele>642.0</ele><time>2026-04-06T16:06:55.692Z</time></trkpt><trkpt lat="45.9970598" lon="11.7440611"><ele>642.0</ele><time>2026-04-06T16:06:56.691Z</time></trkpt><trkpt lat="45.9970598" lon="11.7441921"><ele>642.0</ele><time>2026-04-06T16:06:57.691Z</time></trkpt><trkpt lat="45.9970376" lon="11.7442831"><ele>642.0</ele><time>2026-04-06T16:06:58.691Z</time></trkpt><trkpt lat="45.9969654" lon="11.7443706"><ele>642.0</ele><time>2026-04-06T16:07:00.692Z</time></trkpt><trkpt lat="45.9969066" lon="11.7445204"><ele>642.0</ele><time>2026-04-06T16:07:02.692Z</time></trkpt><trkpt lat="45.9968476" lon="11.7446708"><ele>644.2</ele><time>2026-04-06T16:07:04.691Z</time></trkpt><trkpt lat="45.9968152" lon="11.7447526"><ele>646.4000000000001</ele><time>2026-04-06T16:07:05.691Z</time></trkpt><trkpt lat="45.9967766" lon="11.7448396"><ele>648.5999999999999</ele><time>2026-04-06T16:07:06.691Z</time></trkpt><trkpt lat="45.9967414" lon="11.7449702"><ele>650.8</ele><time>2026-04-06T16:07:08.692Z</time></trkpt><trkpt lat="45.9967704" lon="11.7451003"><ele>653.0</ele><time>2026-04-06T16:07:10.691Z</time></trkpt><trkpt lat="45.9968207" lon="11.7452672"><ele>653.0</ele><time>2026-04-06T16:07:12.692Z</time></trkpt><trkpt lat="45.9968044" lon="11.7454377"><ele>653.0</ele><time>2026-04-06T16:07:14.691Z</time></trkpt><trkpt lat="45.9967321" lon="11.7454923"><ele>653.0</ele><time>2026-04-06T16:07:16.692Z</time></trkpt><trkpt lat="45.9967463" lon="11.7453565"><ele>653.0</ele><time>2026-04-06T16:07:20.692Z</time></trkpt><trkpt lat="45.9967273" lon="11.7452134"><ele>653.0</ele><time>2026-04-06T16:07:22.691Z</time></trkpt><trkpt lat="45.9966975" lon="11.745124"><ele>653.0</ele><time>2026-04-06T16:07:23.692Z</time></trkpt><trkpt lat="45.9966903" lon="11.7449549"><ele>653.0</ele><time>2026-04-06T16:07:25.692Z</time></trkpt><trkpt lat="45.9967135" lon="11.7448545"><ele>653.0</ele><time>2026-04-06T16:07:26.692Z</time></trkpt><trkpt lat="45.9967653" lon="11.7447268"><ele>653.0</ele><time>2026-04-06T16:07:27.691Z</time></trkpt><trkpt lat="45.9968311" lon="11.7445542"><ele>653.0</ele><time>2026-04-06T16:07:28.692Z</time></trkpt><trkpt lat="45.9968984" lon="11.7443689"><ele>651.1666666666666</ele><time>2026-04-06T16:07:29.691Z</time></trkpt><trkpt lat="45.9969325" lon="11.7442494"><ele>649.3333333333333</ele><time>2026-04-06T16:07:30.692Z</time></trkpt><trkpt lat="45.9969421" lon="11.7441472"><ele>647.5</ele><time>2026-04-06T16:07:31.691Z</time></trkpt><trkpt lat="45.9968916" lon="11.7440086"><ele>645.6666666666666</ele><time>2026-04-06T16:07:33.692Z</time></trkpt><trkpt lat="45.9968462" lon="11.7439446"><ele>643.8333333333334</ele><time>2026-04-06T16:07:35.691Z</time></trkpt><trkpt lat="45.9967766" lon="11.7440019"><ele>642.0</ele><time>2026-04-06T16:07:39.692Z</time></trkpt><trkpt lat="45.9967004" lon="11.7441002"><ele>642.0</ele><time>2026-04-06T16:07:41.692Z</time></trkpt><trkpt lat="45.9966342" lon="11.7442194"><ele>642.0</ele><time>2026-04-06T16:07:43.693Z</time></trkpt><trkpt lat="45.9965635" lon="11.7442223"><ele>642.0</ele><time>2026-04-06T16:07:48.692Z</time></trkpt><trkpt lat="45.9966273" lon="11.7441712"><ele>642.0</ele><time>2026-04-06T16:07:54.693Z</time></trkpt><trkpt lat="45.9967012" lon="11.7440723"><ele>642.0</ele><time>2026-04-06T16:07:56.692Z</time></trkpt><trkpt lat="45.9967628" lon="11.7439205"><ele>642.0</ele><time>2026-04-06T16:07:58.692Z</time></trkpt><trkpt lat="45.9967346" lon="11.7438039"><ele>642.0</ele><time>2026-04-06T16:08:00.692Z</time></trkpt><trkpt lat="45.9966796" lon="11.7437171"><ele>642.0</ele><time>2026-04-06T16:08:02.692Z</time></trkpt><trkpt lat="45.9966711" lon="11.7436263"><ele>642.0</ele><time>2026-04-06T16:08:08.692Z</time></trkpt><trkpt lat="45.9967295" lon="11.7435548"><ele>642.0</ele><time>2026-04-06T16:08:13.692Z</time></trkpt><trkpt lat="45.9967839" lon="11.7436074"><ele>642.0</ele><time>2026-04-06T16:08:17.692Z</time></trkpt><trkpt lat="45.9968242" lon="11.7437331"><ele>641.9999999999999</ele><time>2026-04-06T16:08:19.692Z</time></trkpt><trkpt lat="45.9968154" lon="11.7438286"><ele>642.0</ele><time>2026-04-06T16:08:23.692Z</time></trkpt><trkpt lat="45.9968374" lon="11.7439178"><ele>642.0</ele><time>2026-04-06T16:08:27.693Z</time></trkpt><trkpt lat="45.9967956" lon="11.7439873"><ele>642.0</ele><time>2026-04-06T16:08:47.694Z</time></trkpt><trkpt lat="45.9967231" lon="11.7440713"><ele>642.0</ele><time>2026-04-06T16:08:50.693Z</time></trkpt><trkpt lat="45.9966611" lon="11.7441498"><ele>641.9999999999999</ele><time>2026-04-06T16:08:52.694Z</time></trkpt><trkpt lat="45.9966024" lon="11.7441899"><ele>642.0</ele><time>2026-04-06T16:08:56.693Z</time></trkpt><trkpt lat="45.9965356" lon="11.7442331"><ele>642.0</ele><time>2026-04-06T16:09:32.693Z</time></trkpt><trkpt lat="45.9966136" lon="11.7441764"><ele>642.0</ele><time>2026-04-06T16:09:49.693Z</time></trkpt><trkpt lat="45.9967041" lon="11.7440934"><ele>642.0</ele><time>2026-04-06T16:09:51.695Z</time></trkpt><trkpt lat="45.9967485" lon="11.7439798"><ele>642.0</ele><time>2026-04-06T16:09:53.694Z</time></trkpt><trkpt lat="45.9967127" lon="11.7441082"><ele>642.0</ele><time>2026-04-06T16:10:09.694Z</time></trkpt><trkpt lat="45.9966689" lon="11.7441805"><ele>642.0</ele><time>2026-04-06T16:10:10.695Z</time></trkpt><trkpt lat="45.9966119" lon="11.7442344"><ele>642.0</ele><time>2026-04-06T16:10:12.694Z</time></trkpt><trkpt lat="45.9966462" lon="11.7441503"><ele>642.0</ele><time>2026-04-06T16:10:20.694Z</time></trkpt><trkpt lat="45.9967115" lon="11.7440313"><ele>642.0</ele><time>2026-04-06T16:10:22.694Z</time></trkpt><trkpt lat="45.9967737" lon="11.7439172"><ele>642.0</ele><time>2026-04-06T16:10:24.694Z</time></trkpt><trkpt lat="45.9968218" lon="11.7439785"><ele>642.0</ele><time>2026-04-06T16:10:36.694Z</time></trkpt><trkpt lat="45.9968545" lon="11.7440889"><ele>642.0</ele><time>2026-04-06T16:10:39.696Z</time></trkpt><trkpt lat="45.9968289" lon="11.7439907"><ele>642.0</ele><time>2026-04-06T16:10:45.695Z</time></trkpt><trkpt lat="45.996755" lon="11.7440659"><ele>642.0</ele><time>2026-04-06T16:10:54.695Z</time></trkpt><trkpt lat="45.9967053" lon="11.7441636"><ele>642.0</ele><time>2026-04-06T16:10:56.695Z</time></trkpt><trkpt lat="45.9966422" lon="11.7442325"><ele>642.0</ele><time>2026-04-06T16:10:58.696Z</time></trkpt><trkpt lat="45.9965624" lon="11.7442054"><ele>642.0</ele><time>2026-04-06T16:11:02.695Z</time></trkpt><trkpt lat="45.9966173" lon="11.7441368"><ele>642.0</ele><time>2026-04-06T16:11:06.695Z</time></trkpt><trkpt lat="45.9966929" lon="11.7440367"><ele>642.0</ele><time>2026-04-06T16:11:08.696Z</time></trkpt><trkpt lat="45.9967465" lon="11.7439208"><ele>642.0</ele><time>2026-04-06T16:11:10.695Z</time></trkpt><trkpt lat="45.9967013" lon="11.7437994"><ele>642.0</ele><time>2026-04-06T16:11:13.696Z</time></trkpt><trkpt lat="45.99666" lon="11.74373"><ele>642.0</ele><time>2026-04-06T16:11:17.695Z</time></trkpt><trkpt lat="45.9967046" lon="11.7436329"><ele>642.0</ele><time>2026-04-06T16:11:21.695Z</time></trkpt><trkpt lat="45.9967315" lon="11.7434905"><ele>642.0</ele><time>2026-04-06T16:11:27.695Z</time></trkpt><trkpt lat="45.9967599" lon="11.743355"><ele>642.5714285714286</ele><time>2026-04-06T16:11:29.695Z</time></trkpt><trkpt lat="45.9967757" lon="11.7432515"><ele>643.1428571428571</ele><time>2026-04-06T16:11:31.695Z</time></trkpt><trkpt lat="45.996846" lon="11.7431986"><ele>643.7142857142858</ele><time>2026-04-06T16:11:35.696Z</time></trkpt><trkpt lat="45.9969076" lon="11.7431777"><ele>644.2857142857142</ele><time>2026-04-06T16:11:38.695Z</time></trkpt><trkpt lat="45.9969692" lon="11.7432729"><ele>644.8571428571429</ele><time>2026-04-06T16:11:41.695Z</time></trkpt><trkpt lat="45.9970153" lon="11.7433355"><ele>645.4285714285714</ele><time>2026-04-06T16:11:42.695Z</time></trkpt><trkpt lat="45.9970663" lon="11.7434062"><ele>646.0</ele><time>2026-04-06T16:11:43.695Z</time></trkpt><trkpt lat="45.9971645" lon="11.7434811"><ele>646.0</ele><time>2026-04-06T16:11:45.695Z</time></trkpt><trkpt lat="45.9972554" lon="11.7435009"><ele>646.0</ele><time>2026-04-06T16:11:47.695Z</time></trkpt><trkpt lat="45.9973199" lon="11.7435314"><ele>646.0</ele><time>2026-04-06T16:11:49.697Z</time></trkpt><trkpt lat="45.997381" lon="11.7436377"><ele>646.0</ele><time>2026-04-06T16:12:02.696Z</time></trkpt><trkpt lat="45.997412" lon="11.7437271"><ele>646.0</ele><time>2026-04-06T16:12:03.696Z</time></trkpt><trkpt lat="45.9974352" lon="11.7438214"><ele>646.0</ele><time>2026-04-06T16:12:04.696Z</time></trkpt><trkpt lat="45.9974578" lon="11.7439123"><ele>645.1999999999999</ele><time>2026-04-06T16:12:05.696Z</time></trkpt><trkpt lat="45.9974385" lon="11.744059"><ele>644.4</ele><time>2026-04-06T16:12:07.697Z</time></trkpt><trkpt lat="45.9973577" lon="11.7442089"><ele>643.6</ele><time>2026-04-06T16:12:09.697Z</time></trkpt><trkpt lat="45.9973091" lon="11.7442979"><ele>642.8</ele><time>2026-04-06T16:12:10.696Z</time></trkpt><trkpt lat="45.997257" lon="11.7443852"><ele>642.0</ele><time>2026-04-06T16:12:11.696Z</time></trkpt><trkpt lat="45.9972185" lon="11.7444595"><ele>644.2</ele><time>2026-04-06T16:12:12.697Z</time></trkpt><trkpt lat="45.9971799" lon="11.7445321"><ele>646.4000000000001</ele><time>2026-04-06T16:12:13.696Z</time></trkpt><trkpt lat="45.9971492" lon="11.744696"><ele>648.5999999999999</ele><time>2026-04-06T16:12:15.696Z</time></trkpt><trkpt lat="45.997158" lon="11.7448408"><ele>650.8</ele><time>2026-04-06T16:12:17.696Z</time></trkpt><trkpt lat="45.9971721" lon="11.7450078"><ele>653.0</ele><time>2026-04-06T16:12:19.696Z</time></trkpt><trkpt lat="45.997221" lon="11.7451481"><ele>654.0</ele><time>2026-04-06T16:12:21.696Z</time></trkpt><trkpt lat="45.9972529" lon="11.7452475"><ele>655.0</ele><time>2026-04-06T16:12:22.697Z</time></trkpt><trkpt lat="45.9972773" lon="11.7453567"><ele>656.0</ele><time>2026-04-06T16:12:23.696Z</time></trkpt><trkpt lat="45.9972869" lon="11.7454519"><ele>657.0</ele><time>2026-04-06T16:12:24.696Z</time></trkpt><trkpt lat="45.997271" lon="11.7455602"><ele>658.0</ele><time>2026-04-06T16:12:30.696Z</time></trkpt><trkpt lat="45.997226" lon="11.7456734"><ele>659.0</ele><time>2026-04-06T16:12:57.696Z</time></trkpt><trkpt lat="45.9971734" lon="11.7458222"><ele>659.0</ele><time>2026-04-06T16:12:59.696Z</time></trkpt><trkpt lat="45.9971423" lon="11.7459298"><ele>659.0</ele><time>2026-04-06T16:13:00.697Z</time></trkpt><trkpt lat="45.9971132" lon="11.7460232"><ele>659.0</ele><time>2026-04-06T16:13:01.697Z</time></trkpt><trkpt lat="45.9970466" lon="11.7461336"><ele>659.0</ele><time>2026-04-06T16:13:03.697Z</time></trkpt><trkpt lat="45.9969854" lon="11.7461825"><ele>659.0</ele><time>2026-04-06T16:13:04.698Z</time></trkpt><trkpt lat="45.9968926" lon="11.7462691"><ele>659.0</ele><time>2026-04-06T16:13:06.697Z</time></trkpt><trkpt lat="45.9968398" lon="11.7463468"><ele>660.4000000000001</ele><time>2026-04-06T16:13:09.698Z</time></trkpt><trkpt lat="45.9968928" lon="11.7464765"><ele>661.8</ele><time>2026-04-06T16:13:12.697Z</time></trkpt><trkpt lat="45.9969976" lon="11.7465337"><ele>663.2</ele><time>2026-04-06T16:13:14.697Z</time></trkpt><trkpt lat="45.9970668" lon="11.7466016"><ele>664.5999999999999</ele><time>2026-04-06T16:13:15.697Z</time></trkpt><trkpt lat="45.9971204" lon="11.7466494"><ele>666.0</ele><time>2026-04-06T16:13:16.698Z</time></trkpt><trkpt lat="45.9971952" lon="11.746721"><ele>666.0</ele><time>2026-04-06T16:13:18.697Z</time></trkpt><trkpt lat="45.997202" lon="11.7468258"><ele>666.0</ele><time>2026-04-06T16:13:20.697Z</time></trkpt><trkpt lat="45.9972024" lon="11.7469285"><ele>666.0</ele><time>2026-04-06T16:13:21.697Z</time></trkpt><trkpt lat="45.9972049" lon="11.7470295"><ele>666.0</ele><time>2026-04-06T16:13:22.697Z</time></trkpt><trkpt lat="45.9971513" lon="11.7470974"><ele>666.0</ele><time>2026-04-06T16:13:24.698Z</time></trkpt><trkpt lat="45.997031" lon="11.7470946"><ele>666.0</ele><time>2026-04-06T16:13:26.697Z</time></trkpt><trkpt lat="45.9969639" lon="11.7470533"><ele>667.3333333333334</ele><time>2026-04-06T16:13:27.697Z</time></trkpt><trkpt lat="45.9968967" lon="11.7470009"><ele>668.6666666666666</ele><time>2026-04-06T16:13:28.697Z</time></trkpt><trkpt lat="45.99683" lon="11.7469488"><ele>670.0</ele><time>2026-04-06T16:13:29.697Z</time></trkpt><trkpt lat="45.9967548" lon="11.7469032"><ele>671.3333333333333</ele><time>2026-04-06T16:13:30.697Z</time></trkpt><trkpt lat="45.9966762" lon="11.7468818"><ele>672.6666666666666</ele><time>2026-04-06T16:13:31.697Z</time></trkpt><trkpt lat="45.9965917" lon="11.7468878"><ele>674.0</ele><time>2026-04-06T16:13:32.697Z</time></trkpt><trkpt lat="45.9965152" lon="11.7469197"><ele>674.0</ele><time>2026-04-06T16:13:33.697Z</time></trkpt><trkpt lat="45.9964481" lon="11.746965"><ele>674.0</ele><time>2026-04-06T16:13:34.697Z</time></trkpt><trkpt lat="45.9963804" lon="11.7470163"><ele>674.0</ele><time>2026-04-06T16:13:35.697Z</time></trkpt><trkpt lat="45.9963074" lon="11.7470713"><ele>674.0</ele><time>2026-04-06T16:13:36.697Z</time></trkpt><trkpt lat="45.9962246" lon="11.7471272"><ele>674.0</ele><time>2026-04-06T16:13:37.697Z</time></trkpt><trkpt lat="45.9961474" lon="11.7471868"><ele>674.0</ele><time>2026-04-06T16:13:38.698Z</time></trkpt><trkpt lat="45.9960747" lon="11.7472602"><ele>674.0</ele><time>2026-04-06T16:13:39.698Z</time></trkpt><trkpt lat="45.9960077" lon="11.7473479"><ele>674.0</ele><time>2026-04-06T16:13:40.697Z</time></trkpt><trkpt lat="45.9959371" lon="11.7474537"><ele>674.0</ele><time>2026-04-06T16:13:41.697Z</time></trkpt><trkpt lat="45.9958636" lon="11.7475598"><ele>674.0</ele><time>2026-04-06T16:13:42.697Z</time></trkpt><trkpt lat="45.9957886" lon="11.7476588"><ele>674.0</ele><time>2026-04-06T16:13:43.697Z</time></trkpt><trkpt lat="45.9957123" lon="11.7477596"><ele>674.0</ele><time>2026-04-06T16:13:44.697Z</time></trkpt><trkpt lat="45.9956341" lon="11.7478707"><ele>674.0</ele><time>2026-04-06T16:13:45.697Z</time></trkpt><trkpt lat="45.9955593" lon="11.7479911"><ele>674.0</ele><time>2026-04-06T16:13:46.697Z</time></trkpt><trkpt lat="45.9954937" lon="11.7481239"><ele>674.0</ele><time>2026-04-06T16:13:47.697Z</time></trkpt><trkpt lat="45.9954377" lon="11.748267"><ele>674.0</ele><time>2026-04-06T16:13:48.698Z</time></trkpt><trkpt lat="45.9953883" lon="11.7484011"><ele>674.0</ele><time>2026-04-06T16:13:49.697Z</time></trkpt><trkpt lat="45.9953362" lon="11.7485329"><ele>674.0</ele><time>2026-04-06T16:13:50.699Z</time></trkpt><trkpt lat="45.9952877" lon="11.7486669"><ele>674.0</ele><time>2026-04-06T16:13:51.698Z</time></trkpt><trkpt lat="45.9952405" lon="11.7487851"><ele>674.0</ele><time>2026-04-06T16:13:52.698Z</time></trkpt><trkpt lat="45.9951924" lon="11.7489026"><ele>674.0</ele><time>2026-04-06T16:13:53.697Z</time></trkpt><trkpt lat="45.995149" lon="11.7490254"><ele>677.6</ele><time>2026-04-06T16:13:54.698Z</time></trkpt><trkpt lat="45.9951146" lon="11.749158"><ele>681.2</ele><time>2026-04-06T16:13:55.697Z</time></trkpt><trkpt lat="45.9950893" lon="11.7492992"><ele>684.8000000000001</ele><time>2026-04-06T16:13:56.697Z</time></trkpt><trkpt lat="45.9950713" lon="11.7494419"><ele>688.4000000000001</ele><time>2026-04-06T16:13:57.697Z</time></trkpt><trkpt lat="45.9950595" lon="11.7495913"><ele>692.0</ele><time>2026-04-06T16:13:58.697Z</time></trkpt><trkpt lat="45.9950564" lon="11.7497407"><ele>693.0</ele><time>2026-04-06T16:13:59.697Z</time></trkpt><trkpt lat="45.9950561" lon="11.7498883"><ele>694.0</ele><time>2026-04-06T16:14:00.697Z</time></trkpt><trkpt lat="45.9950584" lon="11.7500324"><ele>695.0</ele><time>2026-04-06T16:14:01.697Z</time></trkpt><trkpt lat="45.9950591" lon="11.7501674"><ele>696.0</ele><time>2026-04-06T16:14:02.697Z</time></trkpt><trkpt lat="45.9950535" lon="11.7503025"><ele>697.0</ele><time>2026-04-06T16:14:03.697Z</time></trkpt><trkpt lat="45.9950343" lon="11.7504217"><ele>688.2</ele><time>2026-04-06T16:14:04.698Z</time></trkpt><trkpt lat="45.9949955" lon="11.7505378"><ele>679.4000000000001</ele><time>2026-04-06T16:14:05.698Z</time></trkpt><trkpt lat="45.9949348" lon="11.7506499"><ele>670.5999999999999</ele><time>2026-04-06T16:14:06.698Z</time></trkpt><trkpt lat="45.9948624" lon="11.7507594"><ele>661.8</ele><time>2026-04-06T16:14:07.699Z</time></trkpt><trkpt lat="45.9947939" lon="11.7508816"><ele>653.0</ele><time>2026-04-06T16:14:08.698Z</time></trkpt><trkpt lat="45.9947287" lon="11.7510513"><ele>653.0</ele><time>2026-04-06T16:14:09.698Z</time></trkpt><trkpt lat="45.9946681" lon="11.7512785"><ele>653.0</ele><time>2026-04-06T16:14:10.698Z</time></trkpt><trkpt lat="45.9946194" lon="11.7515257"><ele>653.0</ele><time>2026-04-06T16:14:11.698Z</time></trkpt><trkpt lat="45.9945799" lon="11.7517499"><ele>653.75</ele><time>2026-04-06T16:14:12.698Z</time></trkpt><trkpt lat="45.9945412" lon="11.7519618"><ele>654.5</ele><time>2026-04-06T16:14:13.699Z</time></trkpt><trkpt lat="45.9945011" lon="11.7521607"><ele>655.25</ele><time>2026-04-06T16:14:14.698Z</time></trkpt><trkpt lat="45.9944725" lon="11.7523459"><ele>656.0</ele><time>2026-04-06T16:14:15.698Z</time></trkpt><trkpt lat="45.99445" lon="11.7525216"><ele>656.0</ele><time>2026-04-06T16:14:16.698Z</time></trkpt><trkpt lat="45.9944278" lon="11.7526774"><ele>656.0</ele><time>2026-04-06T16:14:17.698Z</time></trkpt><trkpt lat="45.9944114" lon="11.75282"><ele>656.0</ele><time>2026-04-06T16:14:18.698Z</time></trkpt><trkpt lat="45.9943978" lon="11.7529593"><ele>656.0</ele><time>2026-04-06T16:14:19.698Z</time></trkpt><trkpt lat="45.9943896" lon="11.7531047"><ele>656.0</ele><time>2026-04-06T16:14:20.698Z</time></trkpt><trkpt lat="45.9943854" lon="11.7532465"><ele>656.1999999999999</ele><time>2026-04-06T16:14:21.698Z</time></trkpt><trkpt lat="45.9943862" lon="11.753394"><ele>656.4</ele><time>2026-04-06T16:14:22.699Z</time></trkpt><trkpt lat="45.9943905" lon="11.7535414"><ele>656.6</ele><time>2026-04-06T16:14:23.698Z</time></trkpt><trkpt lat="45.9943932" lon="11.7536903"><ele>656.8</ele><time>2026-04-06T16:14:24.699Z</time></trkpt><trkpt lat="45.9943936" lon="11.7538424"><ele>657.0</ele><time>2026-04-06T16:14:25.698Z</time></trkpt><trkpt lat="45.9943972" lon="11.7539905"><ele>655.2</ele><time>2026-04-06T16:14:26.698Z</time></trkpt><trkpt lat="45.9944019" lon="11.7541408"><ele>653.4000000000001</ele><time>2026-04-06T16:14:27.698Z</time></trkpt><trkpt lat="45.9944037" lon="11.7542853"><ele>651.5999999999999</ele><time>2026-04-06T16:14:28.698Z</time></trkpt><trkpt lat="45.9944021" lon="11.7544306"><ele>649.8</ele><time>2026-04-06T16:14:29.698Z</time></trkpt><trkpt lat="45.9944093" lon="11.754572"><ele>648.0</ele><time>2026-04-06T16:14:30.698Z</time></trkpt><trkpt lat="45.9944371" lon="11.7547077"><ele>646.8</ele><time>2026-04-06T16:14:31.698Z</time></trkpt><trkpt lat="45.9944628" lon="11.7548412"><ele>645.5999999999999</ele><time>2026-04-06T16:14:32.698Z</time></trkpt><trkpt lat="45.9944649" lon="11.7549764"><ele>644.4000000000001</ele><time>2026-04-06T16:14:33.698Z</time></trkpt><trkpt lat="45.9944453" lon="11.755112"><ele>643.2</ele><time>2026-04-06T16:14:34.698Z</time></trkpt><trkpt lat="45.9944311" lon="11.7552476"><ele>642.0</ele><time>2026-04-06T16:14:35.698Z</time></trkpt><trkpt lat="45.994434" lon="11.7553693"><ele>642.0</ele><time>2026-04-06T16:14:36.698Z</time></trkpt><trkpt lat="45.9944502" lon="11.7554703"><ele>642.0</ele><time>2026-04-06T16:14:37.698Z</time></trkpt><trkpt lat="45.9944235" lon="11.7556154"><ele>642.0</ele><time>2026-04-06T16:14:39.698Z</time></trkpt><trkpt lat="45.9943038" lon="11.7557064"><ele>642.0</ele><time>2026-04-06T16:14:41.698Z</time></trkpt><trkpt lat="45.9942231" lon="11.7557601"><ele>642.0</ele><time>2026-04-06T16:14:42.698Z</time></trkpt><trkpt lat="45.9941763" lon="11.7558594"><ele>635.2</ele><time>2026-04-06T16:14:43.698Z</time></trkpt><trkpt lat="45.9941677" lon="11.7559919"><ele>628.4000000000001</ele><time>2026-04-06T16:14:44.699Z</time></trkpt><trkpt lat="45.9941715" lon="11.7561184"><ele>621.5999999999999</ele><time>2026-04-06T16:14:45.698Z</time></trkpt><trkpt lat="45.9941707" lon="11.7562495"><ele>614.8</ele><time>2026-04-06T16:14:46.698Z</time></trkpt><trkpt lat="45.9941631" lon="11.7563863"><ele>608.0</ele><time>2026-04-06T16:14:47.698Z</time></trkpt><trkpt lat="45.994154" lon="11.7565269"><ele>608.0</ele><time>2026-04-06T16:14:48.698Z</time></trkpt><trkpt lat="45.9941483" lon="11.7566726"><ele>608.0</ele><time>2026-04-06T16:14:49.698Z</time></trkpt><trkpt lat="45.9941466" lon="11.7568079"><ele>608.0</ele><time>2026-04-06T16:14:50.698Z</time></trkpt><trkpt lat="45.9941397" lon="11.7569361"><ele>608.0</ele><time>2026-04-06T16:14:51.698Z</time></trkpt><trkpt lat="45.9941338" lon="11.7570656"><ele>608.0</ele><time>2026-04-06T16:14:52.698Z</time></trkpt><trkpt lat="45.9941321" lon="11.7572052"><ele>609.4</ele><time>2026-04-06T16:14:53.699Z</time></trkpt><trkpt lat="45.9941419" lon="11.7573545"><ele>610.8</ele><time>2026-04-06T16:14:54.698Z</time></trkpt><trkpt lat="45.9941787" lon="11.7575127"><ele>612.2</ele><time>2026-04-06T16:14:55.698Z</time></trkpt><trkpt lat="45.9942257" lon="11.7576498"><ele>613.6</ele><time>2026-04-06T16:14:56.698Z</time></trkpt><trkpt lat="45.9942723" lon="11.7577678"><ele>615.0</ele><time>2026-04-06T16:14:57.699Z</time></trkpt><trkpt lat="45.9943129" lon="11.7578761"><ele>615.0</ele><time>2026-04-06T16:14:58.699Z</time></trkpt><trkpt lat="45.9943482" lon="11.7579756"><ele>615.0</ele><time>2026-04-06T16:14:59.7Z</time></trkpt><trkpt lat="45.9943777" lon="11.7580706"><ele>615.0</ele><time>2026-04-06T16:15:00.699Z</time></trkpt><trkpt lat="45.9944018" lon="11.7581572"><ele>615.0</ele><time>2026-04-06T16:15:01.699Z</time></trkpt><trkpt lat="45.9944431" lon="11.7582553"><ele>615.0</ele><time>2026-04-06T16:15:02.699Z</time></trkpt><trkpt lat="45.9944889" lon="11.7583655"><ele>615.0</ele><time>2026-04-06T16:15:03.699Z</time></trkpt><trkpt lat="45.9945235" lon="11.7584662"><ele>613.8333333333334</ele><time>2026-04-06T16:15:04.698Z</time></trkpt><trkpt lat="45.9945548" lon="11.7585639"><ele>612.6666666666666</ele><time>2026-04-06T16:15:05.698Z</time></trkpt><trkpt lat="45.994587" lon="11.7586647"><ele>611.5</ele><time>2026-04-06T16:15:06.7Z</time></trkpt><trkpt lat="45.9946141" lon="11.7587687"><ele>610.3333333333333</ele><time>2026-04-06T16:15:07.698Z</time></trkpt><trkpt lat="45.9946361" lon="11.7588792"><ele>609.1666666666666</ele><time>2026-04-06T16:15:08.7Z</time></trkpt><trkpt lat="45.9946548" lon="11.7589805"><ele>608.0</ele><time>2026-04-06T16:15:09.698Z</time></trkpt><trkpt lat="45.9946674" lon="11.7590804"><ele>608.0</ele><time>2026-04-06T16:15:10.699Z</time></trkpt><trkpt lat="45.9946853" lon="11.7591834"><ele>608.0</ele><time>2026-04-06T16:15:11.7Z</time></trkpt><trkpt lat="45.9947141" lon="11.7592912"><ele>608.0</ele><time>2026-04-06T16:15:12.699Z</time></trkpt><trkpt lat="45.9947397" lon="11.7593947"><ele>608.0</ele><time>2026-04-06T16:15:13.699Z</time></trkpt><trkpt lat="45.9947661" lon="11.759488"><ele>608.0</ele><time>2026-04-06T16:15:14.7Z</time></trkpt><trkpt lat="45.9948046" lon="11.7595995"><ele>608.0</ele><time>2026-04-06T16:15:16.699Z</time></trkpt><trkpt lat="45.994793" lon="11.759718"><ele>607.4285714285714</ele><time>2026-04-06T16:15:19.699Z</time></trkpt><trkpt lat="45.9948003" lon="11.759831"><ele>606.8571428571429</ele><time>2026-04-06T16:15:21.7Z</time></trkpt><trkpt lat="45.9948287" lon="11.7599271"><ele>606.2857142857143</ele><time>2026-04-06T16:15:23.699Z</time></trkpt><trkpt lat="45.99488" lon="11.7599843"><ele>605.7142857142858</ele><time>2026-04-06T16:15:26.699Z</time></trkpt><trkpt lat="45.994945" lon="11.7599453"><ele>605.1428571428571</ele><time>2026-04-06T16:15:29.699Z</time></trkpt><trkpt lat="45.9949674" lon="11.7598501"><ele>604.5714285714287</ele><time>2026-04-06T16:15:31.699Z</time></trkpt><trkpt lat="45.9949695" lon="11.75975"><ele>604.0</ele><time>2026-04-06T16:15:33.699Z</time></trkpt><trkpt lat="45.9949964" lon="11.7596539"><ele>604.0</ele><time>2026-04-06T16:16:28.778Z</time></trkpt><trkpt lat="45.9950788" lon="11.759582"><ele>636.0</ele><time>2026-04-06T16:19:04.771Z</time></trkpt><trkpt lat="45.9951744" lon="11.7596074"><ele>636.0</ele><time>2026-04-06T16:24:22.763Z</time></trkpt></trkseg></trk></gpx>